[[{"header":{"parameterUnit":"m.s-1","parameterCategory":1,"la1":30.6,"la2":29.2853,"lo1":-89.7004,"lo2":-87.6739,"dy":0.0162,"dx":0.0183,"nx":112,"ny":82,"refTime":"2023-03-24T06:00:00:Z","depth":0,"parameterNumber":2,"parameterNumberName":"U-component_of_WINDS"},"data":[0.0,0.0,0.0,0.0,0.0,0.0,0.0,0.0,0.0,0.0,0.0,0.0,0.0,0.0,0.0,0.0,0.0,0.0,0.0,0.0,0.0,0.0,0.0,0.0,0.0,0.0,0.0,0.0,0.0,0.0,0.0,0.0,0.0,0.0,0.0,0.0,0.0,0.0,0.0,0.0,0.0,0.0,0.0,0.0,0.0,0.0,0.0,0.0,0.0,0.0,0.0,0.0,0.0,0.0,0.0,0.0,0.0,0.0,0.0,0.0,0.0,0.0,0.0,0.0,0.0,0.0,0.0,0.0,0.0,0.0,0.0,0.0,0.0,0.0,0.0,0.0,0.0,0.0,0.0,0.0,0.0,0.0,0.0,0.0,0.0,0.0,0.0,0.0,0.0,0.0,0.0,-3.2661,-3.7828,-4.1289,-4.1895,-3.989,-3.7269,-3.4283,0.0,0.0,0.0,0.0,0.0,0.0,0.0,0.0,0.0,0.0,0.0,0.0,0.0,0.0,0.0,0.0,0.0,0.0,0.0,0.0,0.0,0.0,0.0,0.0,0.0,0.0,0.0,0.0,0.0,0.0,0.0,0.0,0.0,0.0,0.0,0.0,0.0,0.0,0.0,0.0,0.0,0.0,0.0,0.0,0.0,0.0,0.0,0.0,0.0,0.0,0.0,0.0,0.0,0.0,0.0,0.0,0.0,0.0,0.0,0.0,0.0,0.0,0.0,0.0,0.0,0.0,0.0,0.0,0.0,0.0,0.0,0.0,0.0,0.0,0.0,0.0,0.0,0.0,0.0,0.0,0.0,0.0,0.0,0.0,0.0,0.0,0.0,0.0,0.0,0.0,0.0,0.0,0.0,0.0,0.0,0.0,0.0,0.0,0.0,0.0,0.0,0.0,0.0,0.0,-2.9775,-3.6162,-3.9265,-4.1102,-4.1753,-3.859,-3.5862,-3.4298,0.0,0.0,0.0,0.0,0.0,0.0,0.0,0.0,0.0,0.0,0.0,0.0,0.0,0.0,0.0,0.0,0.0,0.0,0.0,0.0,0.0,0.0,0.0,0.0,0.0,0.0,0.0,0.0,0.0,0.0,0.0,0.0,0.0,0.0,0.0,0.0,0.0,0.0,0.0,0.0,0.0,0.0,0.0,0.0,0.0,0.0,0.0,0.0,0.0,0.0,0.0,0.0,0.0,0.0,0.0,0.0,0.0,0.0,0.0,0.0,0.0,0.0,0.0,0.0,0.0,0.0,0.0,0.0,0.0,0.0,0.0,0.0,0.0,0.0,0.0,0.0,0.0,0.0,0.0,0.0,0.0,0.0,0.0,0.0,0.0,0.0,0.0,0.0,0.0,0.0,0.0,0.0,0.0,0.0,0.0,0.0,0.0,0.0,0.0,0.0,0.0,0.0,0.0,-2.8851,-3.2189,-3.7059,-3.9913,-4.1435,-4.1445,-3.8152,-3.539,-3.3666,-3.1105,0.0,0.0,0.0,0.0,0.0,0.0,0.0,0.0,0.0,0.0,0.0,0.0,0.0,0.0,0.0,0.0,0.0,0.0,0.0,0.0,0.0,0.0,0.0,0.0,0.0,0.0,0.0,0.0,0.0,0.0,0.0,0.0,0.0,0.0,0.0,0.0,0.0,0.0,0.0,0.0,0.0,0.0,0.0,0.0,0.0,0.0,0.0,0.0,0.0,0.0,0.0,0.0,0.0,0.0,0.0,0.0,0.0,0.0,0.0,0.0,0.0,0.0,0.0,0.0,0.0,0.0,0.0,0.0,0.0,0.0,0.0,0.0,0.0,0.0,0.0,0.0,0.0,0.0,0.0,0.0,0.0,0.0,0.0,0.0,0.0,0.0,0.0,0.0,0.0,0.0,0.0,0.0,0.0,0.0,0.0,0.0,0.0,0.0,0.0,0.0,0.0,0.0,-3.208,-3.4767,-3.7717,-4.0303,-4.1556,-4.0885,-3.7485,-3.4589,-3.2706,-2.9106,0.0,0.0,0.0,0.0,0.0,0.0,0.0,0.0,0.0,0.0,0.0,0.0,0.0,0.0,0.0,0.0,0.0,0.0,0.0,0.0,0.0,0.0,0.0,0.0,0.0,0.0,0.0,0.0,0.0,0.0,0.0,0.0,0.0,0.0,0.0,0.0,0.0,0.0,0.0,0.0,0.0,0.0,0.0,0.0,0.0,0.0,0.0,0.0,0.0,0.0,0.0,0.0,0.0,0.0,0.0,0.0,0.0,0.0,0.0,0.0,0.0,0.0,0.0,0.0,0.0,0.0,0.0,0.0,0.0,0.0,0.0,0.0,0.0,0.0,0.0,0.0,0.0,0.0,0.0,0.0,0.0,0.0,0.0,0.0,0.0,0.0,0.0,0.0,0.0,0.0,0.0,0.0,0.0,0.0,0.0,0.0,0.0,0.0,0.0,0.0,0.0,0.0,-3.3248,-3.6344,-3.9242,-4.0551,-4.085,-3.9893,-3.58,-3.2749,-3.1413,-2.7523,0.0,0.0,0.0,0.0,0.0,0.0,0.0,0.0,0.0,0.0,0.0,0.0,0.0,0.0,0.0,0.0,0.0,0.0,0.0,0.0,0.0,0.0,0.0,0.0,0.0,0.0,0.0,0.0,0.0,0.0,0.0,0.0,0.0,0.0,0.0,0.0,0.0,0.0,0.0,0.0,0.0,0.0,0.0,0.0,0.0,0.0,0.0,0.0,0.0,0.0,0.0,0.0,0.0,0.0,0.0,0.0,0.0,0.0,0.0,0.0,0.0,0.0,0.0,0.0,0.0,0.0,0.0,0.0,0.0,0.0,0.0,0.0,0.0,0.0,0.0,0.0,0.0,0.0,0.0,0.0,0.0,0.0,0.0,0.0,0.0,0.0,0.0,0.0,0.0,0.0,0.0,0.0,0.0,0.0,0.0,0.0,0.0,0.0,0.0,0.0,0.0,0.0,-3.2433,-3.5474,0.0,-3.9648,-3.9974,-3.9324,-3.5453,-3.2326,-3.0692,0.0,0.0,0.0,0.0,0.0,0.0,0.0,0.0,0.0,0.0,0.0,0.0,0.0,0.0,0.0,0.0,0.0,0.0,0.0,0.0,0.0,0.0,0.0,0.0,0.0,0.0,0.0,0.0,0.0,0.0,0.0,0.0,0.0,0.0,0.0,0.0,0.0,0.0,0.0,0.0,0.0,0.0,0.0,0.0,0.0,0.0,0.0,0.0,0.0,0.0,0.0,0.0,0.0,0.0,0.0,0.0,0.0,0.0,0.0,0.0,0.0,0.0,0.0,0.0,0.0,0.0,0.0,0.0,0.0,0.0,0.0,0.0,0.0,0.0,0.0,0.0,0.0,0.0,0.0,0.0,0.0,0.0,0.0,0.0,0.0,0.0,0.0,0.0,0.0,0.0,0.0,0.0,0.0,0.0,0.0,0.0,0.0,0.0,0.0,0.0,0.0,0.0,-2.9066,-3.1955,-3.4816,0.0,-3.8856,-3.8911,-3.7754,-3.4128,-3.1285,-2.9666,0.0,0.0,0.0,0.0,0.0,0.0,0.0,0.0,0.0,0.0,0.0,0.0,0.0,0.0,0.0,0.0,0.0,0.0,0.0,0.0,0.0,0.0,0.0,0.0,0.0,0.0,0.0,0.0,0.0,0.0,0.0,0.0,0.0,0.0,0.0,0.0,0.0,0.0,0.0,0.0,0.0,0.0,0.0,0.0,0.0,0.0,0.0,0.0,0.0,0.0,0.0,0.0,0.0,0.0,0.0,0.0,0.0,0.0,0.0,0.0,0.0,0.0,0.0,0.0,0.0,0.0,0.0,0.0,0.0,0.0,0.0,0.0,0.0,0.0,0.0,0.0,0.0,0.0,0.0,0.0,0.0,0.0,0.0,0.0,0.0,0.0,0.0,0.0,0.0,0.0,0.0,0.0,0.0,0.0,0.0,0.0,0.0,0.0,0.0,0.0,0.0,0.0,-2.9444,-3.2139,-3.4688,-3.7276,-3.8274,-3.7675,-3.4934,-3.1629,-2.9275,0.0,0.0,0.0,0.0,0.0,0.0,0.0,0.0,0.0,0.0,0.0,0.0,0.0,0.0,0.0,0.0,0.0,0.0,0.0,0.0,0.0,0.0,0.0,0.0,0.0,0.0,0.0,0.0,0.0,0.0,0.0,0.0,0.0,0.0,0.0,0.0,0.0,0.0,0.0,0.0,0.0,0.0,0.0,0.0,0.0,0.0,0.0,0.0,0.0,0.0,0.0,0.0,0.0,0.0,0.0,0.0,0.0,0.0,0.0,0.0,0.0,0.0,0.0,0.0,0.0,0.0,0.0,0.0,0.0,0.0,0.0,0.0,0.0,0.0,0.0,0.0,0.0,0.0,0.0,0.0,0.0,0.0,0.0,0.0,0.0,0.0,0.0,0.0,0.0,0.0,0.0,0.0,0.0,0.0,0.0,0.0,0.0,0.0,0.0,0.0,0.0,0.0,0.0,-2.7851,-3.1167,-3.3802,-3.5372,-3.6226,-3.6084,-3.4636,-3.1352,-2.8982,-2.79,0.0,0.0,0.0,0.0,0.0,0.0,0.0,0.0,0.0,0.0,0.0,0.0,0.0,0.0,0.0,0.0,0.0,0.0,0.0,0.0,0.0,0.0,0.0,0.0,0.0,0.0,0.0,0.0,0.0,0.0,0.0,0.0,0.0,0.0,0.0,0.0,0.0,0.0,0.0,0.0,0.0,0.0,0.0,0.0,0.0,0.0,0.0,0.0,0.0,0.0,0.0,0.0,0.0,0.0,0.0,0.0,0.0,0.0,0.0,0.0,0.0,0.0,0.0,0.0,0.0,0.0,0.0,0.0,0.0,0.0,0.0,0.0,0.0,0.0,0.0,0.0,0.0,0.0,0.0,0.0,0.0,0.0,0.0,0.0,0.0,0.0,0.0,0.0,0.0,0.0,0.0,0.0,0.0,0.0,0.0,0.0,0.0,0.0,0.0,0.0,0.0,0.0,-2.743,-3.0508,-3.2833,-3.3808,-3.4492,-3.421,-3.2675,-3.0449,-2.8767,-2.7913,0.0,0.0,0.0,0.0,0.0,0.0,0.0,0.0,0.0,0.0,0.0,0.0,0.0,0.0,0.0,0.0,0.0,0.0,0.0,0.0,0.0,0.0,0.0,0.0,0.0,0.0,0.0,0.0,0.0,0.0,0.0,0.0,0.0,0.0,0.0,0.0,0.0,0.0,0.0,0.0,0.0,0.0,0.0,0.0,0.0,0.0,0.0,0.0,0.0,0.0,0.0,0.0,0.0,0.0,0.0,0.0,0.0,0.0,0.0,0.0,0.0,0.0,0.0,0.0,0.0,0.0,0.0,0.0,0.0,0.0,0.0,0.0,0.0,0.0,0.0,0.0,0.0,0.0,0.0,0.0,0.0,0.0,0.0,0.0,0.0,0.0,0.0,0.0,0.0,0.0,0.0,0.0,0.0,0.0,0.0,0.0,0.0,0.0,0.0,0.0,0.0,0.0,-2.7791,-3.0088,-3.1706,-3.2408,-3.2856,-3.2166,-2.989,-2.9147,-2.8629,-2.8129,0.0,0.0,0.0,0.0,0.0,0.0,0.0,0.0,0.0,0.0,0.0,0.0,0.0,0.0,0.0,0.0,0.0,0.0,0.0,0.0,0.0,0.0,0.0,0.0,0.0,0.0,0.0,0.0,0.0,0.0,0.0,0.0,0.0,0.0,0.0,0.0,0.0,0.0,0.0,0.0,0.0,0.0,0.0,0.0,0.0,0.0,0.0,0.0,0.0,0.0,0.0,0.0,0.0,0.0,0.0,0.0,0.0,0.0,0.0,0.0,-3.952,0.0,0.0,0.0,0.0,0.0,0.0,0.0,0.0,0.0,0.0,0.0,0.0,0.0,0.0,0.0,0.0,0.0,0.0,0.0,0.0,0.0,0.0,0.0,0.0,0.0,0.0,0.0,0.0,0.0,0.0,0.0,0.0,0.0,0.0,0.0,0.0,0.0,0.0,0.0,0.0,0.0,-2.801,-2.8898,-2.9652,-3.0691,-3.0963,-3.0458,-2.8972,-2.8587,-2.8279,-2.7969,-2.7453,0.0,0.0,0.0,0.0,0.0,0.0,0.0,0.0,0.0,0.0,0.0,0.0,0.0,0.0,0.0,0.0,0.0,0.0,0.0,0.0,0.0,0.0,0.0,0.0,0.0,0.0,0.0,0.0,0.0,0.0,0.0,0.0,0.0,0.0,0.0,0.0,0.0,0.0,0.0,0.0,0.0,0.0,0.0,0.0,0.0,0.0,0.0,0.0,0.0,0.0,0.0,0.0,0.0,0.0,0.0,0.0,0.0,0.0,0.0,0.0,-4.2579,0.0,0.0,0.0,0.0,0.0,0.0,0.0,0.0,0.0,0.0,0.0,0.0,0.0,0.0,0.0,0.0,0.0,0.0,0.0,0.0,0.0,0.0,0.0,0.0,0.0,0.0,0.0,0.0,0.0,0.0,0.0,0.0,0.0,0.0,0.0,0.0,0.0,0.0,0.0,0.0,-2.9555,-3.0055,-3.0188,-3.0043,-2.9659,-2.9011,-2.8061,-2.7983,-2.8178,-2.8677,-2.8349,0.0,0.0,0.0,0.0,0.0,0.0,0.0,0.0,0.0,0.0,0.0,0.0,0.0,0.0,0.0,0.0,0.0,0.0,0.0,0.0,0.0,0.0,0.0,0.0,0.0,0.0,0.0,0.0,0.0,0.0,0.0,0.0,0.0,0.0,0.0,0.0,0.0,0.0,0.0,0.0,0.0,0.0,0.0,0.0,0.0,0.0,0.0,0.0,0.0,0.0,0.0,0.0,0.0,-4.1356,-4.3806,-4.6847,-4.6982,-4.8641,-5.1233,-4.7868,-4.6985,-4.7684,-4.5329,0.0,0.0,0.0,0.0,0.0,0.0,0.0,0.0,0.0,0.0,0.0,0.0,0.0,0.0,0.0,0.0,0.0,0.0,0.0,0.0,0.0,0.0,0.0,0.0,-3.4108,-3.3917,0.0,0.0,0.0,0.0,0.0,0.0,0.0,0.0,0.0,0.0,0.0,0.0,-3.1011,-3.1335,-3.0995,-2.974,-2.881,-2.8126,-2.7651,-2.7899,-2.8615,-2.9886,-2.9425,-2.9935,0.0,0.0,0.0,0.0,0.0,0.0,0.0,0.0,0.0,0.0,0.0,0.0,0.0,0.0,0.0,0.0,0.0,0.0,0.0,0.0,0.0,0.0,0.0,0.0,0.0,0.0,0.0,0.0,0.0,0.0,0.0,0.0,-3.4824,-3.4327,0.0,0.0,0.0,0.0,0.0,0.0,0.0,0.0,0.0,0.0,0.0,0.0,0.0,-3.6487,-3.7906,-3.8664,-4.0158,-4.2414,-4.3667,-4.5535,-4.7895,-4.9935,-5.1799,-5.3386,-5.2786,0.0,-4.9531,-4.8028,0.0,0.0,0.0,0.0,0.0,0.0,0.0,0.0,0.0,0.0,0.0,0.0,0.0,0.0,0.0,0.0,0.0,0.0,0.0,0.0,0.0,0.0,-3.5946,-3.4542,-3.5412,-3.5974,0.0,-3.3009,-3.2542,-3.1981,-3.0942,0.0,0.0,0.0,0.0,0.0,0.0,0.0,-3.0469,-2.9888,-2.9383,-2.9202,-2.8673,-2.8472,-2.8916,-2.9516,-3.0275,-3.1262,-3.0794,-3.113,-3.2651,-3.1159,0.0,0.0,0.0,0.0,0.0,0.0,0.0,0.0,0.0,0.0,0.0,0.0,0.0,0.0,0.0,0.0,0.0,0.0,0.0,0.0,0.0,0.0,0.0,0.0,0.0,0.0,0.0,0.0,0.0,-3.6289,-3.7538,-3.7984,-3.9089,-3.9804,0.0,0.0,0.0,0.0,0.0,0.0,0.0,0.0,0.0,-3.6161,-3.6975,-3.788,-3.8905,-4.0229,-4.214,-4.4506,-4.681,-4.9172,-5.1505,-5.2885,-5.4576,-5.6418,-5.4919,-5.3604,-5.2377,-5.0502,-4.8741,-4.7062,0.0,0.0,0.0,0.0,-4.3194,-4.3524,-4.4436,-4.5287,0.0,-4.4936,0.0,0.0,0.0,0.0,0.0,0.0,0.0,0.0,0.0,0.0,-3.5662,-3.5071,-3.5756,-3.6257,-3.5069,-3.4107,-3.3162,0.0,-3.2293,-3.2162,-3.077,0.0,0.0,0.0,0.0,-3.363,-3.3228,-3.2705,-3.2012,-3.1057,-3.0271,-2.9964,-3.0344,-3.0668,-3.1384,-3.2662,-3.1843,-3.1814,-3.2927,-3.2103,-3.1784,0.0,0.0,0.0,0.0,0.0,0.0,0.0,0.0,0.0,0.0,0.0,0.0,0.0,0.0,0.0,0.0,0.0,0.0,0.0,0.0,0.0,0.0,0.0,0.0,0.0,0.0,0.0,0.0,-3.7105,-3.9023,-4.0148,-4.0832,-4.1347,0.0,0.0,0.0,0.0,0.0,0.0,-3.8452,-3.8286,-3.7958,-3.735,-3.8528,-3.9635,-4.06,-4.2268,-4.447,-4.7265,-4.9638,-5.2163,-5.4779,-5.5351,-5.6685,-5.8388,-5.6219,-5.5213,-5.4896,-5.2402,-5.0259,-4.8446,-4.7586,-4.6217,-4.4819,-4.5384,-4.5685,-4.5879,-4.6348,-4.6972,-4.731,-4.6,-4.4799,-4.3527,-4.185,0.0,0.0,0.0,0.0,-3.449,-3.4816,-3.504,-3.5185,-3.5307,-3.5733,-3.5991,-3.5523,-3.4946,-3.4048,0.0,-3.3062,-3.3467,-3.2108,0.0,0.0,0.0,0.0,-3.5419,-3.4589,-3.4585,-3.4087,-3.2694,-3.2087,-3.2066,-3.2652,-3.263,-3.3128,-3.4474,-3.3379,-3.3017,-3.3643,-3.3279,-3.2719,-3.2103,0.0,0.0,0.0,0.0,0.0,0.0,0.0,0.0,0.0,0.0,0.0,0.0,0.0,0.0,0.0,0.0,0.0,0.0,0.0,0.0,0.0,0.0,0.0,0.0,0.0,0.0,0.0,0.0,0.0,-3.7516,-3.964,0.0,0.0,0.0,0.0,-4.241,-4.0788,-4.0122,-4.0962,-3.9752,-3.9328,-3.9919,-4.1136,-4.2468,-4.3862,-4.5654,-4.8194,-5.139,-5.1621,-5.3332,-5.6306,-5.6976,-5.7637,-5.8166,-5.7273,-5.6799,-5.6453,-5.3447,-5.1645,-5.0602,-4.9314,-4.8713,-4.8583,-4.8365,-4.7845,-4.7254,-4.7595,-4.6791,-4.5635,-4.576,-4.4222,-4.1983,-4.0308,-3.8278,0.0,0.0,-3.5002,-3.4905,-3.4763,-3.5157,-3.5498,-3.5188,-3.5575,-3.5712,-3.4595,-3.4778,-3.476,0.0,-3.2835,-3.2572,-3.2882,0.0,-3.4075,-3.449,-3.4891,-3.4384,-3.2262,-3.3084,-3.3626,-3.3017,-3.3617,-3.4712,-3.6378,-3.6059,-3.6143,-3.7065,-3.5925,-3.5335,-3.5563,-3.4323,-3.4208,-3.5331,-3.306,0.0,0.0,0.0,0.0,0.0,0.0,0.0,0.0,0.0,0.0,0.0,0.0,0.0,0.0,0.0,0.0,0.0,0.0,0.0,0.0,0.0,0.0,0.0,0.0,0.0,0.0,0.0,0.0,-4.3479,-4.5378,0.0,-4.6248,-4.5079,-4.427,-4.4182,-4.2934,-4.2699,-4.3968,-4.3305,-4.295,-4.3078,-4.3888,-4.4874,-4.5969,-4.8145,-5.0341,-5.255,-5.404,-5.5554,-5.7073,-5.7205,-5.7634,-5.8103,-5.6222,-5.5302,-5.503,-5.2927,-5.1874,-5.1586,-5.0669,-4.9947,-4.9411,-4.932,-4.9013,-4.8624,-4.8009,-4.7439,-4.6766,-4.5491,-4.4366,-4.3232,-4.1557,-4.0109,-3.8826,-3.7501,-3.6759,-3.6202,-3.555,-3.5486,-3.5509,-3.5198,-3.5105,-3.4996,-3.4439,-3.4395,-3.4248,-3.3396,-3.3396,-3.3436,-3.3274,-3.3825,-3.4391,-3.4625,-3.4764,-3.4594,-3.3868,-3.4772,-3.5515,-3.5566,-3.6311,-3.7194,-3.8023,-3.7434,-3.721,-3.7594,-3.6486,-3.5875,-3.5949,-3.4858,-3.4686,-3.5515,-3.4425,-3.3472,0.0,0.0,0.0,0.0,0.0,0.0,0.0,0.0,0.0,0.0,0.0,0.0,0.0,0.0,0.0,0.0,0.0,0.0,0.0,0.0,0.0,0.0,0.0,0.0,0.0,0.0,-4.5672,-4.7782,-4.8978,-4.9506,-4.9306,-4.7994,-4.7143,-4.7036,-4.5795,-4.5731,-4.7245,-4.6196,-4.5736,-4.6063,-4.6691,-4.755,-4.8669,-5.081,-5.2694,-5.4239,-5.5696,-5.6758,-5.7399,-5.7239,-5.7402,-5.7706,-5.5739,-5.465,-5.4164,-5.2552,-5.1788,-5.1574,-5.1513,-5.1081,-5.052,-5.052,-5.0067,-4.9293,-4.7903,-4.7155,-4.6526,-4.4886,-4.4024,-4.3444,-4.2334,-4.1261,-4.0133,-3.917,-3.8048,-3.6977,-3.6137,-3.5711,-3.5418,-3.5128,-3.4859,-3.4553,-3.4023,-3.403,-3.3973,-3.3379,-3.3762,-3.4023,-3.3523,-3.3809,-3.4185,-3.4305,-3.4329,-3.4325,-3.4303,-3.5592,-3.6692,-3.7058,-3.8174,-3.9019,-3.9286,-3.8655,-3.8126,-3.7923,-3.7135,-3.6702,-3.6666,-3.5648,-3.5284,-3.5722,-3.4615,-3.3356,-3.1967,0.0,0.0,0.0,0.0,0.0,0.0,0.0,0.0,0.0,0.0,0.0,0.0,0.0,0.0,0.0,0.0,0.0,0.0,0.0,0.0,0.0,0.0,0.0,-4.5468,-4.6506,-4.7988,-4.9674,-4.9799,-5.0138,-5.1078,-5.0378,-5.0174,-5.1002,-4.9475,-4.9153,-5.0713,-4.8343,-4.7558,-4.8954,-4.9603,-5.0595,-5.205,-5.3628,-5.5177,-5.658,-5.6499,-5.6782,-5.7388,-5.7264,-5.7112,-5.6912,-5.5965,-5.5081,-5.4128,-5.2516,-5.1307,-5.0591,-5.1802,-5.2162,-5.2066,-5.2066,-5.0952,-4.915,-4.7264,-4.5881,-4.4806,-4.3978,-4.3173,-4.2462,-4.2462,-4.1383,-4.0187,-4.0152,-3.8797,-3.7166,-3.641,-3.5768,-3.5245,-3.4954,-3.4787,-3.4445,-3.346,-3.3811,-3.4186,-3.3612,-3.3974,-3.4211,-3.3645,-3.3505,-3.3529,-3.367,-3.3693,0.0,-3.3316,-3.5386,-3.7002,-3.7359,-3.9037,-4.0197,-4.0285,-3.9786,-3.9095,-3.8199,-3.7985,-3.7863,-3.7791,-3.6724,-3.6142,-3.6164,-3.3509,-3.1995,-3.1709,0.0,0.0,0.0,0.0,0.0,0.0,0.0,0.0,0.0,0.0,0.0,0.0,0.0,0.0,0.0,0.0,0.0,0.0,0.0,0.0,0.0,0.0,-5.2009,-5.0698,-5.0795,-5.1566,-5.3187,-5.3261,-5.3531,-5.4518,-5.3814,-5.3095,-5.2686,-5.2752,-5.2853,-5.3009,-5.2359,-5.2326,-5.306,-5.2665,-5.2839,-5.3739,-5.4642,-5.5555,-5.6439,-5.6903,-5.7145,-5.7239,-5.7213,-5.6787,-5.6082,-5.5199,-5.4291,-5.3304,-5.1593,-5.0684,-5.0432,-5.1036,-5.1144,-5.0938,-5.1036,-4.9865,-4.8116,-4.6896,-4.6185,-4.5733,-4.4962,-4.448,-4.4209,-4.4209,-4.3055,-4.1661,-4.107,-3.9638,-3.7929,-3.6569,-3.5844,-3.5441,-3.5128,-3.5034,-3.4873,-3.4379,-3.493,-3.5514,-3.5461,-3.5893,-3.5927,-3.4601,-3.4871,-3.5298,-3.5322,-3.5514,0.0,-3.7066,-3.7693,-3.8334,-3.911,-4.0316,-4.0857,-4.0342,-3.9637,-3.9077,-3.8796,-3.8138,-3.7685,-3.7596,-3.7205,-3.6526,-3.5643,-3.3446,-3.2214,0.0,0.0,0.0,0.0,0.0,0.0,0.0,0.0,0.0,0.0,0.0,0.0,0.0,0.0,0.0,0.0,0.0,0.0,0.0,0.0,0.0,0.0,-5.4048,-5.575,-5.5981,-5.5102,-5.4859,-5.6031,-5.5496,-5.527,-5.5891,-5.5751,-5.5367,-5.4832,-5.5157,-5.53,-5.495,-5.4298,-5.4313,-5.518,-5.467,-5.4712,-5.539,-5.6085,-5.657,-5.6926,-5.6916,-5.6805,-5.6681,-5.6391,-5.5944,-5.5363,-5.4431,-5.3695,-5.3021,-5.084,-4.9933,0.0,0.0,0.0,0.0,0.0,-4.8889,-4.7698,-4.719,-4.6632,-4.6074,-4.5361,-4.4845,-4.4541,-4.4493,-4.3442,-4.2111,-4.153,-4.0108,-3.8382,-3.6753,-3.5997,-3.56,-3.5304,-3.5258,-3.5234,-3.5001,-3.5661,-3.6363,-3.6434,-3.7038,0.0,-3.6281,-3.6095,-3.6013,-3.5833,-3.6128,-3.6797,-3.7994,-3.8619,-3.9204,-3.9823,-4.0814,-4.1066,-4.0289,-3.9573,0.0,0.0,0.0,-3.6791,-3.6148,-3.6374,0.0,0.0,0.0,-3.2141,-3.1758,0.0,0.0,0.0,-3.2595,-3.2221,0.0,0.0,0.0,0.0,0.0,0.0,0.0,0.0,0.0,0.0,0.0,0.0,0.0,0.0,0.0,0.0,-5.6683,-5.8232,-6.0396,-5.8884,-5.7736,-5.82,-5.6845,-5.6065,-5.643,-5.6853,-5.7126,-5.7207,-5.706,-5.6912,-5.6774,0.0,0.0,0.0,0.0,-5.6419,-5.7079,-5.7528,-5.7739,-5.7583,-5.6637,-5.6116,-5.5957,-5.5233,-5.487,-5.4701,-5.3735,-5.3181,-5.2832,-5.0281,-4.9125,-4.9067,-4.9257,-4.9234,-4.903,-4.8354,-4.7915,-4.7687,-4.7734,0.0,0.0,-4.5466,-4.4765,-4.4202,-4.4074,-4.3084,-4.198,-4.1798,-4.0442,-3.8676,-3.7089,-3.626,-3.5812,-3.5656,-3.5678,-3.5735,-3.5654,-3.6375,-3.7079,-3.7102,-3.7783,-3.8363,-3.8387,-3.7388,-3.64,-3.5993,-3.6464,-3.7064,-3.7615,-3.8929,-3.9824,-3.9974,0.0,0.0,-4.0016,-3.9468,-3.8502,-3.7015,-3.6583,-3.5883,-3.464,-3.512,-3.4357,-3.1994,-3.2173,-3.1899,-3.1132,-3.1491,-3.2161,-3.3055,-3.2669,-3.2389,0.0,0.0,0.0,0.0,0.0,0.0,0.0,0.0,0.0,0.0,0.0,0.0,0.0,0.0,0.0,-5.7555,-5.937,-6.0464,-6.0133,-5.9964,-5.9739,-5.9357,-5.7707,-5.7464,-5.9711,-5.8736,-5.8443,-5.9627,-5.9084,-5.8835,-5.9059,-5.8842,-5.9011,-5.9674,-5.9025,-5.8699,-5.8744,-5.8019,-5.7643,-5.7583,0.0,0.0,-5.5957,-5.5233,-5.4544,-5.3905,-5.3483,-5.2569,-5.1251,-4.9853,-4.858,-4.7497,-4.8081,-4.8354,-4.8342,-4.7889,-4.7393,-4.7027,-4.735,-4.7417,-4.7195,-4.6298,-4.5574,-4.5059,-4.5035,-4.361,0.0,-4.2665,-4.1102,-3.9014,-3.7979,-3.6957,-3.6307,-3.6671,-3.6774,-3.6956,-3.7454,-3.8261,-3.8901,-3.8901,-3.9505,-4.0065,-4.0196,-3.9402,-3.8761,-3.8672,-3.9262,-3.9993,-4.0803,-4.0776,-4.0687,-4.0793,-4.0537,-3.9991,-3.9128,-3.8579,-3.8049,-3.7645,-3.7279,-3.7055,-3.6934,-3.5811,-3.4835,-3.4111,-3.2756,-3.1809,-3.1342,-3.1548,-3.207,-3.2926,-3.2844,-3.2866,0.0,0.0,0.0,0.0,0.0,0.0,0.0,0.0,0.0,0.0,0.0,-5.0106,0.0,0.0,-5.8061,-5.942,-6.0593,-6.0981,-5.9993,-5.9305,-5.8817,-5.8634,-5.781,-5.7847,-5.927,-5.9309,-5.9533,-6.026,-6.0295,-6.0112,-5.9773,-5.9381,-5.942,-5.9983,-5.9164,-5.8827,-5.9089,-5.8117,-5.7559,-5.7486,-5.6091,-5.5631,-5.5957,-5.4399,-5.3651,-5.358,-5.2954,-5.197,-5.0677,-4.9341,-4.8259,-4.7582,-4.8294,-4.8663,-4.8758,-4.8993,-4.9075,-4.9195,-4.9361,-4.918,-4.865,-4.7336,-4.6528,-4.5858,-4.4976,-4.3806,-4.274,-4.2576,-4.128,-3.9757,-3.888,-3.8098,-3.7625,-3.7883,-3.7942,-3.8138,-3.8872,-3.9342,-3.9778,-4.0156,-4.0511,-4.0728,-4.0776,-4.0418,-4.013,-4.0059,-4.0295,-4.0671,-4.1096,-4.0552,-4.0178,-4.0191,-3.9963,-3.9491,-3.863,-3.7839,-3.7116,-3.6482,-3.6323,-3.6078,-3.5705,-3.5296,-3.4836,-3.4323,-3.3759,-3.323,-3.2632,-3.3104,-3.3543,-3.4021,-3.4093,-3.4146,0.0,0.0,0.0,0.0,0.0,0.0,0.0,0.0,-4.4508,-4.7733,-5.0044,-5.2215,-5.445,-5.7336,-5.9674,-6.0623,-6.0841,-6.058,-5.9662,-5.8381,-5.746,-5.7289,-5.7541,-5.7919,-5.8334,-5.938,-6.0142,-6.0381,-6.0783,-6.0763,-6.0226,-5.9486,-5.93,-5.9812,-5.8947,-5.8624,-5.9018,-5.8093,-5.751,-5.7388,-5.5849,-5.5389,-5.5896,-5.3845,-5.3182,-5.3616,-5.2522,-5.161,-5.0796,-4.9103,-4.8449,-4.8579,-4.9386,-4.9897,-5.0256,-5.0552,-5.1012,-5.1531,-5.1657,-5.1118,-5.0095,-4.8554,-4.7616,-4.6754,-4.5104,-4.4201,-4.3529,-4.2555,-4.1633,-4.0644,-3.9644,-3.914,-3.8916,-3.9077,-3.9068,-3.9267,-3.9995,-4.0146,-4.0331,-4.099,-4.1,-4.086,-4.0698,-4.0664,-4.0651,-4.0704,-4.0446,-4.0339,-4.0476,-3.9699,-3.9221,-3.9382,-3.9283,-3.8895,-3.8138,-3.736,-3.652,-3.5616,-3.5651,-3.5365,-3.4587,-3.5118,-3.5134,-3.444,-3.4887,-3.4781,-3.4189,-3.4957,-3.5455,-3.57,-3.6065,-3.5943,-4.2876,-4.2015,-4.1634,-4.2702,-4.2849,-4.4053,0.0,0.0,-5.0141,-5.3122,-5.4701,-5.5897,-5.6999,-5.8333,-5.9582,-6.0623,-6.0225,-5.9494,-5.873,-5.8443,-5.7713,-5.6256,-5.6945,-5.8209,-5.9881,-5.949,-5.9709,-6.0991,-6.0428,-6.0499,-6.1503,-6.1479,-6.1408,-6.1361,-6.0566,-5.976,-5.8993,-5.8093,-5.751,-5.7388,-5.6357,-5.5871,-5.5783,-5.4819,-5.4348,-5.4198,-5.2626,-5.186,-5.162,-4.9901,-4.9578,-5.0292,-5.1112,-5.2254,-5.3298,-5.1773,-5.1322,-5.1586,-5.2192,-5.1856,-5.1025,-5.013,-4.893,-4.7702,-4.679,-4.5543,-4.4335,-4.3565,-4.2661,-4.1582,-4.0126,-3.9494,-3.9385,-4.0087,-4.0088,-4.0165,-4.0908,-4.099,-4.099,-4.1093,-4.1,-4.0664,-3.9857,-3.9754,-3.9971,-4.0611,-4.0035,-3.9758,-4.0407,-3.9184,-3.8547,-3.9324,-3.8425,-3.7615,-3.7266,-3.7232,-3.7246,-3.7309,-3.7363,-3.7381,-3.7292,-3.6789,-3.6499,-3.6408,-3.578,-3.5401,-3.5326,-3.6101,-3.6958,-3.7865,-3.872,-3.8201,-4.3885,-4.3299,-4.2814,0.0,-4.4599,-4.5923,-4.8461,-4.9545,-5.0652,-5.2798,-5.4375,-5.5632,-5.6696,-5.8116,-5.9281,0.0,-5.9751,-5.9316,-5.8445,-5.7515,-5.6624,-5.58,-5.6172,-5.7068,-5.8524,-5.8727,-5.9264,-6.0476,-6.0125,-6.0204,-6.1051,-6.0646,-6.0735,-6.1434,-6.0334,-5.9663,-5.9554,-5.8264,-5.7267,-5.6599,-5.6088,-5.5844,-5.5757,-5.49,-5.4414,-5.4215,-5.3003,-5.2487,-5.238,-5.1198,-5.1173,-5.1958,-5.2743,-5.369,-5.4501,-5.3798,-5.3896,-5.4243,-5.3505,-5.3025,-5.2395,-5.012,-4.9061,-4.8342,-4.6635,-4.5708,-4.5142,-4.4335,-4.3487,-4.2654,-4.2,-4.1294,-4.0856,-4.1151,-4.1047,-4.0939,-4.1356,-4.1244,-4.1117,-4.1152,-4.0619,-4.0018,-3.9662,-3.918,-3.8916,-3.9153,-3.8901,-3.8704,-3.8865,-3.7984,-3.7511,-3.8002,-3.7215,-3.6899,-3.7637,-3.7349,-3.7064,-3.6916,-3.7381,-3.7506,-3.7076,-3.6841,-3.6979,-3.7566,-3.714,-3.7261,-3.7992,-3.8712,-3.9358,-3.9967,-4.0473,-4.0541,-4.4626,0.0,0.0,-4.5094,-4.6362,-4.7601,-4.854,-4.9843,-5.1213,-5.2582,-5.352,-5.4412,-5.5507,-5.6653,-5.7643,-5.8303,-5.8696,-5.8718,-5.8275,-5.6956,-5.5897,-5.5588,-5.5412,-5.5748,-5.6878,-5.7958,-5.8778,-5.9234,-5.9551,-5.9944,-6.0478,-6.0147,-6.0358,-6.1309,-6.0103,-5.9469,-5.9611,-5.8227,-5.7121,-5.6269,-5.6169,-5.6093,-5.5991,-5.5261,-5.4906,-5.4783,-5.3927,-5.3554,-5.3534,-5.2697,-5.2671,-5.3242,-5.3787,-5.4278,-5.4669,-5.4777,-5.5303,-5.5782,-5.4554,-5.3824,-5.3016,-5.0505,-4.9394,-4.8768,-4.6895,-4.6216,-4.5891,-4.4599,-4.395,-4.3551,-4.3102,-4.2562,-4.2233,-4.2445,-4.2259,-4.2008,-4.1968,-4.1661,-4.129,-4.0977,-4.0193,-3.9479,-3.9044,-3.8391,-3.7843,-3.7523,-3.7409,-3.7485,-3.7735,-3.7199,-3.682,-3.6807,-3.6405,-3.6602,-3.7697,-3.7365,-3.7012,-3.6774,-3.7381,-3.7524,-3.702,-3.7303,-3.7802,-3.8466,-3.8597,-3.915,-4.0032,-4.0735,-4.1272,-4.163,-4.1992,-4.2544,0.0,0.0,-4.4284,-4.7156,-4.8416,-4.9445,-5.1513,-5.2594,-5.3396,-5.4187,-5.3315,-5.2816,-5.3868,-5.3726,-5.3997,-5.5659,-5.663,-5.7426,-5.809,-5.7262,-5.626,-5.5491,-5.461,-5.4473,0.0,-5.7374,-5.811,-5.717,-5.8644,-5.9785,-6.0176,-6.092,-6.1284,-6.1193,-6.0416,-5.9539,-5.866,-5.7824,-5.7264,-5.6948,-5.6948,-5.6855,-5.6564,-5.6393,-5.6393,-5.6492,-5.5544,-5.5214,-5.5248,-5.433,-5.393,-5.3966,-5.4001,-5.3922,-5.3851,-5.3816,-5.4267,-5.4866,-5.4934,-5.385,-5.2352,-5.1785,-5.0467,-4.897,-4.833,-4.7592,-4.644,-4.4013,-4.395,-4.4207,-4.2569,-4.2605,-4.3262,-4.4018,-4.3921,-4.3477,-4.2893,-4.2463,-4.1741,-4.0386,-3.9915,-3.9192,-3.7634,-3.7261,-3.6853,-3.6004,-3.5757,-3.6208,-3.7696,-3.7246,-3.6616,-3.6078,-3.6276,-3.6609,-3.6985,-3.7241,-3.7449,-3.7667,-3.781,-3.7898,-3.7966,-3.8913,-3.9348,-3.9175,-4.0129,-4.0631,-4.0681,-4.1606,-4.2246,-4.2653,-4.3547,-4.3996,0.0,0.0,-4.7114,-4.8453,-5.0046,-5.1276,-5.131,-5.1922,-5.2569,-5.2821,-5.0935,-4.9858,-5.2032,-5.1496,-5.1626,-5.4406,-5.5551,-5.6566,-5.7882,-5.6754,-5.5665,-5.5318,-5.4506,0.0,0.0,0.0,0.0,-5.781,-5.781,-5.824,-5.9347,-6.0078,-6.0646,-6.1064,-6.034,-5.983,-5.9412,-5.8078,-5.701,-5.6191,-5.6011,-5.6115,-5.6465,-5.641,-5.641,-5.6465,-5.6124,-5.6017,-5.6009,-5.5623,-5.5141,-5.4679,-5.457,-5.4434,-5.4288,-5.3722,-5.3694,-5.3815,-5.3305,-5.2864,-5.2148,-5.0307,-4.9781,-4.9657,-4.8425,-4.757,-4.6796,-4.5863,-4.5094,-4.4383,-4.3718,-4.3319,-4.3112,-4.3273,-4.2717,-4.2102,-4.1799,-4.1534,-4.1069,-4.0169,-3.9801,-3.9135,-3.7578,-3.7192,-3.6797,-3.5936,-3.5656,-3.5734,-3.6309,-3.6128,-3.5949,-3.601,-3.6105,-3.6402,-3.695,-3.7087,-3.7279,-3.7613,-3.7811,-3.7916,-3.7951,-3.8273,-3.8687,-3.9193,-3.9265,-4.0059,-4.1554,-4.1195,-4.1601,-4.2612,-4.2477,-4.2701,0.0,-4.9061,-4.9481,-5.0566,-5.1375,-5.1739,-5.1023,-5.1455,-5.1802,-5.1034,-4.9183,-4.8151,-4.969,-4.8776,-4.8893,-5.216,-5.3335,-5.4488,-5.6387,-5.5629,-5.4884,-5.506,-5.4335,-5.378,0.0,0.0,0.0,-5.7199,-5.7166,-5.7737,-5.9274,-5.9443,-6.0082,-6.1306,-6.0103,-5.9521,-5.9735,-5.8112,-5.708,-5.6583,-5.6348,-5.6447,-5.6811,-5.6811,-5.6668,-5.6383,-5.6383,-5.6383,-5.6383,-5.596,-5.53,-5.4526,-5.4142,-5.3871,-5.3626,-5.2795,-5.2627,-5.2803,-5.2048,-5.1882,-5.1679,-4.979,-4.9468,-4.9689,-4.9028,-4.7974,-4.6975,-4.6778,-4.5866,-4.4778,-4.4337,-4.3832,-4.3434,-4.323,-4.266,-4.2044,-4.1696,-4.144,-4.1022,-4.0078,-3.9756,-3.9158,-3.7644,-3.7053,-3.6681,-3.6309,-3.5937,-3.5678,-3.56,-3.5554,-3.5633,-3.5822,-3.5975,-3.6276,-3.6811,-3.697,-3.7061,-3.722,-3.7631,-3.772,-3.738,-3.7971,-3.8492,-3.8849,-3.9002,-3.9799,-4.1378,-4.0763,-4.1044,-4.2089,-4.1696,-4.1957,-5.131,-5.154,-5.1339,-5.3335,-5.248,-5.1068,-5.0785,-5.1215,-5.1084,-4.905,-4.8052,-4.7388,0.0,0.0,-4.5931,-4.9042,-5.0251,-5.1658,-5.3968,-5.4169,-5.4215,0.0,0.0,0.0,0.0,0.0,0.0,-5.546,0.0,-5.8215,-5.9855,-5.9074,-5.96,-6.1725,-5.9552,-5.8756,-5.9516,-5.7959,-5.7433,-5.7927,-5.7828,-5.7763,-5.766,-5.7624,-5.7168,-5.6454,-5.6418,-5.6383,-5.632,-5.5363,-5.4526,-5.3682,-5.2803,-5.2359,-5.2091,-5.1181,-5.1372,-5.1969,-5.1289,-5.1026,-5.0911,-5.022,-4.9503,-4.9068,-4.9891,-4.8663,-4.6929,-4.6661,-4.6093,-4.5359,-4.4387,-4.4154,-4.4108,-4.3957,-4.3674,-4.3238,-4.2473,-4.2074,-4.1471,-4.0078,-3.9732,-3.9215,-3.7858,-3.6909,-3.6504,-3.7091,-3.6544,-3.5944,-3.5667,-3.5622,-3.5622,-3.5622,-3.5954,-3.6297,-3.6539,-3.6825,-3.6854,-3.6468,-3.7307,-3.7416,-3.6452,-3.799,-3.8632,-3.8183,-3.9093,-3.972,-4.0075,-4.0239,-4.0608,-4.1146,-4.1261,-4.1798,-5.2385,-5.3109,-5.3419,-5.3827,-5.2948,-5.1836,-5.1153,-4.9762,-4.8487,-4.7969,-4.5081,-4.2923,0.0,0.0,0.0,-4.8043,-5.0753,0.0,-5.5501,-5.5796,0.0,-5.5692,0.0,-5.442,-5.4716,-5.5703,0.0,0.0,-5.6625,-5.7231,-5.8892,-5.8656,-5.8673,-5.9131,-5.8553,-5.8284,-5.8394,-5.7421,-5.691,-5.694,-5.7522,-5.8021,-5.8388,-5.7846,-5.7517,-5.7239,-5.6558,-5.6253,-5.6154,-5.515,-5.4224,-5.3419,-5.2478,-5.2375,-5.2628,-5.1829,-5.231,-5.2991,-5.0572,-4.9942,-5.0039,-4.9047,-4.8851,-4.8891,-4.8551,-4.7618,-4.6684,-4.6613,-4.6012,-4.5305,-4.4929,-4.4775,-4.4655,-4.4523,-4.3482,-4.2295,-4.1438,-4.0769,-4.0032,-3.9122,-3.8893,-3.8939,-3.9112,-3.8503,-3.8011,-3.8048,-3.743,-3.6735,-3.5978,-3.5888,-3.5888,-3.5888,-3.5975,-3.5993,-3.5874,-3.598,-3.5966,-3.5681,-3.6568,-3.6875,-3.6417,-3.6845,-3.6898,-3.6581,-3.6305,-3.6934,-3.8491,-3.8034,-3.8644,-4.0241,-4.032,-4.084,-5.4173,-5.4641,-5.4588,-5.4464,-5.3036,-5.1189,-4.9352,-4.8185,-4.6952,-4.4927,-4.3178,0.0,0.0,0.0,0.0,0.0,0.0,0.0,-5.39,-5.4828,-5.5353,0.0,-5.5346,0.0,-5.5265,-5.6518,-5.7539,0.0,-5.7463,-5.7699,-5.9034,-5.8678,-5.8684,-5.9328,-5.8599,-5.7798,-5.6956,-5.6848,-5.6733,-5.66,-5.7424,-5.795,-5.8203,-5.7774,-5.741,-5.7025,0.0,-5.5984,-5.5593,-5.4507,-5.3563,-5.2732,-5.2116,-5.2291,-5.2741,-5.2271,-5.2625,-5.2984,-5.0818,-4.9652,-4.8969,-4.8041,-4.8029,-4.8286,-4.7788,-4.6918,-4.6094,-4.6047,-4.5364,-4.4577,-4.412,-4.4117,-4.4171,-4.3701,-4.3117,-4.2535,-4.2023,-4.1032,-3.9997,-3.9215,-3.8801,-3.8962,-4.0066,-3.9319,-3.8675,-3.894,-3.8332,-3.7691,-3.7178,-3.6473,-3.5997,-3.5997,-3.6041,-3.6082,-3.6063,-3.5875,-3.5789,-3.5896,-3.6441,-3.6549,-3.5933,-3.6203,-3.6274,-3.6092,-3.5539,-3.6076,-3.7792,-3.7719,-3.8357,-3.9654,-4.0166,-4.0967,-5.6124,-5.5955,-5.5229,-5.4967,-5.2918,-5.0075,-4.6888,-4.6491,-4.5533,-4.1215,0.0,-4.2119,-4.0835,0.0,-4.1799,-4.4096,0.0,-4.8035,-5.1267,-5.2967,-5.44,-5.5759,-5.5913,-5.6132,-5.6687,-5.772,-5.8637,-5.9321,-5.8772,-5.8849,-5.988,-5.8942,-5.9082,-6.0566,-5.8996,-5.7313,-5.56,-5.6355,-5.6707,-5.6573,-5.7424,-5.7834,-5.791,-5.7695,-5.7204,-5.6525,-5.6182,0.0,-5.489,-5.3702,-5.2732,-5.1997,-5.1836,-5.2183,-5.27,-5.2552,-5.2651,-5.2612,-5.1272,-4.9664,-4.8108,-4.7343,-4.7149,-4.7206,-4.7106,-4.6244,-4.5223,-4.5153,-4.4507,-4.3676,-4.2917,-4.3195,-4.3433,-4.2677,-4.2975,-4.3375,-4.3232,-4.1999,-4.0687,-3.9974,-3.9319,-3.9376,-4.0791,-3.9836,-3.9123,-3.9871,-3.9284,-3.8675,-3.8594,-3.7097,-3.6075,-3.6177,-3.6127,-3.618,-3.6455,-3.6104,-3.5986,-3.6182,-3.6585,-3.635,-3.5357,-3.6006,-3.631,-3.6166,-3.5838,-3.6301,-3.7595,-3.8274,-3.8924,-3.9528,-4.0586,-4.1622,-5.6915,-5.6649,-5.5728,-5.5123,-5.3013,-5.0249,-4.7145,-4.4643,0.0,0.0,0.0,-3.7507,-3.7335,-3.8324,0.0,-4.2286,0.0,0.0,0.0,0.0,-5.5595,0.0,0.0,0.0,0.0,0.0,0.0,0.0,0.0,-5.9733,-6.0583,-5.9112,-5.8671,-5.961,-5.8466,-5.711,-5.5434,-5.6223,-5.6573,-5.6473,-5.7369,-5.8379,-5.9452,-5.8167,-5.7517,-5.7311,-5.5715,0.0,-5.4689,-5.2971,-5.2165,-5.2004,-5.1836,-5.2183,-5.27,-5.2552,-5.2848,-5.2865,-5.0149,-4.9026,-4.8716,-4.7981,-4.6587,-4.5246,-4.5453,-4.4773,-4.3966,-4.4097,-4.3909,-4.3602,-4.3474,-4.3865,-4.4297,-4.4133,-4.4102,-4.3957,-4.331,-4.1999,-4.086,-4.0722,-4.0584,-4.0791,-4.1654,-4.1006,-4.0614,-4.1457,-4.0294,-3.9147,-3.8663,-3.7228,-3.6517,-3.7172,-3.6125,-3.5489,-3.5754,-3.5805,-3.5453,-3.4643,-3.5974,-3.6384,-3.5404,-3.6361,-3.6659,-3.6112,-3.5721,-3.6236,-3.7595,-3.7954,-3.899,-4.062,-4.1494,-4.2189,-5.6479,-5.6382,-5.5837,-5.5124,-5.2965,-4.9902,-4.5594,0.0,0.0,0.0,-3.6486,-3.6408,-3.6518,0.0,0.0,0.0,0.0,0.0,0.0,0.0,0.0,0.0,0.0,0.0,0.0,0.0,0.0,0.0,0.0,-6.0585,-6.0231,-5.9355,-5.9266,-5.998,-5.9123,-5.7828,-5.6159,-5.6868,-5.6967,-5.6492,-5.7314,-5.8037,-5.8667,-5.7489,-5.6926,-5.6807,-5.5411,0.0,-5.3949,-5.2572,-5.1696,-5.1297,-5.1668,-5.1847,-5.1992,-5.2349,-5.2126,-5.1425,-4.9942,-4.8694,-4.761,-4.685,-4.5728,-4.461,-4.4178,-4.3492,-4.2821,-4.2568,-4.2346,-4.2319,-4.2749,-4.337,-4.3929,-4.4309,-4.4647,-4.4561,-4.3448,-4.262,-4.1861,-4.1067,-4.0894,-4.0998,-4.1378,-4.1064,-4.0961,-4.1354,-4.0375,-3.9491,-3.9215,-3.7491,-3.6456,-3.6835,-3.6215,-3.5849,-3.6052,-3.5887,-3.5784,-3.5705,-3.636,-3.6566,-3.6084,-3.6461,-3.6625,-3.6487,-3.6007,-3.6613,-3.8366,-3.8869,-3.9896,-4.1445,-4.2826,-4.3617,-5.5902,-5.6122,-5.5919,-5.4834,-5.2486,-4.9041,-4.3838,-4.1851,0.0,0.0,-3.5639,-3.633,-3.6808,0.0,0.0,0.0,0.0,0.0,0.0,0.0,0.0,0.0,0.0,0.0,0.0,0.0,0.0,0.0,0.0,0.0,-6.0141,-6.0095,-6.0286,-6.0648,-5.9826,-5.8591,-5.6865,-5.729,-5.7209,-5.66,-5.7287,-5.7667,-5.781,-5.7025,-5.6613,-5.6431,-5.5155,0.0,0.0,-5.2212,-5.124,-5.0445,-5.1368,-5.1476,-5.1142,-5.1736,-5.1025,-4.97,-4.939,-4.801,-4.6224,-4.5577,-4.4897,-4.4173,-4.3187,-4.2452,-4.1821,-4.1314,-4.1163,-4.1298,-4.1992,-4.2797,-4.3621,-4.438,-4.4975,-4.5018,-4.3724,-4.331,-4.2792,-4.1412,-4.0998,-4.0963,-4.1101,-4.0836,-4.0675,-4.0894,-4.0192,-3.9606,-3.9491,-3.7905,-3.6732,-3.6559,-3.6249,-3.6187,-3.6485,-3.6173,-3.6248,-3.6825,-3.6845,-3.6823,-3.6729,-3.6861,-3.7041,-3.7267,-3.6968,-3.7676,-3.9405,-4.0069,-4.0959,-4.2159,-4.3905,-4.4847,-5.5883,-5.6536,-5.6217,-5.4022,-5.113,-4.7573,-4.2878,0.0,0.0,-3.569,-3.5399,-3.6023,-3.7509,-3.7413,-3.8343,0.0,0.0,0.0,0.0,0.0,0.0,0.0,0.0,0.0,0.0,0.0,0.0,0.0,0.0,0.0,-6.1623,-6.1706,-6.1471,-6.0819,-5.9853,-5.8608,-5.6995,-5.6805,-5.6671,-5.66,-5.7287,-5.7953,-5.8567,-5.781,-5.7489,-5.7346,-5.4936,0.0,0.0,-5.1564,-5.0549,-4.9719,-5.1011,-5.1043,-5.031,-5.027,-4.9666,-4.8706,-4.7389,-4.632,-4.5474,-4.5264,-4.4346,-4.3187,-4.25,-4.1691,-4.1045,-4.107,-4.1507,-4.193,-4.1999,-4.3103,-4.438,-4.5121,-4.5363,-4.5156,-4.438,-4.3655,-4.293,-4.2068,-4.1378,-4.1101,-4.1792,-4.0638,-3.9903,-4.0767,-4.0122,-3.9318,-3.8767,-3.8525,-3.8112,-3.7478,-3.6167,-3.5655,-3.643,-3.6574,-3.6442,-3.603,-3.6821,-3.7184,-3.6797,-3.806,-3.8726,-3.8724,-3.9254,-3.9842,-4.0468,-4.0947,-4.1787,-4.2941,-4.4125,-4.4918,-5.3114,-5.4579,-5.504,-5.3747,-5.1043,-4.7521,-4.2865,0.0,0.0,-3.568,-3.5312,-3.5812,-3.6965,-3.8143,-3.9965,0.0,0.0,0.0,0.0,0.0,0.0,0.0,0.0,0.0,0.0,0.0,0.0,0.0,0.0,0.0,-6.3465,-6.2105,-6.1326,-6.1507,-6.0214,-5.921,-5.8559,-5.788,-5.7531,-5.7451,-5.8112,-5.8537,-5.8674,-5.7917,-5.7283,-5.6601,-5.4117,0.0,0.0,-5.0823,-5.0303,-5.0379,-5.0802,-5.0669,-5.025,-4.9658,-4.8923,-4.7982,-4.6975,-4.5856,-4.4846,-4.4708,-4.4035,-4.3178,-4.2743,-4.2073,-4.1488,-4.1609,-4.2112,-4.2727,-4.3251,-4.4147,-4.5182,-4.5914,-4.5742,-4.5328,-4.4905,-4.4251,-4.3356,-4.2127,-4.1646,-4.1371,-4.1233,-4.0707,-4.0455,-4.0741,-4.0122,-3.9525,-3.9284,-3.887,-3.8491,-3.818,-3.6766,-3.6015,-3.6485,-3.6623,-3.6626,-3.6435,-3.7007,-3.7463,-3.7772,-3.8341,-3.9106,-4.0103,-3.9822,-4.0547,-4.2397,-4.2119,-4.2854,-4.4637,-4.5589,-4.6027,-5.0534,-5.2485,-5.3578,-5.2642,-4.9725,-4.6033,0.0,0.0,-3.714,-3.5588,-3.5523,-3.6022,-3.6891,-3.8887,-4.1192,0.0,0.0,0.0,0.0,0.0,0.0,0.0,0.0,0.0,0.0,0.0,0.0,0.0,0.0,0.0,-6.5113,-6.2876,-6.1615,-6.1643,-6.033,-5.9532,-5.9253,-5.8352,-5.7824,-5.7639,-5.8303,-5.8558,-5.8345,-5.7596,-5.6863,-5.6111,-5.3433,0.0,0.0,-5.0074,-4.9732,-5.0152,-5.0255,-5.016,-4.9931,-4.9326,-4.8356,-4.732,-4.6803,-4.5537,-4.4187,-4.4267,-4.3721,-4.3034,-4.3044,-4.2831,-4.2615,-4.2664,-4.3338,-4.4216,-4.4837,-4.5527,-4.6155,-4.6527,-4.6094,-4.5558,-4.5272,-4.4567,-4.3675,-4.2396,-4.2121,-4.1906,-4.1209,-4.0961,-4.0778,-4.0442,-3.9996,-3.9698,-3.9698,-3.925,-3.9031,-3.9272,-3.7948,-3.7093,-3.7178,-3.7116,-3.7114,-3.714,-3.7822,-3.8282,-3.8412,-3.9237,-4.0156,-4.1165,-4.0983,-4.181,-4.3743,-4.3319,-4.3953,-4.5567,-4.6484,-4.6911,-4.8722,-5.0737,-5.1909,-5.0262,-4.6422,-4.2468,0.0,0.0,-3.5192,-3.5351,-3.6109,-3.6928,-3.7745,-3.9323,-4.1287,-4.363,0.0,0.0,0.0,0.0,0.0,0.0,0.0,0.0,0.0,0.0,0.0,0.0,0.0,0.0,-6.6326,-6.4556,-6.2702,-6.0883,-6.0145,-5.9346,-5.842,-5.7623,-5.7098,-5.6812,-5.7505,-5.7763,-5.7588,-5.6775,-5.6418,0.0,0.0,0.0,0.0,-4.9245,-4.8675,-4.8417,-4.9221,-4.9373,-4.9125,-4.9091,-4.8045,-4.6631,-4.6596,-4.5157,-4.34,-4.4095,-4.345,-4.2543,-4.3211,-4.389,-4.4454,-4.4302,-4.5389,-4.6562,-4.6596,-4.7121,-4.7465,-4.6769,-4.6453,-4.6096,-4.5375,-4.4548,-4.3715,-4.3023,-4.2877,-4.2721,-4.2088,-4.1378,-4.0653,-3.9836,-3.9698,-3.9698,-3.9698,-3.9698,-3.9974,-4.0791,-3.9605,-3.8772,-3.8772,-3.8293,-3.7985,-3.7985,-3.9561,-3.9869,-3.8483,-4.1186,-4.2466,-4.1895,-4.3328,-4.4094,-4.4094,-4.4563,-4.491,-4.5236,-4.6387,-4.7288,-4.3447,-4.5302,-4.6447,-4.5417,-4.2996,-4.0394,-3.8528,0.0,-3.5483,-3.6028,-3.6454,-3.7312,-3.9231,-4.0523,-4.276,-4.7339,0.0,0.0,0.0,0.0,0.0,0.0,0.0,0.0,0.0,0.0,0.0,0.0,0.0,0.0,-6.5557,-6.4802,-6.3848,-6.2613,-6.1287,-6.0435,-6.005,-5.8709,-5.7655,-5.6969,-5.7709,-5.7972,-5.7727,-5.6904,-5.6206,0.0,0.0,0.0,0.0,-4.8579,-4.8191,-4.8513,-4.9213,-4.9447,-4.9366,-4.9256,-4.8487,-4.7415,-4.6896,-4.5658,-4.4347,-4.4983,-4.4694,-4.423,-4.4839,-4.4773,-4.4722,-4.571,-4.6342,-4.6861,-4.738,-4.6815,-4.6328,-4.7155,-4.6507,-4.5593,-4.5272,-4.4567,-4.376,-4.292,-4.2757,-4.2715,-4.2526,-4.195,-4.1439,-4.1174,-4.0789,-4.0515,-4.0515,-4.0963,-4.1354,-4.1619,-4.1335,-4.0943,-4.048,-3.9905,-3.9826,-4.0438,-4.0545,-4.063,-4.0715,-4.1703,-4.2665,-4.3523,-4.4018,-4.4784,-4.5939,-4.5579,-4.591,-4.6902,-4.6993,-4.7344,0.0,-4.1814,-4.2778,-4.2412,-4.0646,0.0,0.0,0.0,-3.5697,-3.6767,-3.733,-3.8265,-4.0428,-4.1772,-4.4002,-4.8432,0.0,0.0,0.0,0.0,0.0,0.0,0.0,0.0,0.0,0.0,0.0,0.0,0.0,0.0,-6.6266,-6.5693,-6.4994,-6.3975,-6.2374,-6.1287,-6.081,-5.9269,-5.7959,-5.7021,-5.7474,-5.7558,-5.7316,-5.6152,-5.5142,0.0,0.0,0.0,0.0,-4.8158,-4.7879,-4.8205,-4.9241,-4.9581,-4.9474,-4.9338,-4.8742,-4.7862,-4.708,-4.59,-4.4844,-4.5171,-4.5306,-4.5481,-4.6149,-4.6091,-4.6048,-4.7021,-4.7661,-4.8023,-4.7865,-4.7237,-4.6845,-4.7534,-4.666,-4.565,-4.5569,-4.4878,-4.4141,-4.3663,-4.356,-4.3518,-4.3262,-4.298,-4.2643,-4.2259,-4.197,-4.1781,-4.1829,-4.2244,-4.2545,-4.2569,-4.2447,-4.2299,-4.2149,-4.1321,-4.0929,-4.1257,-4.1731,-4.1951,-4.1866,-4.3063,-4.4063,-4.4749,-4.5146,-4.5653,-4.6351,-4.6025,-4.6514,-4.7699,-4.7341,-4.7397,0.0,0.0,0.0,0.0,0.0,0.0,0.0,0.0,0.0,-3.7461,-3.8419,-3.9537,-4.1341,-4.3036,-4.5084,-4.7776,0.0,0.0,0.0,0.0,0.0,0.0,0.0,0.0,0.0,0.0,0.0,0.0,0.0,0.0,-6.7899,-6.6959,-6.594,-6.4794,-6.3272,-6.1984,-6.0919,-5.9419,-5.8145,-5.7118,-5.6989,-5.676,-5.6483,-5.4785,-5.359,0.0,0.0,0.0,0.0,-4.7974,-4.7769,-4.7588,-4.9132,-4.9627,-4.9431,-4.9296,-4.8719,-4.7926,-4.7106,-4.6021,-4.4967,-4.4833,-4.5431,-4.6335,-4.7009,-4.7675,-4.8197,-4.817,-4.9097,-4.9721,-4.8204,-4.8183,-4.8396,-4.7775,-4.6818,-4.6041,-4.6041,-4.5307,-4.4692,-4.4968,-4.4995,-4.481,-4.4258,-4.4216,-4.3993,-4.3108,-4.3131,-4.3281,-4.337,-4.3464,-4.3513,-4.3586,-4.3103,-4.2999,-4.3663,-4.2484,-4.1516,-4.1152,-4.3098,-4.3687,-4.2314,-4.5042,-4.6247,-4.5538,-4.6443,-4.6488,-4.5605,-4.5974,-4.665,-4.7563,-4.7371,-4.7428,-3.5315,0.0,-3.6332,-3.5726,-3.5192,-3.4921,0.0,0.0,0.0,0.0,0.0,0.0,0.0,0.0,0.0,0.0,0.0,0.0,0.0,0.0,0.0,0.0,0.0,0.0,0.0,0.0,0.0,0.0,0.0,-6.814,-6.6885,-6.6612,-6.5736,-6.4087,-6.3617,-6.2847,-6.1725,-6.0148,-5.8927,-5.8079,-5.8053,-5.7325,-5.5944,-5.4881,-5.357,0.0,0.0,0.0,-4.7974,-4.7998,-4.7866,-4.7731,-4.8045,-4.8489,-4.894,-4.8645,-4.805,-4.7387,-4.7056,-4.6411,-4.576,-4.5835,-4.641,-4.7126,-4.7277,-4.8294,-4.9266,-4.9087,-4.8804,-4.8611,-4.8751,-4.7506,-4.6293,-4.6769,-4.6197,-4.5558,-4.5558,-4.5287,-4.5076,-4.5022,-4.4913,-4.479,-4.4647,-4.427,-4.3931,-4.3838,-4.3552,-4.3346,-4.3405,-4.3989,-4.4411,-4.4436,-4.4296,-4.4115,-4.3863,-4.3056,-4.3007,-4.4165,-4.4291,-4.4417,-4.4742,-4.5543,-4.5954,-4.5864,-4.6109,-4.6043,-4.5676,-4.582,-4.6002,-4.6269,-4.6966,-4.7298,-3.3774,-3.4621,-3.5418,-3.5359,-3.5487,-3.5763,-3.6376,0.0,0.0,0.0,0.0,0.0,0.0,0.0,0.0,0.0,0.0,0.0,0.0,0.0,0.0,0.0,0.0,0.0,0.0,0.0,0.0,0.0,0.0,-6.7513,-6.6103,-6.5621,-6.4736,-6.3298,-6.249,-6.1907,-6.1543,-5.9895,-5.8818,-5.8383,-5.797,-5.7061,-5.5757,-5.4514,-5.2999,0.0,0.0,0.0,-4.7488,-4.7915,-4.7749,-4.7333,-4.8041,-4.8286,-4.8232,-4.7969,-4.7646,-4.72,-4.6723,-4.6574,-4.6595,-4.6295,-4.7011,-4.7889,-4.7503,-4.8179,-4.8951,-4.8389,-4.817,-4.8082,-4.7996,-4.6926,-4.6086,-4.6859,-4.6089,-4.5314,-4.5657,-4.5343,-4.5049,-4.5069,-4.4995,-4.4913,-4.4995,-4.4761,-4.4593,-4.4619,-4.4458,-4.4344,-4.4385,-4.4858,-4.5097,-4.4823,-4.4838,-4.4631,-4.3968,-4.3535,-4.3569,-4.4246,-4.4678,-4.511,-4.5605,-4.6074,-4.6266,-4.6119,-4.6018,-4.5974,-4.5922,-4.5441,-4.5664,-4.6498,-4.6525,-4.6798,-3.3692,-3.5038,-3.6395,-3.6994,-3.718,-3.7521,-3.846,0.0,0.0,0.0,0.0,0.0,0.0,0.0,0.0,0.0,0.0,0.0,0.0,0.0,0.0,0.0,0.0,0.0,0.0,0.0,0.0,0.0,0.0,-6.6874,-6.537,-6.4423,-6.3379,-6.2299,-6.092,-6.0357,-6.0711,-5.9175,-5.8482,-5.8565,-5.7557,-5.6541,-5.5602,-5.4035,-5.2293,-5.051,0.0,0.0,-4.6918,-4.7854,-4.7654,-4.698,-4.8364,-4.8409,-4.7597,-4.7448,-4.7327,-4.7126,-4.644,-4.6735,-4.7292,-4.674,-4.7547,-4.8626,-4.7793,-4.7971,-4.8295,-4.7396,-4.7517,-4.7707,-4.6823,-4.6562,-4.6672,-4.7223,-4.6357,-4.5556,-4.6014,-4.5527,-4.505,-4.5157,-4.5042,-4.5022,-4.515,-4.5386,-4.5543,-4.5429,-4.5638,-4.59,-4.6005,-4.6135,-4.5974,-4.5366,-4.5253,-4.494,-4.4132,-4.4062,-4.3909,-4.3443,-4.4781,-4.563,-4.5782,-4.6595,-4.6789,-4.6342,-4.6133,-4.604,-4.614,-4.5164,-4.5521,-4.703,-4.6261,-4.6378,-3.6274,-3.7559,-3.8151,-3.7442,-3.6733,-3.676,-3.8882,0.0,0.0,0.0,0.0,0.0,0.0,0.0,0.0,0.0,0.0,0.0,0.0,0.0,0.0,0.0,0.0,0.0,0.0,0.0,0.0,0.0,0.0,-6.4795,-6.4324,-6.3466,-6.2303,-6.0799,-6.0384,-5.9908,-5.931,-5.8808,-5.8849,-5.9398,-5.7887,-5.6439,-5.5003,-5.3966,-5.2197,-5.0046,0.0,-4.9241,-4.7205,-4.7979,-4.8161,-4.7986,-4.8117,-4.7997,-4.7745,-4.7498,-4.6976,-4.646,-4.6986,-4.7292,-4.7467,-4.7969,-4.8766,-4.9363,-4.8461,-4.8617,-4.8936,-4.8001,-4.7384,-4.6941,-4.6658,-4.6596,-4.6631,-4.6707,-4.7024,-4.7107,-4.6412,-4.6069,-4.5712,-4.5152,-4.4913,-4.4886,-4.5022,-4.578,-4.6416,-4.6389,-4.7229,-4.7858,-4.7884,-4.8015,-4.7838,-4.7091,-4.6425,-4.5723,-4.4975,-4.4904,-4.4893,-4.4812,-4.5164,-4.5752,-4.6564,-4.6972,-4.7098,-4.6887,-4.642,-4.6054,-4.5766,-4.5779,-4.5784,-4.5785,-4.6478,-4.689,-3.4217,-3.5448,-3.6697,-3.8023,-3.9431,-4.0631,0.0,0.0,0.0,0.0,0.0,0.0,0.0,0.0,0.0,0.0,0.0,0.0,0.0,0.0,0.0,0.0,0.0,0.0,0.0,0.0,0.0,0.0,0.0,0.0,-6.283,-6.1961,-6.097,-5.9771,-5.9247,-5.8968,-5.8896,-5.8361,-5.8394,-5.903,-5.7793,-5.6609,-5.545,-5.3736,-5.2074,-5.0511,0.0,-4.8349,-4.7267,-4.7559,-4.7908,-4.8233,-4.8152,-4.8211,-4.83,-4.7638,-4.7151,-4.6906,-4.7257,-4.7643,-4.8064,-4.839,-4.8766,-4.8907,-4.8057,-4.7596,-4.7413,-4.7429,-4.7384,-4.7373,-4.7244,-4.7217,-4.7293,-4.7589,-4.7629,-4.7492,-4.7058,-4.6563,-4.6014,-4.5348,-4.513,-4.5076,-4.5211,-4.6044,-4.6696,-4.6696,-4.756,-4.8207,-4.8207,-4.8312,-4.8085,-4.7264,-4.7331,-4.6926,-4.5695,-4.6049,-4.6242,-4.5929,-4.5976,-4.6283,-4.687,-4.7088,-4.7021,-4.6591,-4.6342,-4.614,-4.5966,-4.5908,-4.6034,-4.6303,-4.6774,-4.7043,-3.2696,-3.4072,-3.6098,-3.8883,0.0,0.0,0.0,0.0,0.0,0.0,0.0,0.0,0.0,0.0,0.0,0.0,0.0,0.0,0.0,0.0,0.0,0.0,0.0,0.0,0.0,0.0,0.0,0.0,0.0,0.0,-6.1374,-6.0566,-5.9758,-5.8927,-5.8304,-5.804,-5.8288,-5.7619,-5.768,-5.8537,-5.7275,-5.6319,-5.5667,-5.3494,-5.1914,-5.0796,-4.893,-4.7941,-4.7673,-4.7599,-4.794,-4.8611,-4.8733,-4.8947,-4.9043,-4.8076,-4.7729,-4.7729,-4.794,-4.8361,-4.8863,-4.9012,-4.9082,-4.8942,-4.8144,-4.7464,-4.7013,-4.7439,-4.7966,-4.8315,-4.7831,-4.781,-4.8058,-4.8558,-4.8358,-4.802,-4.782,-4.7271,-4.6674,-4.6086,-4.5861,-4.5834,-4.5994,-4.6837,-4.7429,-4.7429,-4.8197,-4.8695,-4.8486,-4.8566,-4.8207,-4.7221,-4.7761,-4.7662,-4.617,-4.674,-4.6984,-4.6625,-4.6767,-4.6921,-4.6952,-4.7043,-4.6798,-4.6119,-4.6327,-4.6327,-4.6119,-4.6332,-4.6744,-4.7283,-4.7293,-4.7361,-3.491,-3.6931,-3.9014,-4.0149,-4.0021,0.0,-4.5019,-4.5565,0.0,-5.1318,0.0,0.0,0.0,0.0,0.0,0.0,0.0,0.0,0.0,0.0,0.0,0.0,0.0,0.0,0.0,0.0,0.0,0.0,0.0,0.0,-6.0529,-5.9722,-5.8914,-5.8107,-5.7917,-5.7468,-5.6749,-5.6441,-5.7011,-5.8409,-5.6138,-5.5051,-5.4943,-5.3241,-5.1656,-5.0257,-5.0025,-4.9474,-4.8764,-4.8634,-4.8924,-4.9471,-5.0223,-5.0327,-4.9918,-4.9013,-4.8715,-4.8796,-4.9501,-4.9757,-4.9898,-5.054,-5.0733,-5.053,-4.9616,-4.9773,-5.0103,-4.9373,-4.9556,-4.9658,-4.8107,-4.8189,-4.8741,-4.8775,-4.9327,-4.9574,-4.8707,-4.8472,-4.8254,-4.7665,-4.7555,-4.7575,-4.7846,-4.866,-4.9291,-4.9291,-5.0099,-5.0425,-4.9653,-4.9609,-4.9047,-4.7512,-4.7432,-4.7151,-4.6259,-4.6372,-4.6517,-4.659,-4.7298,-4.7441,-4.6836,-4.6801,-4.6514,-4.5842,-4.6743,-4.6779,-4.5842,-4.751,-4.8227,-4.8127,-4.8184,-4.8263,-3.2445,-3.5349,-3.851,-3.9445,-4.0906,0.0,0.0,-4.868,-5.1413,-5.3768,-5.5593,0.0,0.0,0.0,0.0,0.0,0.0,0.0,0.0,0.0,0.0,0.0,0.0,0.0,0.0,0.0,0.0,0.0,0.0,0.0,-5.8988,-5.869,-5.8396,-5.7997,-5.7474,-5.7001,-5.6603,-5.6403,-5.6333,-5.6273,-5.5329,-5.4907,-5.487,-5.3241,-5.2186,-5.1645,-5.0657,-5.0054,-4.9764,-4.9655,-4.9888,-5.0426,-5.0972,-5.1094,-5.0835,-4.9851,-4.9861,-5.0301,-4.9985,-5.0206,-5.07,-5.0964,-5.0637,-5.0101,-4.9732,-4.9783,-4.992,-5.0076,-5.0593,-5.08,-4.9589,-4.9463,-4.9642,-4.9591,-4.9827,-4.9913,-4.9095,-4.8894,-4.8709,-4.805,-4.7939,-4.7993,-4.81,-4.8861,-4.9493,-4.9493,-5.0301,-5.0768,-5.0514,-5.0479,-5.0004,-4.8837,-4.7856,-4.7366,-4.7618,-4.6889,-4.6471,-4.659,-4.6944,-4.7097,-4.6929,-4.6893,-4.6855,-4.6682,-4.6556,-4.6815,-4.7474,-4.8084,-4.8575,-4.903,-4.9649,-4.9395,-3.1606,-3.4675,-3.8166,-3.91,0.0,0.0,-4.7057,-5.0279,-5.3363,-5.5499,-5.7481,0.0,0.0,0.0,0.0,0.0,0.0,0.0,0.0,0.0,0.0,0.0,0.0,0.0,0.0,0.0,0.0,0.0,0.0,0.0,0.0,-5.761,-5.7353,-5.7226,-5.6667,-5.6195,-5.5871,-5.572,-5.5202,-5.4309,-5.4228,-5.4278,-5.4472,-5.3132,-5.2427,-5.2221,-5.1078,-5.0664,-5.0671,-5.0264,-5.0426,-5.094,-5.1337,-5.1683,-5.1799,-5.1051,-5.1334,-5.1988,-5.1343,-5.1352,-5.1573,-5.1467,-5.0858,-5.018,-5.0373,-5.0363,-5.0457,-5.1192,-5.171,-5.1841,-5.0926,-5.0667,-5.0581,-5.0385,-5.0264,-5.0061,-4.9576,-4.9472,-4.9354,-4.8963,-4.8878,-4.8912,-4.8966,-4.9528,-4.9932,-4.9843,-5.0414,-5.0714,-5.0503,-5.0468,-5.0126,-4.9266,-4.8251,-4.7777,-4.8186,-4.7361,-4.6801,-4.6696,-4.6778,-4.6893,-4.6998,-4.6975,-4.6855,-4.6776,-4.652,-4.6958,-4.8079,-4.8559,-4.9182,-4.9936,-5.0376,-4.9991,-3.3368,-3.5688,-3.8478,0.0,0.0,0.0,-4.8983,-4.9716,-5.1251,-5.6473,0.0,0.0,0.0,0.0,0.0,0.0,0.0,0.0,0.0,0.0,0.0,0.0,0.0,0.0,0.0,0.0,0.0,0.0,0.0,0.0,0.0,-5.6455,-5.5596,-5.5596,-5.5463,-5.4993,-5.4224,-5.4091,-5.3585,-5.2806,-5.2694,-5.2958,-5.3675,-5.2842,-5.2182,-5.158,-5.1397,-5.1441,-5.1508,-5.0526,-5.0426,-5.094,-5.1372,-5.2003,-5.2678,-5.2714,-5.3176,-5.3816,-5.378,-5.3318,-5.2626,-5.2324,-5.1722,-5.1237,-5.1813,-5.2032,-5.2207,-5.298,-5.3077,-5.2752,-5.2018,-5.173,-5.1529,-5.1173,-5.0645,-5.02,-5.02,-5.02,-5.0285,-5.053,-5.0612,-5.0675,-5.0873,-5.09,-5.0846,-5.0647,-5.0612,-5.034,-4.9606,-4.9536,-4.9275,-4.86,-4.8495,-4.8291,-4.7668,-4.772,-4.7523,-4.6849,-4.6929,-4.6998,-4.6998,-4.6847,-4.6491,-4.582,-4.6793,-4.729,-4.7237,-4.9041,-5.0276,-5.0879,-5.0204,-4.9911,-3.3188,-3.7142,0.0,0.0,0.0,0.0,0.0,-5.253,0.0,0.0,0.0,0.0,0.0,0.0,0.0,0.0,0.0,0.0,0.0,0.0,0.0,0.0,0.0,0.0,0.0,0.0,0.0,0.0,0.0,0.0,0.0,-5.5116,-5.5153,-5.572,-5.506,-5.4576,-5.4334,-5.4224,-5.3719,-5.2937,-5.2806,-5.2803,-5.2908,-5.269,-5.2504,-5.2441,-5.2499,-5.2214,-5.1688,-5.1107,-5.1279,-5.1946,-5.2444,-5.2784,-5.3008,-5.3362,-5.4038,-5.4697,-5.402,-5.3638,-5.3389,-5.275,-5.2352,-5.2068,-5.2118,-5.2936,-5.3859,-5.3956,-5.4355,-5.4647,-5.4285,-5.3859,-5.3026,-5.1071,-5.0543,-5.0474,-5.0474,-5.0474,-5.0592,-5.09,-5.0954,-5.1008,-5.1167,-5.1193,-5.1317,-5.1649,-5.127,-5.0884,-5.0637,-5.0637,-5.0559,-5.0339,-4.9915,-4.9296,-4.8479,-4.8112,-4.7619,-4.6849,-4.6929,-4.6998,-4.6998,-4.6975,-4.689,-4.6811,-4.7631,-4.8425,-4.91,-5.0122,-5.1022,-5.1861,-5.1115,-5.043,-3.3723,-3.7392,0.0,0.0,0.0,0.0,0.0,0.0,0.0,0.0,0.0,0.0,0.0,0.0,0.0,0.0,0.0,0.0,0.0,0.0,0.0,0.0,0.0,0.0,0.0,0.0,0.0,0.0,0.0,0.0,0.0,-5.4197,-5.427,-5.477,-5.4243,-5.3922,-5.3922,-5.4166,-5.4034,-5.3558,-5.3741,-5.3799,-5.3695,-5.3322,-5.3212,-5.3243,-5.2733,-5.2002,-5.1164,-5.1171,-5.1605,-5.2377,-5.2952,-5.3534,-5.4031,-5.4392,-5.5018,-5.5598,-5.5107,-5.4447,-5.3824,-5.3309,-5.2874,-5.2653,-5.3093,-5.3914,-5.4769,-5.5197,-5.5455,-5.5461,-5.5057,-5.4636,-5.3876,-5.2189,-5.166,-5.1494,-5.1494,-5.1284,-5.1262,-5.1798,-5.1704,-5.1679,-5.2068,-5.2192,-5.2307,-5.2549,-5.215,-5.1813,-5.1813,-5.1641,-5.1546,-5.1546,-5.0972,-5.013,-4.8983,-4.86,-4.801,-4.6977,-4.726,-4.7484,-4.7484,-4.7484,-4.7507,-4.7576,-4.8478,-4.9382,-5.0276,-5.0757,-5.1308,-5.1894,-5.1017,-5.0042,-3.465,0.0,0.0,0.0,0.0,0.0,0.0,0.0,0.0,0.0,0.0,0.0,0.0,0.0,0.0,0.0,0.0,0.0,0.0,0.0,0.0,0.0,0.0,0.0,0.0,0.0,0.0,0.0,0.0,0.0,0.0,-5.3655,-5.3267,-5.3408,-5.334,-5.3314,-5.3445,-5.4142,-5.4509,-5.4509,-5.5133,-5.5418,-5.5359,-5.4442,-5.3995,-5.3849,-5.2425,-5.128,-5.0482,-5.1004,-5.1723,-5.2509,-5.3158,-5.422,-5.5444,-5.5646,-5.5981,-5.641,-5.6546,-5.5517,-5.4108,-5.4002,-5.3513,-5.3202,-5.4559,-5.493,-5.5193,-5.6535,-5.6335,-5.5565,-5.4889,-5.4563,-5.439,-5.4126,-5.3498,-5.2956,-5.2956,-5.2424,-5.2201,-5.3078,-5.276,-5.256,-5.3294,-5.3517,-5.3517,-5.3268,-5.314,-5.3026,-5.2956,-5.2579,-5.2314,-5.2243,-5.1741,-5.0844,-4.9348,-4.923,-4.8663,-4.7306,-4.7913,-4.8329,-4.8329,-4.8306,-4.8306,-4.8306,-4.929,-5.0124,-5.0831,-5.0996,-5.1135,-5.1176,-5.0159,-4.901,0.0,-3.7713,0.0,0.0,0.0,0.0,0.0,0.0,0.0,0.0,0.0,0.0,0.0,0.0,0.0,0.0,0.0,0.0,0.0,0.0,0.0,0.0,0.0,0.0,0.0,0.0,0.0,0.0,0.0,0.0,-5.3649,-5.3304,-5.3524,-5.4239,-5.417,-5.4436,-5.506,-5.5244,-5.5317,0.0,-5.5478,-5.5485,-5.5359,-5.4531,-5.3859,-5.3323,-5.2375,-5.2066,-5.2215,-5.1719,-5.2277,-5.3459,-5.3974,-5.4737,-5.561,-5.6178,-5.6403,-5.641,-5.6546,-5.5928,-5.5079,-5.5088,-5.4945,-5.499,-5.5793,-5.5968,-5.6042,-5.6821,-5.648,-5.5808,-5.5667,-5.5568,-5.5539,-5.5482,-5.4288,-5.3155,-5.3268,-5.3155,-5.314,-5.3455,-5.3376,-5.3333,-5.3509,-5.3654,-5.3681,-5.3545,-5.3908,-5.4,-5.3373,-5.3294,-5.305,-5.2413,-5.2474,-5.1856,-5.019,-5.0147,-4.9877,-4.8994,-4.9125,-4.9279,-4.9372,-4.9162,-4.9091,-4.9245,-5.0068,-5.0365,-5.0118,-5.079,-5.0846,-5.0307,-4.8873,-4.8046,0.0,0.0,0.0,0.0,0.0,0.0,0.0,0.0,0.0,0.0,0.0,0.0,0.0,0.0,0.0,0.0,0.0,0.0,0.0,0.0,0.0,0.0,0.0,0.0,0.0,0.0,0.0,0.0,0.0,-5.5049,-5.3392,-5.323,-5.3414,-5.3907,-5.4243,-5.4583,-5.5023,-5.5794,-5.6161,-5.6161,-5.6565,-5.6102,-5.4899,-5.443,-5.3829,-5.313,-5.2281,-5.205,-5.2324,-5.2142,-5.2954,-5.4399,-5.4941,-5.5635,-5.6305,-5.6737,-5.6786,-5.66,-5.668,-5.6168,-5.5496,-5.5444,-5.5418,-5.5534,-5.6268,-5.6383,-5.6423,-5.7029,-5.6901,-5.6581,-5.6581,-5.6808,-5.7063,-5.712,-5.5773,-5.4536,-5.4585,-5.433,-5.4295,-5.5122,-5.5036,-5.5092,-5.5801,-5.5679,-5.5324,-5.4768,-5.4945,-5.4937,-5.4464,-5.4275,-5.4024,-5.3572,-5.3487,-5.2931,-5.1668,-5.1612,-5.134,-5.0592,-5.0629,-5.0653,-5.0653,-5.0653,-5.0474,-5.008,-5.094,-5.1035,-5.0397,-5.0839,-5.0353,-4.8931,-4.8432,-4.7446,0.0,0.0,0.0,0.0,0.0,0.0,0.0,0.0,0.0,0.0,0.0,0.0,0.0,0.0,0.0,0.0,0.0,0.0,0.0,0.0,0.0,0.0,0.0,0.0,0.0,0.0,0.0,0.0,0.0,-5.488,-5.335,-5.323,-5.3319,-5.3661,-5.4274,-5.4686,-5.4957,-5.63,-5.6887,-5.6777,-5.7019,-5.6124,-5.4179,-5.3756,-5.3353,-5.2947,-5.2438,-5.2191,-5.2221,-5.2767,-5.3875,-5.5232,-5.5764,-5.64,-5.701,-5.7112,-5.701,-5.6776,-5.6839,-5.6397,-5.5805,-5.5675,-5.5623,-5.5766,-5.6564,-5.6599,-5.6534,-5.7171,-5.7356,-5.7356,-5.7384,-5.7874,-5.842,-5.853,-5.7448,-5.6383,-5.6354,-5.5887,-5.5816,-5.7091,-5.6929,-5.6915,-5.8081,-5.7726,-5.6986,-5.6099,-5.585,-5.5706,-5.5596,-5.5263,-5.4937,-5.4654,-5.4376,-5.3849,-5.2983,-5.3018,-5.284,-5.2187,-5.2144,-5.2122,-5.2012,-5.2101,-5.1754,-5.0952,-5.1527,-5.1491,-5.0723,-5.0816,-4.9825,-4.7895,-4.8316,-4.7244,0.0,0.0,0.0,0.0,0.0,0.0,0.0,0.0,0.0,0.0,0.0,0.0,0.0,0.0,0.0,0.0,0.0,0.0,0.0,0.0,0.0,0.0,0.0,0.0,0.0,0.0,0.0,0.0,-5.4622,-5.4164,-5.3282,-5.3188,-5.3806,-5.5074,-5.5221,-5.5885,-5.7156,-5.7494,-5.7321,-5.6626,-5.4737,-5.3644,-5.3314,-5.1778,-5.147,-5.2234,-5.339,-5.3829,-5.3754,-5.4418,-5.5136,-5.5873,-5.5833,-5.6324,-5.6984,-5.701,-5.6907,-5.6839,-5.6907,-5.6887,-5.6789,-5.6659,-5.6606,-5.6724,-5.7442,-5.7055,-5.6561,-5.7346,-5.7532,-5.7588,-5.7699,-5.8188,-5.8709,-5.888,-5.8616,-5.8303,-5.8152,-5.8081,-5.8081,-5.8294,-5.8172,-5.79,-5.7548,-5.737,-5.705,-5.6276,-5.6141,-5.6049,-5.5879,-5.595,-5.5494,-5.4082,-5.4599,-5.4456,-5.3018,-5.3492,-5.384,-5.3862,-5.3405,-5.3169,-5.3243,-5.2642,-5.2162,-5.1898,-5.1251,-5.0617,-5.001,-4.9942,-4.9505,-4.8728,-4.8113,-4.771,-3.333,0.0,0.0,0.0,0.0,0.0,0.0,0.0,0.0,0.0,0.0,0.0,0.0,0.0,0.0,0.0,0.0,0.0,0.0,0.0,0.0,0.0,0.0,0.0,0.0,0.0,0.0,0.0,-5.4291,-5.4112,-5.314,-5.3082,-5.3368,-5.3953,-5.4391,-5.4953,-5.5577,-5.6154,-5.6319,-5.6021,-5.4019,-5.2846,-5.237,-5.1093,-5.102,-5.1946,-5.2908,-5.3585,-5.4073,-5.5147,-5.5801,-5.6164,-5.6475,-5.6736,-5.6984,-5.7061,-5.701,-5.6907,-5.6959,-5.7036,-5.7087,-5.6933,-5.6907,-5.6953,-5.7261,-5.6967,-5.6698,-5.7485,-5.7938,-5.8267,-5.8407,-5.8979,-5.9416,-5.9191,-5.9,-5.8859,-5.8766,-5.8709,-5.8588,-5.8588,-5.8559,-5.8345,-5.7667,-5.7532,-5.7227,-5.6443,-5.6253,-5.6141,-5.5936,-5.5993,-5.5801,-5.521,-5.5506,-5.5516,-5.492,-5.4741,-5.4911,-5.5392,-5.4414,-5.3989,-5.443,-5.3432,-5.2834,-5.2749,-5.2018,-5.1214,-5.0446,-5.0538,-5.0059,-4.9038,-4.9025,-4.8696,0.0,0.0,0.0,0.0,0.0,0.0,0.0,0.0,0.0,0.0,0.0,0.0,0.0,0.0,0.0,0.0,0.0,0.0,0.0,0.0,0.0,0.0,0.0,0.0,0.0,0.0,0.0,0.0,-5.335,-5.3393,-5.3039,-5.2776,-5.2835,-5.3344,-5.3927,-5.4341,-5.449,-5.4788,-5.4948,-5.4928,-5.3207,-5.1956,-5.1151,-5.0425,-5.0675,-5.174,-5.233,-5.3363,-5.461,-5.562,-5.6187,-5.6515,-5.7021,-5.7112,-5.701,-5.7112,-5.7087,-5.6984,-5.6984,-5.7087,-5.7163,-5.7036,-5.7129,-5.7273,-5.7005,-5.7064,-5.728,-5.7674,-5.8387,-5.9052,-5.9286,-5.9716,-6.0067,-5.9849,-5.9514,-5.9222,-5.8979,-5.8795,-5.8709,-5.8709,-5.8709,-5.8517,-5.787,-5.768,-5.7311,-5.6525,-5.63,-5.6225,-5.6049,-5.6049,-5.6007,-5.5968,-5.6111,-5.6201,-5.6097,-5.574,-5.5776,-5.6347,-5.5222,-5.4773,-5.5276,-5.404,-5.3338,-5.3288,-5.2438,-5.1669,-5.1009,-5.1171,-5.0583,-4.9371,-4.9865,-4.948,0.0,0.0,0.0,0.0,0.0,0.0,0.0,0.0,0.0,0.0,0.0,0.0,0.0,0.0,0.0,0.0,0.0,0.0,0.0,0.0,0.0,0.0,0.0,0.0,0.0,0.0,0.0,0.0,-5.1332,-5.1465,-5.2907,-5.2141,-5.2652,-5.4807,-5.4916,-5.5196,-5.5808,-5.4388,-5.3522,-5.3112,-5.148,-5.0309,-4.9521,-4.9346,-5.0044,-5.1464,-5.2263,-5.3935,-5.6092,-5.6006,-5.6428,-5.7152,-5.7188,-5.7112,-5.6984,-5.6984,-5.6984,-5.6984,-5.6984,-5.7087,-5.7163,-5.7036,-5.7526,-5.7969,-5.7081,-5.7774,-5.8741,-5.8024,-5.878,-5.9902,-6.0252,-6.0224,-6.0354,-6.1243,-6.0762,-5.9803,-5.8909,-5.8709,-5.8709,-5.8709,-5.8709,-5.8488,-5.7731,-5.7624,-5.7311,-5.6525,-5.6383,-5.6383,-5.6355,-5.6355,-5.607,-5.5321,-5.5927,-5.6097,-5.5348,-5.5919,-5.6347,-5.6383,-5.5864,-5.5528,-5.5564,-5.424,-5.3435,-5.3313,-5.1897,-5.1184,-5.1285,-5.1171,-5.0724,-5.0039,-5.0075,-4.9749,0.0,0.0,0.0,0.0,0.0,0.0,0.0,0.0,0.0,0.0,0.0,0.0,0.0,0.0,0.0,0.0,0.0,0.0,0.0,0.0,0.0,0.0,0.0,0.0,0.0,0.0,0.0,0.0,0.0,-5.0952,-5.1996,-5.1734,-5.2118,-5.3347,-5.3419,-5.3528,-5.3759,-5.3225,-5.2694,-5.2212,-5.1003,-5.0034,-4.9273,-4.9086,-4.9807,-5.1253,-5.2141,-5.3891,-5.6103,-5.6597,-5.6935,-5.7188,-5.7188,-5.7438,-5.7804,-5.7882,-5.7804,-5.7673,-5.7856,-5.7882,-5.7856,-5.7908,-5.8089,-5.8378,-5.8543,-5.8546,-5.8628,-5.9302,-5.9737,-6.0053,-6.0203,-6.026,-6.0244,-6.012,-5.9721,-5.9266,-5.8774,-5.8345,-5.8131,-5.8602,-5.7889,-5.7188,-5.7092,-5.6948,-5.6786,-5.6662,-5.6519,-5.6383,-5.6383,-5.63,-5.6166,-5.599,-5.6158,-5.5988,-5.525,-5.4991,-5.5098,-5.5598,-5.5105,-5.4942,-5.5329,-5.4492,-5.3753,-5.3164,-5.2246,-5.1766,-5.1813,-5.1424,-5.1416,-5.171,-5.1179,-5.0911,0.0,0.0,0.0,0.0,0.0,0.0,0.0,0.0,0.0,0.0,0.0,0.0,0.0,0.0,0.0,0.0,0.0,0.0,0.0,0.0,0.0,0.0,0.0,0.0,0.0,0.0,0.0,0.0,0.0,0.0,-5.1027,-5.1056,-5.157,-5.2795,-5.2737,-5.2785,-5.2912,-5.2322,-5.1782,-5.1244,-5.035,-4.9653,-4.917,-4.9255,-5.0285,-5.2038,-5.2904,-5.4303,-5.6016,-5.6573,-5.6971,-5.7188,-5.7188,-5.7619,-5.8238,-5.8316,-5.8238,-5.8142,-5.8527,-5.8481,-5.8211,-5.8264,-5.8678,-5.9138,-5.9138,-5.9266,-5.9556,-6.0267,-6.0524,-6.059,-6.0626,-6.0654,-6.0567,-6.0092,-5.9844,-5.9745,-5.9967,-5.8752,-5.7823,-5.8238,-5.7303,-5.6492,-5.6653,-5.6519,-5.6465,-5.6653,-5.6519,-5.649,-5.6775,-5.6728,-5.67,-5.6775,-5.6728,-5.6273,-5.5285,-5.4955,-5.492,-5.5259,-5.5203,-5.5193,-5.5338,-5.4743,-5.404,-5.32,-5.2197,-5.1838,-5.2174,-5.1845,-5.1896,-5.219,-5.1391,-5.0845,0.0,0.0,0.0,0.0,0.0,0.0,0.0,0.0,0.0,0.0,0.0,0.0,0.0,0.0,0.0,0.0,0.0,0.0,0.0,0.0,0.0,0.0,0.0,0.0,0.0,0.0,0.0,0.0,-4.787,-4.8535,-5.0155,-5.0119,-5.1131,-5.3364,-5.3192,-5.3192,-5.3448,-5.1742,-5.0669,-5.017,-4.9465,-4.9101,-4.9122,-4.9901,-5.1484,-5.3711,-5.4544,-5.5268,-5.5891,-5.598,-5.65,-5.7188,-5.7188,-5.7619,-5.8248,-5.8248,-5.8248,-5.8366,-5.9015,-5.8826,-5.8257,-5.8124,-5.9222,-6.0341,-5.8789,-5.9944,-6.164,-6.0846,-6.1124,-6.1623,-6.1623,-6.1444,-6.1357,-6.1466,-6.1328,-6.1402,-6.2266,-6.0074,-5.7862,-5.7723,-5.7127,-5.6582,-5.6482,-5.6482,-5.6446,-5.6446,-5.6446,-5.6704,-5.7517,-5.7624,-5.7624,-5.7624,-5.7624,-5.6946,-5.5348,-5.5883,-5.6071,-5.5453,-5.623,-5.6381,-5.5626,-5.5058,-5.4265,-5.3324,-5.1778,-5.1418,-5.2305,-5.2374,-5.2114,-5.15,-5.0664,-4.9518,-3.69,0.0,0.0,0.0,0.0,0.0,0.0,0.0,0.0,0.0,0.0,0.0,0.0,0.0,0.0,0.0,0.0,0.0,0.0,0.0,0.0,0.0,0.0,0.0,0.0,0.0,0.0,0.0,-4.6565,-4.7342,-4.8357,-4.9496,-5.0624,-5.1715,-5.1681,-5.1922,-5.2498,-5.1513,-5.0751,-5.0112,-4.9916,-4.9582,-4.9138,-5.0431,-5.1624,-5.2773,-5.4243,-5.5268,-5.5927,-5.6595,-5.7007,-5.7188,-5.7188,-5.8032,-5.9237,-5.9237,-5.9519,-5.998,-6.0278,-6.0178,-5.9944,-5.9889,-6.0602,-6.1387,-6.0954,-6.1279,-6.1748,-6.1532,-6.1612,-6.1728,-6.1728,-6.1615,-6.153,-6.1672,-6.199,-6.2162,-6.1933,-6.1227,-6.0436,-5.9573,-5.8279,-5.7556,-5.8294,-5.7881,-5.7487,-5.7675,-5.7541,-5.7476,-5.7727,-5.8116,-5.8203,-5.766,-5.7672,-5.7083,-5.5508,-5.5079,-5.5007,-5.5382,-5.5225,-5.524,-5.5434,-5.5548,-5.4842,-5.3349,-5.2954,-5.263,-5.2305,-5.1161,-5.119,-5.2263,-5.1675,-5.0252,0.0,0.0,0.0,0.0,0.0,0.0,-3.3327,-3.3095,0.0,0.0,0.0,0.0,0.0,0.0,0.0,0.0,0.0,0.0,0.0,0.0,0.0,0.0,0.0,0.0,0.0,-4.2946,-4.3201,-4.42,-4.561,-4.6949,-4.8149,-4.9032,-4.9992,-5.0996,-5.0962,-5.1287,-5.2029,-5.1358,-5.0862,-5.0507,-5.0212,-5.0061,-5.0054,-5.1257,-5.2361,-5.3448,-5.4737,-5.5894,-5.6978,-5.7412,-5.7619,-5.7655,-5.8032,-5.8947,-6.0042,-6.0095,-6.0358,-6.0711,-6.11,-6.0964,-6.0593,-6.0538,-6.1332,-6.2253,-6.1893,-6.2057,-6.2402,-6.2402,-6.2346,-6.229,-6.2374,-6.2486,-6.2695,-6.3163,-6.3221,-6.3098,-6.2724,-6.214,-6.14,-6.0311,-5.9107,-5.8454,-5.9003,-5.8402,-5.7971,-5.8457,-5.8106,-5.8033,-5.8677,-5.9002,-5.9088,-5.8793,-5.8498,-5.7809,-5.6572,-5.5809,-5.5548,-5.6067,-5.5749,-5.5569,-5.56,-5.5804,-5.5327,-5.3965,-5.3989,-5.3496,-5.2364,-5.1424,-5.1416,-5.217,-5.1621,-5.0668,0.0,0.0,0.0,0.0,0.0,0.0,-3.5895,-3.4463,-3.3353,0.0,0.0,0.0,0.0,0.0,0.0,0.0,0.0,0.0,0.0,0.0,0.0,0.0,0.0,0.0,-4.031,-4.1645,-4.253,-4.2638,-4.4859,-4.6922,-4.8634,-4.8641,-4.9217,-5.0615,-5.0617,-5.0976,-5.1739,-5.1203,-5.0962,-5.1079,-5.0493,-5.0655,-5.1466,-5.2263,-5.3494,-5.5088,-5.5688,-5.6906,-5.842,-5.8471,-5.8454,-5.8418,-5.9273,-6.0006,-6.0621,-6.0756,-6.0883,-6.1037,-6.1623,-6.1343,-6.0738,-6.0708,-6.1744,-6.2867,-6.2173,-6.251,-6.3164,-6.3092,-6.3117,-6.3176,-6.3173,-6.3581,-6.4128,-6.4895,-6.4511,-6.3948,-6.3885,-6.2745,-6.1479,-6.0482,-5.9777,-5.9338,-5.9299,-5.8625,-5.8338,-5.9083,-5.8581,-5.8589,-5.9988,-6.0132,-6.0168,-6.038,-5.965,-5.8904,-5.8206,-5.7414,-5.7035,-5.7273,-5.7118,-5.6757,-5.6205,-5.6258,-5.5897,-5.5088,-5.4858,-5.4134,-5.2816,-5.2707,-5.2277,-5.1478,-5.1213,-5.0986,0.0,0.0,0.0,0.0,0.0,0.0,-3.5833,-3.4604,-3.3546,0.0,0.0,0.0,0.0,0.0,0.0,0.0,0.0,0.0,0.0,0.0,0.0,0.0,0.0,0.0,-4.0074,-4.0486,-4.0917,-4.1622,-4.3989,-4.6086,-4.7695,-4.7832,-4.8244,-4.9109,-4.9644,-5.0246,-5.0916,-5.0916,-5.0903,-5.0962,-5.1049,-5.1466,-5.2299,-5.3096,-5.4327,-5.5812,-5.6584,-5.7489,-5.8492,-5.977,-5.9888,-5.9345,-5.9516,-6.0059,-6.0756,-6.0783,-6.1181,-6.1761,-6.1914,-6.1842,-6.1814,-6.2326,-6.273,-6.2975,-6.2795,-6.2895,-6.2924,-6.2385,-6.3136,-6.3969,-6.3345,-6.3752,-6.4165,-6.3724,-6.3977,-6.3948,-6.2674,-6.2674,-6.2618,-6.1656,-6.078,-6.0428,-6.116,-6.0583,-6.0142,-6.0395,-6.0232,-6.0151,-6.0475,-6.0976,-6.1034,-6.0444,-6.0312,-5.997,-5.9168,-5.8402,-5.8221,-5.8897,-5.781,-5.7416,-5.7887,-5.805,-5.7485,-5.615,-5.5447,-5.4974,-5.4669,-5.4027,-5.2696,-5.0837,-5.2134,-5.205,0.0,0.0,0.0,-4.0353,0.0,0.0,0.0,-3.5217,-3.4023,0.0,0.0,0.0,0.0,0.0,0.0,0.0,0.0,0.0,0.0,0.0,0.0,0.0,0.0,0.0,-3.8923,-3.9317,-4.0376,-4.2544,-4.4201,-4.5828,-4.7521,-4.7657,-4.7998,-4.8684,-4.9014,-4.967,-5.0701,-5.0844,-5.1095,-5.1491,-5.21,-5.2651,-5.3132,-5.4327,-5.5269,-5.6066,-5.7185,-5.8187,-5.9108,-6.0223,-6.0729,-6.081,-6.081,-6.101,-6.1317,-6.1399,-6.1652,-6.1978,-6.1978,-6.195,-6.2012,-6.2751,-6.3207,-6.3509,-6.3942,-6.3791,-6.3437,-6.2783,-6.3454,-6.4287,-6.3889,-6.4396,-6.4794,-6.3997,-6.4106,-6.407,-6.2875,-6.2911,-6.2919,-6.2076,-6.1515,-6.1315,-6.1712,-6.1135,-6.091,-6.1759,-6.1515,-6.1351,-6.1748,-6.2004,-6.1903,-6.1251,-6.0846,-6.0621,-6.0702,-5.9582,-5.9256,-6.0052,-5.9098,-5.8486,-5.8486,-5.8649,-5.8166,-5.6999,-5.6669,-5.6291,-5.5889,-5.5501,-5.4304,-5.2395,-5.2538,-5.2401,0.0,0.0,0.0,0.0,0.0,-3.8192,0.0,0.0,0.0,0.0,0.0,0.0,0.0,0.0,0.0,0.0,0.0,0.0,0.0,0.0,0.0,0.0,0.0,0.0,0.0,-3.8313,-4.0414,-4.3917,-4.4581,-4.5668,-4.7585,-4.7678,-4.7946,-4.8489,-4.8612,-4.9293,-5.0522,-5.076,-5.1407,-5.2366,-5.3135,-5.3737,-5.4182,-5.5414,-5.6174,-5.6536,-5.7918,-5.9003,-5.9878,-6.0567,-6.1317,-6.1978,-6.1978,-6.1923,-6.184,-6.195,-6.1978,-6.1978,-6.1978,-6.1923,-6.1993,-6.2903,-6.3617,-6.4183,-6.4573,-6.441,-6.3978,-6.339,-6.3889,-6.4613,-6.4613,-6.512,-6.541,-6.4577,-6.4287,-6.3953,-6.3184,-6.3002,-6.2821,-6.2205,-6.206,-6.2033,-6.184,-6.1271,-6.1343,-6.2851,-6.2354,-6.2201,-6.3169,-6.2846,-6.255,-6.2531,-6.1697,-6.1453,-6.2241,-6.1108,-6.0564,-6.1071,-6.0477,-5.9827,-5.9172,-5.9114,-5.8787,-5.813,-5.8079,-5.7674,-5.6928,-5.6722,-5.5916,-5.4474,-5.3115,-5.2888,0.0,0.0,0.0,0.0,-4.0998,0.0,0.0,0.0,-3.5941,0.0,0.0,0.0,0.0,0.0,0.0,0.0,0.0,0.0,0.0,0.0,0.0,0.0,0.0,0.0,0.0,-3.7649,-4.0613,-4.4607,-4.4525,-4.5236,-4.7406,-4.7636,-4.7714,-4.7823,-4.8403,-4.9131,-4.9974,-5.0602,-5.1742,-5.3339,-5.3472,-5.4303,-5.574,-5.5921,-5.679,-5.8166,-5.9046,-5.9914,-6.0738,-6.1543,-6.1906,-6.1978,-6.1978,-6.1978,-6.1978,-6.1978,-6.1978,-6.1978,-6.1978,-6.1978,-6.2204,-6.3545,-6.4446,-6.4759,-6.3574,-6.3632,-6.3978,-6.339,-6.4287,-6.5446,-6.5446,-6.5518,-6.541,-6.4577,-6.3852,-6.3147,-6.2458,-6.2304,-6.2294,-6.2354,-6.2344,-6.2275,-6.2005,-6.1878,-6.2159,-6.3028,-6.2485,-6.2576,-6.4201,-6.3047,-6.2712,-6.4312,-6.3621,-6.3157,-6.3401,-6.3255,-6.2891,-6.2271,-6.1598,-6.1199,-6.109,-6.0518,-6.0188,-6.0078,-5.9381,-5.8717,-5.8023,-5.7175,-5.6367,-5.5616,-5.4659,-5.4317,0.0,0.0,0.0,0.0,0.0,0.0,-3.8868,0.0,-3.6171,0.0,0.0,0.0,0.0,0.0,0.0,0.0,0.0,0.0,0.0,0.0,0.0,0.0,0.0,0.0,0.0,0.0,0.0,0.0,-4.3082,-4.4297,-4.6132,-4.715,-4.7657,-4.7593,-4.794,-4.893,-5.0597,-5.0852,-5.2101,-5.4194,-5.4528,-5.518,-5.6029,-5.6895,-5.7691,-5.8456,-5.976,-6.0484,-6.0856,-6.1652,-6.2295,-6.2657,-6.2186,-6.1978,-6.1978,-6.1978,-6.1978,-6.1978,-6.1978,-6.1923,-6.2129,-6.3538,-6.4405,-6.4746,-6.3899,-6.4115,-6.4554,-6.4049,-6.4722,-6.5591,-6.5591,-6.5591,-6.541,-6.4577,-6.378,-6.3147,-6.2958,-6.2912,-6.282,-6.2453,-6.2798,-6.301,-6.2858,-6.2803,-6.3211,-6.4424,-6.3925,-6.3844,-6.5024,-6.4182,-6.383,-6.4621,-6.4394,-6.4239,-6.4293,-6.3855,-6.3454,-6.3126,-6.2051,-6.1421,-6.1495,-6.0799,-6.0419,-6.0419,-5.9682,-5.92,-5.8878,-5.8023,-5.7538,-5.7306,-5.5886,-5.5117,-4.3281,0.0,0.0,0.0,0.0,0.0,0.0,0.0,0.0,0.0,0.0,0.0,0.0,0.0,0.0,0.0,0.0,0.0,0.0,0.0,0.0,0.0,0.0,0.0,0.0,0.0,0.0,-4.0274,-4.1542,-4.2977,-4.4894,-4.6307,-4.7078,-4.7168,-4.7744,-4.901,-5.1066,-5.1318,-5.2641,-5.5074,-5.5465,-5.5913,-5.6355,-5.7665,-5.8425,-5.8818,-6.0394,-6.1227,-6.1534,-6.2276,-6.2819,-6.3128,-6.2549,-6.2186,-6.1978,-6.1978,-6.1978,-6.1978,-6.1978,-6.2185,-6.2586,-6.3624,-6.4549,-6.5069,-6.4331,-6.4619,-6.5058,-6.4584,-6.5004,-6.5663,-6.5939,-6.5801,-6.5446,-6.4867,-6.4106,-6.3582,-6.3775,-6.3766,-6.3665,-6.3278,-6.3669,-6.4081,-6.4139,-6.3766,-6.3911,-6.5402,-6.4903,-6.4786,-6.583,-6.5182,-6.4821,-6.5341,-6.5305,-6.524,-6.5267,-6.4536,-6.3852,-6.3414,-6.2384,-6.1825,-6.1924,-6.1398,-6.1018,-6.0798,-6.0304,-5.9859,-5.9462,-5.8827,-5.8511,-5.8434,-5.6894,-5.5955,0.0,0.0,0.0,-4.3552,0.0,0.0,0.0,0.0,-3.8825,0.0,0.0,0.0,0.0,0.0,0.0,0.0,0.0,0.0,0.0,0.0,0.0,0.0,0.0,0.0,0.0,0.0,0.0,-4.0346,-4.0231,-4.1232,-4.4067,-4.5028,-4.5727,-4.6338,-4.7998,-4.9589,-5.1089,-5.186,-5.352,-5.5957,-5.5905,-5.6339,-5.7188,-5.8021,-5.8818,-5.9625,-6.1118,-6.2265,-6.3164,-6.3791,-6.3711,-6.32,-6.3164,-6.2693,-6.1978,-6.1978,-6.1978,-6.1978,-6.1978,-6.2908,-6.4029,-6.4065,-6.5058,-6.5976,-6.4541,-6.4642,-6.5199,-6.4718,-6.5089,-6.5801,-6.6707,-6.6286,-6.5591,-6.5555,-6.4939,-6.4444,-6.4685,-6.474,-6.4848,-6.515,-6.5238,-6.5406,-6.6006,-6.4594,-6.3911,-6.5402,-6.4903,-6.5032,-6.6736,-6.5565,-6.5341,-6.7223,-6.6728,-6.6306,-6.6413,-6.5715,-6.4541,-6.2927,-6.278,-6.2743,-6.2768,-6.2855,-6.256,-6.1787,-6.175,-6.1047,-5.9575,-5.9425,-5.9087,-5.8492,-5.7513,-5.7207,0.0,0.0,-4.5943,-4.5424,0.0,0.0,0.0,0.0,0.0,0.0,0.0,0.0,0.0,0.0,0.0,0.0,0.0,0.0,0.0,0.0,0.0,0.0,0.0,0.0,0.0,0.0,0.0,-3.8245,-3.9307,-4.0889,-4.3285,-4.5035,-4.6287,-4.6953,-4.8055,-4.964,-5.1742,-5.2666,-5.4266,-5.6664,-5.6649,-5.6808,-5.7224,-5.7918,-5.9013,-6.035,-6.1343,-6.257,-6.3754,-6.348,-6.3602,-6.3889,-6.2838,-6.2549,-6.273,-6.2195,-6.1978,-6.1978,-6.1978,-6.2582,-6.3444,-6.4101,-6.4859,-6.5328,-6.4513,-6.5127,-6.5856,-6.4786,-6.5452,-6.6569,-6.6801,-6.6685,-6.6504,-6.6417,-6.5772,-6.5278,-6.5523,-6.5606,-6.5542,-6.5359,-6.5742,-6.6129,-6.6189,-6.5642,-6.5569,-6.6523,-6.5977,-6.5859,-6.698,-6.6326,-6.6181,-6.736,-6.7359,-6.7257,-6.7283,-6.6549,-6.5632,-6.453,-6.4431,-6.4482,-6.4584,-6.4634,-6.4304,-6.3529,-6.307,-6.2318,-6.12,-6.0174,-5.9516,-5.927,-5.8412,-5.7846,-4.5964,-4.6331,0.0,-4.6343,-4.5211,0.0,-4.1835,0.0,0.0,0.0,0.0,0.0,0.0,0.0,0.0,0.0,0.0,0.0,0.0,0.0,0.0,0.0,0.0,0.0,0.0,0.0,-3.4041,-3.6683,-3.7931,-3.9719,0.0,0.0,-4.6065,-4.7248,-4.865,-5.0353,-5.2449,-5.3398,-5.4914,-5.6907,-5.6907,-5.7129,-5.7583,-5.8625,-5.9763,-6.1099,-6.247,-6.3444,-6.4065,-6.3914,-6.3891,-6.3852,-6.2838,-6.2585,-6.2693,-6.2186,-6.1978,-6.2014,-6.2248,-6.2779,-6.3517,-6.4426,-6.4924,-6.513,-6.4889,-6.5431,-6.5945,-6.4815,-6.569,-6.6946,-6.6598,-6.6772,-6.699,-6.6903,-6.6475,-6.617,-6.6389,-6.6663,-6.6783,-6.6526,-6.7129,-6.7652,-6.7543,-6.7534,-6.7506,-6.7238,-6.6773,-6.659,-6.7137,-6.6912,-6.6948,-6.7433,-6.7606,-6.7577,-6.7283,-6.6806,-6.6145,-6.5375,-6.5301,-6.5327,-6.543,-6.5531,-6.5349,-6.482,-6.414,-6.3373,-6.2466,-6.0966,-6.007,-5.9758,-5.8943,-5.8545]},{"header":{"parameterUnit":"m.s-1","parameterCategory":1,"la1":30.6,"la2":29.2853,"lo1":-89.7004,"lo2":-87.6739,"dy":0.0162,"dx":0.0183,"nx":112,"ny":82,"refTime":"2023-03-24T06:00:00:Z","depth":0,"parameterNumber":3,"parameterNumberName":"V-component_of_WINDS"},"data":[0.0,0.0,0.0,0.0,0.0,0.0,0.0,0.0,0.0,0.0,0.0,0.0,0.0,0.0,0.0,0.0,0.0,0.0,0.0,0.0,0.0,0.0,0.0,0.0,0.0,0.0,0.0,0.0,0.0,0.0,0.0,0.0,0.0,0.0,0.0,0.0,0.0,0.0,0.0,0.0,0.0,0.0,0.0,0.0,0.0,0.0,0.0,0.0,0.0,0.0,0.0,0.0,0.0,0.0,0.0,0.0,0.0,0.0,0.0,0.0,0.0,0.0,0.0,0.0,0.0,0.0,0.0,0.0,0.0,0.0,0.0,0.0,0.0,0.0,0.0,0.0,0.0,0.0,0.0,0.0,0.0,0.0,0.0,0.0,0.0,0.0,0.0,0.0,0.0,0.0,0.0,1.3528,1.6547,1.8762,1.9592,1.9618,1.9092,1.7894,0.0,0.0,0.0,0.0,0.0,0.0,0.0,0.0,0.0,0.0,0.0,0.0,0.0,0.0,0.0,0.0,0.0,0.0,0.0,0.0,0.0,0.0,0.0,0.0,0.0,0.0,0.0,0.0,0.0,0.0,0.0,0.0,0.0,0.0,0.0,0.0,0.0,0.0,0.0,0.0,0.0,0.0,0.0,0.0,0.0,0.0,0.0,0.0,0.0,0.0,0.0,0.0,0.0,0.0,0.0,0.0,0.0,0.0,0.0,0.0,0.0,0.0,0.0,0.0,0.0,0.0,0.0,0.0,0.0,0.0,0.0,0.0,0.0,0.0,0.0,0.0,0.0,0.0,0.0,0.0,0.0,0.0,0.0,0.0,0.0,0.0,0.0,0.0,0.0,0.0,0.0,0.0,0.0,0.0,0.0,0.0,0.0,0.0,0.0,0.0,0.0,0.0,0.0,0.0,1.2831,1.5677,1.7739,1.9166,1.9803,1.9769,1.9169,1.795,0.0,0.0,0.0,0.0,0.0,0.0,0.0,0.0,0.0,0.0,0.0,0.0,0.0,0.0,0.0,0.0,0.0,0.0,0.0,0.0,0.0,0.0,0.0,0.0,0.0,0.0,0.0,0.0,0.0,0.0,0.0,0.0,0.0,0.0,0.0,0.0,0.0,0.0,0.0,0.0,0.0,0.0,0.0,0.0,0.0,0.0,0.0,0.0,0.0,0.0,0.0,0.0,0.0,0.0,0.0,0.0,0.0,0.0,0.0,0.0,0.0,0.0,0.0,0.0,0.0,0.0,0.0,0.0,0.0,0.0,0.0,0.0,0.0,0.0,0.0,0.0,0.0,0.0,0.0,0.0,0.0,0.0,0.0,0.0,0.0,0.0,0.0,0.0,0.0,0.0,0.0,0.0,0.0,0.0,0.0,0.0,0.0,0.0,0.0,0.0,0.0,0.0,0.0,1.2507,1.4038,1.6451,1.8295,1.9653,2.0439,2.002,1.9466,1.895,1.7286,0.0,0.0,0.0,0.0,0.0,0.0,0.0,0.0,0.0,0.0,0.0,0.0,0.0,0.0,0.0,0.0,0.0,0.0,0.0,0.0,0.0,0.0,0.0,0.0,0.0,0.0,0.0,0.0,0.0,0.0,0.0,0.0,0.0,0.0,0.0,0.0,0.0,0.0,0.0,0.0,0.0,0.0,0.0,0.0,0.0,0.0,0.0,0.0,0.0,0.0,0.0,0.0,0.0,0.0,0.0,0.0,0.0,0.0,0.0,0.0,0.0,0.0,0.0,0.0,0.0,0.0,0.0,0.0,0.0,0.0,0.0,0.0,0.0,0.0,0.0,0.0,0.0,0.0,0.0,0.0,0.0,0.0,0.0,0.0,0.0,0.0,0.0,0.0,0.0,0.0,0.0,0.0,0.0,0.0,0.0,0.0,0.0,0.0,0.0,0.0,0.0,0.0,1.37,1.5162,1.699,1.8847,2.0212,2.0944,2.0194,1.9619,1.9362,1.7316,0.0,0.0,0.0,0.0,0.0,0.0,0.0,0.0,0.0,0.0,0.0,0.0,0.0,0.0,0.0,0.0,0.0,0.0,0.0,0.0,0.0,0.0,0.0,0.0,0.0,0.0,0.0,0.0,0.0,0.0,0.0,0.0,0.0,0.0,0.0,0.0,0.0,0.0,0.0,0.0,0.0,0.0,0.0,0.0,0.0,0.0,0.0,0.0,0.0,0.0,0.0,0.0,0.0,0.0,0.0,0.0,0.0,0.0,0.0,0.0,0.0,0.0,0.0,0.0,0.0,0.0,0.0,0.0,0.0,0.0,0.0,0.0,0.0,0.0,0.0,0.0,0.0,0.0,0.0,0.0,0.0,0.0,0.0,0.0,0.0,0.0,0.0,0.0,0.0,0.0,0.0,0.0,0.0,0.0,0.0,0.0,0.0,0.0,0.0,0.0,0.0,0.0,1.4543,1.5944,1.7884,1.9778,2.0927,2.0989,2.0255,1.929,1.8091,1.6538,0.0,0.0,0.0,0.0,0.0,0.0,0.0,0.0,0.0,0.0,0.0,0.0,0.0,0.0,0.0,0.0,0.0,0.0,0.0,0.0,0.0,0.0,0.0,0.0,0.0,0.0,0.0,0.0,0.0,0.0,0.0,0.0,0.0,0.0,0.0,0.0,0.0,0.0,0.0,0.0,0.0,0.0,0.0,0.0,0.0,0.0,0.0,0.0,0.0,0.0,0.0,0.0,0.0,0.0,0.0,0.0,0.0,0.0,0.0,0.0,0.0,0.0,0.0,0.0,0.0,0.0,0.0,0.0,0.0,0.0,0.0,0.0,0.0,0.0,0.0,0.0,0.0,0.0,0.0,0.0,0.0,0.0,0.0,0.0,0.0,0.0,0.0,0.0,0.0,0.0,0.0,0.0,0.0,0.0,0.0,0.0,0.0,0.0,0.0,0.0,0.0,0.0,1.4738,1.6354,0.0,1.993,2.1255,2.1797,2.0624,1.9616,1.8993,0.0,0.0,0.0,0.0,0.0,0.0,0.0,0.0,0.0,0.0,0.0,0.0,0.0,0.0,0.0,0.0,0.0,0.0,0.0,0.0,0.0,0.0,0.0,0.0,0.0,0.0,0.0,0.0,0.0,0.0,0.0,0.0,0.0,0.0,0.0,0.0,0.0,0.0,0.0,0.0,0.0,0.0,0.0,0.0,0.0,0.0,0.0,0.0,0.0,0.0,0.0,0.0,0.0,0.0,0.0,0.0,0.0,0.0,0.0,0.0,0.0,0.0,0.0,0.0,0.0,0.0,0.0,0.0,0.0,0.0,0.0,0.0,0.0,0.0,0.0,0.0,0.0,0.0,0.0,0.0,0.0,0.0,0.0,0.0,0.0,0.0,0.0,0.0,0.0,0.0,0.0,0.0,0.0,0.0,0.0,0.0,0.0,0.0,0.0,0.0,0.0,0.0,1.3553,1.5028,1.6653,0.0,2.0443,2.1736,2.2183,2.0863,1.974,1.9082,0.0,0.0,0.0,0.0,0.0,0.0,0.0,0.0,0.0,0.0,0.0,0.0,0.0,0.0,0.0,0.0,0.0,0.0,0.0,0.0,0.0,0.0,0.0,0.0,0.0,0.0,0.0,0.0,0.0,0.0,0.0,0.0,0.0,0.0,0.0,0.0,0.0,0.0,0.0,0.0,0.0,0.0,0.0,0.0,0.0,0.0,0.0,0.0,0.0,0.0,0.0,0.0,0.0,0.0,0.0,0.0,0.0,0.0,0.0,0.0,0.0,0.0,0.0,0.0,0.0,0.0,0.0,0.0,0.0,0.0,0.0,0.0,0.0,0.0,0.0,0.0,0.0,0.0,0.0,0.0,0.0,0.0,0.0,0.0,0.0,0.0,0.0,0.0,0.0,0.0,0.0,0.0,0.0,0.0,0.0,0.0,0.0,0.0,0.0,0.0,0.0,0.0,1.448,1.5459,1.6918,1.925,2.1434,2.247,2.1935,2.0935,1.9607,0.0,0.0,0.0,0.0,0.0,0.0,0.0,0.0,0.0,0.0,0.0,0.0,0.0,0.0,0.0,0.0,0.0,0.0,0.0,0.0,0.0,0.0,0.0,0.0,0.0,0.0,0.0,0.0,0.0,0.0,0.0,0.0,0.0,0.0,0.0,0.0,0.0,0.0,0.0,0.0,0.0,0.0,0.0,0.0,0.0,0.0,0.0,0.0,0.0,0.0,0.0,0.0,0.0,0.0,0.0,0.0,0.0,0.0,0.0,0.0,0.0,0.0,0.0,0.0,0.0,0.0,0.0,0.0,0.0,0.0,0.0,0.0,0.0,0.0,0.0,0.0,0.0,0.0,0.0,0.0,0.0,0.0,0.0,0.0,0.0,0.0,0.0,0.0,0.0,0.0,0.0,0.0,0.0,0.0,0.0,0.0,0.0,0.0,0.0,0.0,0.0,0.0,0.0,1.4,1.5752,1.7549,1.9255,2.1392,2.2602,2.2332,2.1347,2.0106,1.8642,0.0,0.0,0.0,0.0,0.0,0.0,0.0,0.0,0.0,0.0,0.0,0.0,0.0,0.0,0.0,0.0,0.0,0.0,0.0,0.0,0.0,0.0,0.0,0.0,0.0,0.0,0.0,0.0,0.0,0.0,0.0,0.0,0.0,0.0,0.0,0.0,0.0,0.0,0.0,0.0,0.0,0.0,0.0,0.0,0.0,0.0,0.0,0.0,0.0,0.0,0.0,0.0,0.0,0.0,0.0,0.0,0.0,0.0,0.0,0.0,0.0,0.0,0.0,0.0,0.0,0.0,0.0,0.0,0.0,0.0,0.0,0.0,0.0,0.0,0.0,0.0,0.0,0.0,0.0,0.0,0.0,0.0,0.0,0.0,0.0,0.0,0.0,0.0,0.0,0.0,0.0,0.0,0.0,0.0,0.0,0.0,0.0,0.0,0.0,0.0,0.0,0.0,1.4393,1.6093,1.7873,1.9568,2.1241,2.227,2.2457,2.1619,2.0614,1.9454,0.0,0.0,0.0,0.0,0.0,0.0,0.0,0.0,0.0,0.0,0.0,0.0,0.0,0.0,0.0,0.0,0.0,0.0,0.0,0.0,0.0,0.0,0.0,0.0,0.0,0.0,0.0,0.0,0.0,0.0,0.0,0.0,0.0,0.0,0.0,0.0,0.0,0.0,0.0,0.0,0.0,0.0,0.0,0.0,0.0,0.0,0.0,0.0,0.0,0.0,0.0,0.0,0.0,0.0,0.0,0.0,0.0,0.0,0.0,0.0,0.0,0.0,0.0,0.0,0.0,0.0,0.0,0.0,0.0,0.0,0.0,0.0,0.0,0.0,0.0,0.0,0.0,0.0,0.0,0.0,0.0,0.0,0.0,0.0,0.0,0.0,0.0,0.0,0.0,0.0,0.0,0.0,0.0,0.0,0.0,0.0,0.0,0.0,0.0,0.0,0.0,0.0,1.5207,1.6379,1.7893,2.0006,2.0982,2.1747,2.232,2.1815,2.1136,2.0297,0.0,0.0,0.0,0.0,0.0,0.0,0.0,0.0,0.0,0.0,0.0,0.0,0.0,0.0,0.0,0.0,0.0,0.0,0.0,0.0,0.0,0.0,0.0,0.0,0.0,0.0,0.0,0.0,0.0,0.0,0.0,0.0,0.0,0.0,0.0,0.0,0.0,0.0,0.0,0.0,0.0,0.0,0.0,0.0,0.0,0.0,0.0,0.0,0.0,0.0,0.0,0.0,0.0,0.0,0.0,0.0,0.0,0.0,0.0,0.0,1.2224,0.0,0.0,0.0,0.0,0.0,0.0,0.0,0.0,0.0,0.0,0.0,0.0,0.0,0.0,0.0,0.0,0.0,0.0,0.0,0.0,0.0,0.0,0.0,0.0,0.0,0.0,0.0,0.0,0.0,0.0,0.0,0.0,0.0,0.0,0.0,0.0,0.0,0.0,0.0,0.0,0.0,1.505,1.635,1.7773,1.9364,2.0737,2.1675,2.1981,2.2035,2.1602,2.0649,1.9089,0.0,0.0,0.0,0.0,0.0,0.0,0.0,0.0,0.0,0.0,0.0,0.0,0.0,0.0,0.0,0.0,0.0,0.0,0.0,0.0,0.0,0.0,0.0,0.0,0.0,0.0,0.0,0.0,0.0,0.0,0.0,0.0,0.0,0.0,0.0,0.0,0.0,0.0,0.0,0.0,0.0,0.0,0.0,0.0,0.0,0.0,0.0,0.0,0.0,0.0,0.0,0.0,0.0,0.0,0.0,0.0,0.0,0.0,0.0,0.0,1.4195,0.0,0.0,0.0,0.0,0.0,0.0,0.0,0.0,0.0,0.0,0.0,0.0,0.0,0.0,0.0,0.0,0.0,0.0,0.0,0.0,0.0,0.0,0.0,0.0,0.0,0.0,0.0,0.0,0.0,0.0,0.0,0.0,0.0,0.0,0.0,0.0,0.0,0.0,0.0,0.0,1.6215,1.7396,1.8545,1.965,2.0432,2.1078,2.1629,2.1667,2.167,2.1659,1.9989,0.0,0.0,0.0,0.0,0.0,0.0,0.0,0.0,0.0,0.0,0.0,0.0,0.0,0.0,0.0,0.0,0.0,0.0,0.0,0.0,0.0,0.0,0.0,0.0,0.0,0.0,0.0,0.0,0.0,0.0,0.0,0.0,0.0,0.0,0.0,0.0,0.0,0.0,0.0,0.0,0.0,0.0,0.0,0.0,0.0,0.0,0.0,0.0,0.0,0.0,0.0,0.0,0.0,1.3787,1.4339,1.5221,1.6292,1.7344,1.8332,1.7069,1.6638,1.6769,1.6163,0.0,0.0,0.0,0.0,0.0,0.0,0.0,0.0,0.0,0.0,0.0,0.0,0.0,0.0,0.0,0.0,0.0,0.0,0.0,0.0,0.0,0.0,0.0,0.0,1.9199,1.9141,0.0,0.0,0.0,0.0,0.0,0.0,0.0,0.0,0.0,0.0,0.0,0.0,1.7456,1.8458,1.9321,1.9966,2.008,2.0435,2.1265,2.1263,2.1612,2.2521,2.07,1.9673,0.0,0.0,0.0,0.0,0.0,0.0,0.0,0.0,0.0,0.0,0.0,0.0,0.0,0.0,0.0,0.0,0.0,0.0,0.0,0.0,0.0,0.0,0.0,0.0,0.0,0.0,0.0,0.0,0.0,0.0,0.0,0.0,0.673,0.6828,0.0,0.0,0.0,0.0,0.0,0.0,0.0,0.0,0.0,0.0,0.0,0.0,0.0,1.2697,1.4172,1.4264,1.5064,1.6707,1.6164,1.663,1.7907,1.8919,1.9949,2.0828,2.0859,0.0,1.9636,1.8436,0.0,0.0,0.0,0.0,0.0,0.0,0.0,0.0,0.0,0.0,0.0,0.0,0.0,0.0,0.0,0.0,0.0,0.0,0.0,0.0,0.0,0.0,2.0234,2.0094,2.1383,2.2261,0.0,1.9541,1.8318,1.8279,1.7417,0.0,0.0,0.0,0.0,0.0,0.0,0.0,1.7064,1.8137,1.8945,1.9009,1.966,2.0356,2.1009,2.1445,2.1795,2.2094,2.1263,2.0556,2.0058,1.8217,0.0,0.0,0.0,0.0,0.0,0.0,0.0,0.0,0.0,0.0,0.0,0.0,0.0,0.0,0.0,0.0,0.0,0.0,0.0,0.0,0.0,0.0,0.0,0.0,0.0,0.0,0.0,0.0,0.0,0.7177,0.7893,0.8421,0.8487,0.8506,0.0,0.0,0.0,0.0,0.0,0.0,0.0,0.0,0.0,1.1185,1.2957,1.4352,1.5276,1.5644,1.6335,1.7363,1.7793,1.8507,1.9514,2.0499,2.1429,2.2295,2.2258,2.2067,2.1762,2.0468,1.9507,1.8657,0.0,0.0,0.0,0.0,1.6203,1.6871,1.8066,1.8874,0.0,1.9889,0.0,0.0,0.0,0.0,0.0,0.0,0.0,0.0,0.0,0.0,2.0023,2.0504,2.1644,2.2546,2.2234,2.1416,2.0421,0.0,1.8832,1.8197,1.6925,0.0,0.0,0.0,0.0,1.9172,1.9088,1.9895,2.0345,2.0025,2.0226,2.0402,2.0467,2.0686,2.102,2.1567,2.0679,2.0073,1.9981,1.8302,1.6855,0.0,0.0,0.0,0.0,0.0,0.0,0.0,0.0,0.0,0.0,0.0,0.0,0.0,0.0,0.0,0.0,0.0,0.0,0.0,0.0,0.0,0.0,0.0,0.0,0.0,0.0,0.0,0.0,0.7676,0.8785,0.9639,0.9803,0.9831,0.0,0.0,0.0,0.0,0.0,0.0,0.8833,1.0888,1.2242,1.2588,1.4405,1.5662,1.63,1.6757,1.7349,1.8025,1.893,1.9763,2.0686,2.1594,2.2472,2.3368,2.3,2.3082,2.3231,2.1907,2.0754,1.982,1.8925,1.8031,1.7204,1.7478,1.7996,1.877,1.9973,2.079,2.1374,2.1511,2.1128,2.0529,1.9962,0.0,0.0,0.0,0.0,1.8339,1.9051,1.9373,1.9755,2.0797,2.1683,2.2381,2.2685,2.2857,2.2376,0.0,2.0211,1.9763,1.8212,0.0,0.0,0.0,0.0,2.0449,2.0476,2.109,2.13,2.0728,2.059,2.0478,2.0354,2.0093,2.0251,2.0971,1.976,1.9062,1.9228,1.7788,1.6492,1.5355,0.0,0.0,0.0,0.0,0.0,0.0,0.0,0.0,0.0,0.0,0.0,0.0,0.0,0.0,0.0,0.0,0.0,0.0,0.0,0.0,0.0,0.0,0.0,0.0,0.0,0.0,0.0,0.0,0.0,0.9702,1.0067,0.0,0.0,0.0,0.0,0.9208,0.9651,0.9911,0.9929,1.1587,1.2826,1.3405,1.5125,1.6568,1.761,1.7754,1.844,1.9598,1.9429,2.0206,2.1614,2.2372,2.3141,2.4019,2.3723,2.3745,2.3963,2.2344,2.159,2.1349,2.0175,1.9681,1.9691,2.0219,2.0247,2.0241,2.169,2.1757,2.1462,2.2815,2.2654,2.1797,2.1207,2.0032,0.0,0.0,1.8955,1.9051,1.9468,2.0043,2.0702,2.13,2.2015,2.2533,2.2681,2.3183,2.3281,0.0,2.1375,2.0701,1.9904,0.0,2.0423,1.9713,2.0655,2.0968,1.9722,2.0473,2.0859,2.0134,2.0199,2.0498,2.0897,2.0194,1.988,2.023,1.8801,1.781,1.7441,1.6325,1.5365,1.4635,1.3991,0.0,0.0,0.0,0.0,0.0,0.0,0.0,0.0,0.0,0.0,0.0,0.0,0.0,0.0,0.0,0.0,0.0,0.0,0.0,0.0,0.0,0.0,0.0,0.0,0.0,0.0,0.0,0.0,1.1599,1.2212,0.0,1.2284,1.1658,1.1038,1.0404,1.0904,1.1491,1.2038,1.3602,1.4684,1.5149,1.6354,1.7169,1.7588,1.824,1.8947,1.9844,2.0541,2.1395,2.2338,2.275,2.3359,2.4067,2.3504,2.3474,2.3714,2.2671,2.2153,2.1831,2.0988,2.0689,2.0656,2.0872,2.0994,2.1205,2.2006,2.2121,2.1994,2.2743,2.2973,2.2866,2.2271,2.1664,2.1081,2.0573,2.0219,2.0016,2.0062,2.0333,2.076,2.1359,2.1883,2.2349,2.2633,2.2982,2.2992,2.2157,2.2157,2.2026,2.1198,2.1497,2.1699,2.1322,2.1618,2.1669,2.1061,2.1308,2.1287,2.0586,2.0701,2.0723,2.043,1.9957,1.9629,1.957,1.8042,1.7064,1.6907,1.5247,1.4456,1.4802,1.3647,1.2974,0.0,0.0,0.0,0.0,0.0,0.0,0.0,0.0,0.0,0.0,0.0,0.0,0.0,0.0,0.0,0.0,0.0,0.0,0.0,0.0,0.0,0.0,0.0,0.0,0.0,0.0,1.1705,1.2747,1.341,1.3555,1.3096,1.286,1.2412,1.1728,1.2164,1.2844,1.3659,1.4565,1.547,1.6199,1.6994,1.7601,1.7955,1.8808,1.9571,2.0347,2.1241,2.2072,2.2683,2.2981,2.3411,2.3903,2.3445,2.3409,2.3551,2.285,2.2451,2.2158,2.1601,2.142,2.1444,2.1444,2.151,2.1625,2.1957,2.2177,2.2317,2.238,2.2613,2.2797,2.2391,2.1996,2.162,2.1102,2.0712,2.0391,2.0134,2.0411,2.0915,2.1474,2.1835,2.2172,2.2413,2.2685,2.27,2.2041,2.2453,2.2626,2.1822,2.1956,2.2094,2.1907,2.187,2.1657,2.1176,2.1386,2.1291,2.0647,2.0727,2.0638,2.0125,1.9643,1.9217,1.9011,1.7415,1.6485,1.6469,1.4584,1.381,1.4297,1.3374,1.3055,1.3364,0.0,0.0,0.0,0.0,0.0,0.0,0.0,0.0,0.0,0.0,0.0,0.0,0.0,0.0,0.0,0.0,0.0,0.0,0.0,0.0,0.0,0.0,0.0,1.0393,1.1595,1.2578,1.3078,1.3518,1.3611,1.3269,1.3322,1.3327,1.3249,1.3372,1.3805,1.4602,1.4492,1.5052,1.6439,1.6959,1.7793,1.8945,1.9519,2.0288,2.1225,2.1547,2.201,2.2606,2.2918,2.3293,2.3574,2.3612,2.3594,2.3535,2.2835,2.2576,2.2458,2.1922,2.1873,2.2101,2.2101,2.1825,2.1563,2.1664,2.1946,2.2278,2.1926,2.1702,2.1635,2.1635,2.1086,2.0421,2.0403,2.0304,2.0127,1.9718,2.0391,2.1282,2.1683,2.1949,2.205,2.199,2.2379,2.252,2.1828,2.2274,2.2483,2.1849,2.1706,2.167,2.145,2.1413,0.0,2.0018,2.0585,2.0828,2.0179,2.0267,2.0316,2.014,1.9297,1.8752,1.8631,1.7061,1.6072,1.6041,1.442,1.3423,1.3252,1.32,1.3499,1.4159,0.0,0.0,0.0,0.0,0.0,0.0,0.0,0.0,0.0,0.0,0.0,0.0,0.0,0.0,0.0,0.0,0.0,0.0,0.0,0.0,0.0,0.0,1.2606,1.1704,1.2312,1.3096,1.3693,1.4334,1.4532,1.4163,1.4231,1.4351,1.4364,1.4567,1.5218,1.6333,1.6321,1.6813,1.8076,1.8263,1.8711,1.9559,2.0159,2.084,2.1594,2.2128,2.2582,2.2981,2.3043,2.316,2.323,2.3218,2.3255,2.3177,2.2702,2.2632,2.2718,2.1927,2.1973,2.2347,2.2125,2.2071,2.2055,2.1993,2.2215,2.2429,2.2051,2.2056,2.2162,2.2162,2.1761,2.1228,2.0926,2.0634,2.0274,1.9752,2.0177,2.0876,2.1474,2.1627,2.1738,2.2008,2.2307,2.2408,2.2051,2.2538,2.2778,2.2096,2.2109,2.2164,2.2125,2.1816,0.0,2.1888,2.1272,2.0759,2.0632,2.0598,2.0482,2.0114,1.9601,1.9324,1.9449,1.7481,1.6386,1.6494,1.4796,1.4067,1.4491,1.4673,1.4936,0.0,0.0,0.0,0.0,0.0,0.0,0.0,0.0,0.0,0.0,0.0,0.0,0.0,0.0,0.0,0.0,0.0,0.0,0.0,0.0,0.0,0.0,1.4862,1.4548,1.3958,1.393,1.4251,1.5013,1.5195,1.5133,1.478,1.5004,1.5225,1.54,1.5686,1.6315,1.7326,1.7316,1.7778,1.9,1.9158,1.9509,2.016,2.0761,2.1362,2.1852,2.2205,2.2591,2.2901,2.2784,2.2745,2.272,2.2825,2.2861,2.2848,2.2569,2.2493,0.0,0.0,0.0,0.0,0.0,2.1959,2.2305,2.2193,2.2367,2.2534,2.2124,2.1933,2.1844,2.1942,2.1423,2.0767,2.0706,2.0491,2.0087,1.9491,1.9902,2.0605,2.1108,2.1185,2.1223,2.1606,2.18,2.1849,2.173,2.209,0.0,2.1908,2.2065,2.2123,2.1744,2.1708,2.1729,2.177,2.1297,2.0955,2.0786,2.074,2.0587,2.0307,1.973,0.0,0.0,0.0,1.6285,1.5905,1.4974,0.0,0.0,0.0,1.5546,1.5618,0.0,0.0,0.0,1.5503,1.5196,0.0,0.0,0.0,0.0,0.0,0.0,0.0,0.0,0.0,0.0,0.0,0.0,0.0,0.0,0.0,0.0,1.6455,1.6149,1.6678,1.5985,1.5741,1.6551,1.6032,1.5482,1.5186,1.5566,1.6044,1.6471,1.6699,1.7196,1.8037,0.0,0.0,0.0,0.0,2.0187,2.0775,2.1366,2.1803,2.2104,2.2167,2.2317,2.2608,2.2315,2.2169,2.217,2.2464,2.2574,2.2494,2.2386,2.2194,2.1846,2.161,2.1856,2.2215,2.1719,2.1836,2.2237,2.2322,0.0,0.0,2.2175,2.1652,2.1202,2.1377,2.055,1.9687,2.0161,1.9999,1.96,1.9102,1.9585,2.0313,2.0742,2.0703,2.0683,2.1054,2.1214,2.1246,2.1205,2.1431,2.1594,2.1553,2.1804,2.171,2.0938,2.1372,2.1507,2.0851,2.1137,2.1286,2.092,0.0,0.0,2.0499,1.9678,1.8987,1.8556,1.7303,1.6117,1.5062,1.5134,1.5028,1.4665,1.5389,1.5774,1.5735,1.6656,1.7145,1.7207,1.6244,1.5928,0.0,0.0,0.0,0.0,0.0,0.0,0.0,0.0,0.0,0.0,0.0,0.0,0.0,0.0,0.0,1.9048,1.8506,1.827,1.8816,1.7762,1.6707,1.6183,1.6139,1.6139,1.6069,1.6082,1.6552,1.7521,1.7431,1.7988,1.9475,1.9261,1.9745,2.1059,2.0902,2.1003,2.1454,2.1837,2.2055,2.2104,0.0,0.0,2.2608,2.2315,2.2037,2.1847,2.2359,2.2314,2.1821,2.2001,2.1693,2.1147,2.1659,2.1719,2.165,2.2267,2.2037,2.1618,2.2585,2.2808,2.2638,2.2519,2.2043,2.1492,2.1541,2.0626,0.0,2.0065,1.9715,1.9187,1.8987,1.9187,1.9662,2.0379,2.0595,2.0749,2.1298,2.1537,2.1674,2.1674,2.1954,2.2151,2.1995,2.1897,2.1763,2.1602,2.1988,2.2282,2.2269,2.1909,2.1577,2.1292,2.0766,2.0376,2.026,1.9446,1.9022,1.9129,1.7931,1.6936,1.6348,1.5991,1.5967,1.6316,1.6243,1.6471,1.7017,1.7129,1.7232,1.7369,1.7189,1.7063,0.0,0.0,0.0,0.0,0.0,0.0,0.0,0.0,0.0,0.0,0.0,1.8796,0.0,0.0,2.0347,2.0243,1.9688,1.9374,1.9638,1.8841,1.7912,1.716,1.7055,1.6929,1.6786,1.7077,1.7564,1.8136,1.829,1.8881,1.9927,1.9869,2.0243,2.1241,2.1096,2.1339,2.1872,2.2019,2.2167,2.2355,2.2378,2.2476,2.2608,2.1979,2.1745,2.192,2.2206,2.2127,2.1773,2.1711,2.1549,2.1434,2.1945,2.1985,2.1772,2.2392,2.2494,2.2419,2.3083,2.3195,2.2945,2.2705,2.2131,2.1445,2.1392,2.0485,1.9534,1.9797,1.9524,1.9177,1.9016,1.9359,1.9848,2.0196,2.0334,2.0546,2.0996,2.1194,2.1373,2.1577,2.1824,2.1998,2.1909,2.1831,2.1789,2.192,2.2221,2.2428,2.2546,2.2076,2.1701,2.1595,2.1193,2.0832,2.0703,1.9436,1.8354,1.7695,1.6938,1.6442,1.6225,1.6086,1.6059,1.6142,1.6238,1.6342,1.6404,1.6595,1.6678,1.6593,1.6444,1.6424,0.0,0.0,0.0,0.0,0.0,0.0,0.0,0.0,1.7252,1.8442,1.9398,2.0174,2.0561,2.0869,2.1059,2.0948,2.0431,1.9976,1.989,1.9534,1.9086,1.8476,1.8074,1.7777,1.7487,1.7942,1.8387,1.8676,1.9092,1.967,2.0298,2.041,2.0709,2.1254,2.1237,2.1555,2.2066,2.2082,2.2292,2.2606,2.2352,2.2449,2.2654,2.1891,2.1757,2.2345,2.2227,2.2173,2.2087,2.167,2.1698,2.2075,2.2376,2.2477,2.2441,2.264,2.3046,2.3416,2.361,2.3566,2.336,2.2964,2.2204,2.1369,2.1213,2.0377,1.9494,1.9562,1.9414,1.9223,1.8962,1.9461,1.9989,2.0018,2.0121,2.0332,2.0709,2.0843,2.0995,2.1338,2.1571,2.1668,2.164,2.1621,2.1728,2.2043,2.2189,2.2303,2.2378,2.2006,2.1741,2.1773,2.1384,2.0954,2.0546,1.9087,1.7615,1.6231,1.5966,1.5838,1.5853,1.5912,1.5781,1.5514,1.5853,1.5805,1.5311,1.5793,1.5925,1.5662,1.5309,1.5396,1.4659,1.4518,1.4897,1.6178,1.6341,1.691,0.0,0.0,2.0004,2.1801,2.1962,2.1807,2.188,2.1665,2.1319,2.0948,2.0664,2.0268,1.9722,1.9839,1.9802,1.9233,1.8778,1.8423,1.8307,1.8117,1.8469,1.9597,1.9561,2.0096,2.1628,2.1696,2.1897,2.2258,2.2044,2.1973,2.213,2.2082,2.2292,2.2606,2.2555,2.2715,2.3035,2.2707,2.272,2.3076,2.2678,2.2482,2.2445,2.2087,2.2139,2.2457,2.2823,2.3333,2.3869,2.3731,2.3592,2.3577,2.413,2.4112,2.3861,2.3376,2.2622,2.1739,2.1385,2.0635,1.9797,1.951,1.9329,1.906,1.8392,1.8732,1.9316,1.966,2.0097,2.0465,2.09,2.1168,2.1338,2.1392,2.1571,2.1621,2.1472,2.1417,2.159,2.205,2.1964,2.1981,2.234,2.1888,2.1587,2.1797,2.0755,1.9529,1.8226,1.7759,1.7269,1.666,1.644,1.6302,1.6312,1.5901,1.5587,1.5501,1.528,1.5073,1.495,1.5324,1.5403,1.525,1.5106,1.5144,1.5325,1.5227,1.5425,0.0,1.7232,1.8032,1.9888,2.0332,2.0722,2.187,2.2246,2.2265,2.1906,2.1801,2.1577,0.0,2.072,2.0424,2.0196,2.0015,1.9843,1.9828,1.9479,1.9026,1.8593,1.8728,1.8971,1.9286,1.9608,2.0363,2.1619,2.1476,2.1806,2.274,2.2109,2.2011,2.2637,2.2292,2.227,2.2581,2.2804,2.2989,2.3095,2.3021,2.3167,2.3433,2.3184,2.3095,2.3048,2.2728,2.2784,2.3133,2.3483,2.4045,2.4622,2.4375,2.4349,2.4435,2.4454,2.4375,2.4155,2.3305,2.2617,2.2031,2.1253,2.065,2.0098,1.9797,1.9589,1.9439,1.9085,1.931,1.9597,1.9794,2.0186,2.0579,2.0619,2.1015,2.1347,2.1195,2.1371,2.1503,2.1423,2.1328,2.1405,2.1703,2.1674,2.1786,2.2213,2.1709,2.1277,2.1119,2.0364,1.9465,1.8357,1.7965,1.7382,1.6484,1.6399,1.6308,1.6121,1.578,1.5554,1.5465,1.5574,1.5386,1.4822,1.5445,1.5405,1.4794,1.4432,1.4356,1.5693,0.0,0.0,1.7141,1.8087,1.8991,2.0106,2.0837,2.141,2.1982,2.2169,2.2053,2.1516,2.1252,2.1052,2.0718,2.0426,2.0362,2.0565,2.0309,2.0138,2.0301,2.01,1.9742,1.91,1.9322,1.9453,1.9318,1.9853,2.064,2.1714,2.1595,2.2043,2.3075,2.2397,2.2308,2.3032,2.2497,2.2429,2.2877,2.3122,2.3306,2.3551,2.3671,2.3803,2.3891,2.3799,2.3774,2.3625,2.3393,2.3451,2.3705,2.4018,2.4451,2.4914,2.4675,2.4839,2.5201,2.479,2.46,2.4301,2.3216,2.2641,2.2225,2.1248,2.0758,2.0432,1.9973,1.9798,1.9733,1.9586,1.9734,1.9975,2.0075,2.0554,2.0887,2.0526,2.1056,2.1437,2.0935,2.1091,2.1268,2.1089,2.1062,2.1085,2.1176,2.1219,2.1479,2.2062,2.1585,2.0991,2.0455,1.9972,1.9359,1.859,1.8023,1.7308,1.6325,1.6302,1.617,1.5857,1.569,1.561,1.5639,1.5938,1.5718,1.5067,1.5637,1.5431,1.4436,1.4101,1.3926,0.0,0.0,1.5954,1.7984,1.895,1.9852,2.1601,2.2257,2.2665,2.3001,2.2152,2.1205,2.088,1.9821,1.9188,1.9642,1.9707,1.9914,2.05,2.0842,2.0965,2.0678,2.069,2.0502,0.0,1.9826,1.9726,2.0175,2.0336,2.1098,2.2424,2.2777,2.3142,2.349,2.3116,2.3004,2.3107,2.2777,2.2918,2.3589,2.3589,2.3914,2.4595,2.4887,2.4887,2.4564,2.4585,2.4367,2.4094,2.4047,2.4082,2.4098,2.4114,2.429,2.4541,2.4525,2.4946,2.5512,2.518,2.4825,2.4342,2.3327,2.2734,2.2253,2.1581,2.1127,2.0737,1.9942,1.9798,1.9798,1.9344,1.9641,2.0173,2.0585,2.1244,2.1618,2.1036,2.1461,2.1671,2.0633,2.0779,2.0894,2.0328,2.0442,2.0533,2.037,2.0489,2.0957,2.1818,2.1504,2.0875,1.9998,1.939,1.8754,1.8089,1.7465,1.6919,1.6427,1.6196,1.5989,1.5726,1.5574,1.5748,1.6277,1.6111,1.5903,1.5667,1.5763,1.5272,1.422,1.4254,1.4136,0.0,0.0,1.6974,1.8418,1.9714,2.0847,2.1582,2.204,2.2314,2.2421,2.1163,2.0081,2.0104,1.9318,1.8854,1.9668,1.9945,2.024,2.0853,2.0867,2.0882,2.1027,2.0855,0.0,0.0,0.0,0.0,2.0118,2.0472,2.1126,2.2189,2.2687,2.328,2.3823,2.3314,2.3116,2.3328,2.2878,2.2817,2.3275,2.3703,2.4254,2.4919,2.5042,2.5042,2.4919,2.4915,2.4867,2.479,2.4984,2.4912,2.4703,2.4941,2.5238,2.5459,2.5194,2.5252,2.5453,2.5069,2.4721,2.4317,2.3459,2.3015,2.263,2.1941,2.1366,2.0896,2.078,2.0491,2.0168,2.0212,2.0143,2.0218,2.0698,2.095,2.1049,2.0954,2.1391,2.1607,2.0799,2.0996,2.1083,2.035,2.0404,2.0554,2.0332,2.0586,2.084,2.1016,2.1017,2.0703,1.996,1.9706,1.9152,1.8072,1.7789,1.7383,1.6648,1.6294,1.6046,1.5963,1.5902,1.6025,1.6234,1.6768,1.6695,1.5899,1.6071,1.5554,1.4465,1.4007,1.3823,0.0,1.7675,1.8009,1.9347,2.0496,2.1365,2.1658,2.204,2.2122,2.1532,2.0184,1.9089,1.9012,1.8115,1.7796,1.8985,1.9412,1.9899,2.0733,2.0868,2.1068,2.1481,2.1403,2.132,0.0,0.0,0.0,2.0325,2.0877,2.1587,2.2383,2.2818,2.344,2.4381,2.3599,2.3371,2.3681,2.3111,2.3062,2.3654,2.4209,2.4764,2.5294,2.5294,2.523,2.5103,2.5103,2.5103,2.5103,2.5282,2.5129,2.4849,2.5031,2.5335,2.5578,2.5324,2.5313,2.5398,2.4895,2.4608,2.4305,2.3549,2.3133,2.2841,2.2408,2.1611,2.0976,2.1318,2.0963,2.0525,2.0734,2.0614,2.0543,2.0968,2.1154,2.125,2.1245,2.1572,2.1697,2.0974,2.1083,2.104,2.0227,2.0171,2.028,2.0386,2.0488,2.0547,2.0605,2.0683,2.0625,2.0216,1.9942,1.939,1.8353,1.8031,1.7479,1.6474,1.6216,1.6108,1.6108,1.6216,1.6488,1.6942,1.7467,1.7305,1.6352,1.6314,1.5704,1.4544,1.4002,1.3835,1.8233,1.8632,1.9067,2.0741,2.1203,2.1349,2.1819,2.2202,2.2013,2.0506,1.9232,1.825,0.0,0.0,1.5984,1.7729,1.829,1.8994,2.0178,2.0861,2.1493,0.0,0.0,0.0,0.0,0.0,0.0,2.0874,0.0,2.2419,2.3051,2.3121,2.3703,2.5017,2.4136,2.3814,2.4122,2.3491,2.3643,2.4589,2.492,2.5266,2.5596,2.5581,2.5453,2.5135,2.5119,2.5103,2.5149,2.5085,2.4849,2.4535,2.4483,2.4694,2.4986,2.4894,2.5125,2.5417,2.467,2.4406,2.4283,2.3552,2.3149,2.2881,2.2868,2.1985,2.1078,2.1573,2.131,2.0851,2.0994,2.112,2.1216,2.1439,2.1835,2.209,2.17,2.1961,2.1934,2.0974,2.096,2.0851,2.0076,1.978,1.9872,2.0507,2.0205,2.0078,2.0489,2.0566,2.0566,2.0566,1.9981,1.935,1.8718,1.806,1.7185,1.5952,1.598,1.6124,1.6182,1.6371,1.7049,1.8213,1.8022,1.7581,1.6959,1.6462,1.5639,1.452,1.4308,1.4189,1.8937,1.9461,1.9973,2.0662,2.1191,2.1538,2.145,2.0931,2.0332,1.9747,1.7929,1.6476,0.0,0.0,0.0,1.7843,1.885,0.0,2.1097,2.1418,0.0,2.243,0.0,2.2751,2.3155,2.343,0.0,0.0,2.2305,2.2472,2.305,2.3327,2.3706,2.4342,2.4104,2.4142,2.4487,2.4079,2.4084,2.4611,2.4937,2.5454,2.6073,2.5755,2.5533,2.5485,2.5477,2.5488,2.5517,2.5644,2.5502,2.5194,2.5172,2.5475,2.6025,2.57,2.6224,2.6782,2.5421,2.4493,2.3934,2.3922,2.3432,2.2798,2.2511,2.2015,2.1522,2.1674,2.1578,2.1428,2.1671,2.1899,2.2143,2.232,2.2215,2.1959,2.1744,2.1506,2.1229,2.0692,2.0625,2.0704,2.0796,2.0526,2.037,2.0712,2.0376,2.0101,2.0097,2.0098,2.0098,2.0098,1.9942,1.934,1.8131,1.7743,1.6963,1.5607,1.5522,1.57,1.6166,1.626,1.6621,1.7399,1.6977,1.6541,1.619,1.556,1.4979,1.4498,1.4278,1.4212,2.0187,2.0497,2.075,2.118,2.1495,2.1465,2.0695,2.0144,1.9448,1.8209,1.6791,0.0,0.0,0.0,0.0,0.0,0.0,0.0,2.069,2.1322,2.2014,0.0,2.3067,0.0,2.3958,2.4209,2.4202,0.0,2.3363,2.3092,2.3329,2.3484,2.3784,2.4272,2.4198,2.4089,2.4176,2.4131,2.4301,2.461,2.4968,2.5423,2.5914,2.5723,2.5485,2.5389,0.0,2.5513,2.5335,2.5635,2.562,2.5364,2.556,2.6,2.6584,2.6562,2.6814,2.7142,2.6313,2.5163,2.4082,2.4018,2.3425,2.2709,2.2666,2.2128,2.1494,2.1595,2.1577,2.1502,2.1638,2.1996,2.2325,2.2387,2.2326,2.226,2.2227,2.176,2.1211,2.0851,2.0631,2.0662,2.1248,2.0906,2.0618,2.0869,2.0597,2.0305,2.0186,2.001,1.9902,1.9902,1.9824,1.9337,1.8276,1.7692,1.6879,1.5701,1.5422,1.5467,1.5811,1.6166,1.6483,1.6878,1.6951,1.6727,1.6237,1.6011,1.5595,1.5073,1.4818,1.4557,2.1544,2.1549,2.1477,2.1929,2.1784,2.1191,1.9903,1.9436,1.8686,1.6339,0.0,1.5278,1.4461,0.0,1.4546,1.5669,0.0,1.8199,1.9808,2.0931,2.2186,2.3597,2.3734,2.4116,2.5091,2.4873,2.4815,2.5104,2.4494,2.4001,2.3738,2.3665,2.3946,2.4547,2.4362,2.4033,2.3672,2.3994,2.4363,2.4672,2.4968,2.5297,2.5707,2.5612,2.5469,2.5167,2.5456,0.0,2.5087,2.5327,2.5364,2.536,2.5774,2.6303,2.6924,2.7211,2.719,2.7097,2.7047,2.5992,2.4579,2.4188,2.3444,2.2706,2.2912,2.2181,2.1328,2.1476,2.1468,2.1479,2.1339,2.1831,2.231,2.2157,2.2431,2.276,2.2866,2.2272,2.1577,2.1255,2.0906,2.0882,2.1632,2.1181,2.0857,2.12,2.0888,2.0618,2.0521,2.009,1.9843,1.9899,1.9666,1.9237,1.8625,1.7756,1.6828,1.5826,1.5482,1.5336,1.5374,1.5937,1.6404,1.6625,1.7142,1.7169,1.6689,1.6891,1.6572,1.572,1.5478,1.5046,2.199,2.2243,2.2233,2.1853,2.1553,2.0878,1.9287,1.7867,0.0,0.0,0.0,1.3328,1.2992,1.3477,0.0,1.5391,0.0,0.0,0.0,0.0,2.204,0.0,0.0,0.0,0.0,0.0,0.0,0.0,0.0,2.421,2.44,2.4183,2.4227,2.4615,2.4817,2.461,2.396,2.4301,2.4672,2.4996,2.5094,2.5611,2.647,2.5898,2.5533,2.5516,2.5538,0.0,2.5429,2.5408,2.5372,2.5434,2.5774,2.6303,2.6924,2.7211,2.7658,2.7961,2.6664,2.5862,2.536,2.4911,2.3865,2.2621,2.2292,2.208,2.1861,2.1508,2.1713,2.1977,2.1972,2.241,2.2937,2.2913,2.3142,2.3249,2.2968,2.2272,2.1668,2.1595,2.1522,2.1632,2.2089,2.1976,2.188,2.2043,2.1651,2.1144,2.0558,1.9846,1.9519,1.9869,1.9258,1.8622,1.8021,1.7657,1.6768,1.5153,1.5224,1.5257,1.5165,1.5108,1.5608,1.6743,1.5904,1.5897,1.6689,1.6257,1.5802,1.5389,1.5617,1.5199,2.2461,2.2494,2.2489,2.2062,2.1669,2.0798,1.8537,0.0,0.0,0.0,1.328,1.2803,1.2485,0.0,0.0,0.0,0.0,0.0,0.0,0.0,0.0,0.0,0.0,0.0,0.0,0.0,0.0,0.0,0.0,2.4709,2.4335,2.4207,2.4322,2.4844,2.4868,2.4621,2.4055,2.458,2.4844,2.4857,2.5219,2.5613,2.612,2.5596,2.542,2.559,2.5545,0.0,2.5444,2.5428,2.5353,2.5367,2.5761,2.6275,2.6849,2.7179,2.7353,2.7343,2.6554,2.5823,2.5115,2.4714,2.3741,2.2669,2.257,2.228,2.1877,2.134,2.1518,2.1913,2.2017,2.2517,2.3051,2.3251,2.3615,2.3694,2.3041,2.2602,2.2199,2.1778,2.1687,2.1742,2.1943,2.1949,2.1894,2.1988,2.1581,2.1164,2.0851,1.9934,1.9384,1.9586,1.9256,1.8861,1.8469,1.7844,1.7164,1.6413,1.581,1.5427,1.5363,1.5477,1.5688,1.6007,1.6126,1.6301,1.6583,1.6599,1.6373,1.5857,1.5959,1.5499,2.3155,2.3032,2.2806,2.2363,2.1807,2.0628,1.7879,1.6644,0.0,0.0,1.2752,1.2554,1.236,0.0,0.0,0.0,0.0,0.0,0.0,0.0,0.0,0.0,0.0,0.0,0.0,0.0,0.0,0.0,0.0,0.0,2.4451,2.4356,2.451,2.4966,2.4704,2.4419,2.3991,2.4688,2.4875,2.461,2.5281,2.5675,2.5739,2.5389,2.5354,2.5568,2.5354,0.0,0.0,2.5184,2.513,2.5151,2.5751,2.6229,2.6623,2.7004,2.6846,2.6426,2.6261,2.5527,2.4643,2.4362,2.3559,2.2751,2.2782,2.2335,2.1771,2.1221,2.1428,2.1843,2.2034,2.2517,2.3133,2.3535,2.3914,2.3999,2.3187,2.2968,2.2693,2.1961,2.1742,2.1723,2.1797,2.1713,2.1684,2.1687,2.1427,2.1114,2.0998,2.0154,1.9531,1.9439,1.9274,1.914,1.8993,1.8232,1.7728,1.7614,1.6549,1.5821,1.5543,1.6028,1.6106,1.5675,1.675,1.7269,1.7134,1.737,1.7175,1.6501,1.6307,1.5771,2.4299,2.4363,2.3718,2.2792,2.1506,1.9888,1.7542,0.0,0.0,1.2726,1.2016,1.1748,1.2233,1.2021,1.232,0.0,0.0,0.0,0.0,0.0,0.0,0.0,0.0,0.0,0.0,0.0,0.0,0.0,0.0,0.0,2.5368,2.5166,2.4914,2.465,2.4639,2.4276,2.3681,2.4332,2.4641,2.461,2.5281,2.5802,2.6152,2.5739,2.5596,2.5532,2.4891,0.0,0.0,2.4457,2.4586,2.4857,2.5851,2.6218,2.619,2.6518,2.6408,2.5966,2.5197,2.4629,2.4306,2.4449,2.3765,2.2782,2.2242,2.1935,2.1652,2.1437,2.178,2.2236,2.2272,2.2858,2.3535,2.4055,2.4183,2.4073,2.3535,2.3151,2.2767,2.2309,2.1943,2.1797,2.2163,2.1836,2.1553,2.1676,2.1558,2.1237,2.0613,2.0484,2.0264,1.9875,1.918,1.8809,1.9015,1.8736,1.8219,1.7282,1.7072,1.6458,1.5383,1.6107,1.6638,1.6838,1.7477,1.8262,1.914,1.8284,1.7523,1.6861,1.6388,1.5686,2.3026,2.3378,2.3292,2.2538,2.1208,1.9502,1.7264,0.0,0.0,1.2635,1.203,1.1766,1.2011,1.2302,1.2889,0.0,0.0,0.0,0.0,0.0,0.0,0.0,0.0,0.0,0.0,0.0,0.0,0.0,0.0,0.0,2.54,2.5013,2.4855,2.4929,2.4481,2.4148,2.3883,2.4197,2.4421,2.4609,2.5343,2.5833,2.62,2.5786,2.5579,2.5571,2.4805,0.0,0.0,2.4378,2.4466,2.4844,2.5398,2.5748,2.5881,2.5919,2.5808,2.558,2.4977,2.4254,2.3657,2.3834,2.3352,2.2717,2.2787,2.2548,2.2234,2.2007,2.2392,2.2898,2.2997,2.3474,2.4024,2.4477,2.4385,2.4165,2.4128,2.3777,2.3296,2.2695,2.2436,2.2287,2.2213,2.1872,2.168,2.1891,2.1558,2.1182,2.0888,2.0668,2.0466,2.0301,1.9549,1.9049,1.8993,1.8812,1.8461,1.7968,1.7503,1.7172,1.6867,1.7221,1.7616,1.8065,1.8306,1.8692,1.9154,1.8533,1.7806,1.7023,1.7045,1.6299,2.1907,2.2414,2.2536,2.194,2.0407,1.8599,0.0,0.0,1.3426,1.2428,1.2015,1.1878,1.1986,1.2541,1.3285,0.0,0.0,0.0,0.0,0.0,0.0,0.0,0.0,0.0,0.0,0.0,0.0,0.0,0.0,0.0,2.5158,2.4767,2.466,2.4905,2.4298,2.3977,2.394,2.3873,2.4026,2.4466,2.52,2.569,2.5977,2.5643,2.5466,2.5423,2.4421,0.0,0.0,2.3951,2.4122,2.4597,2.4919,2.5283,2.5647,2.5541,2.5374,2.5161,2.4886,2.4022,2.3063,2.3414,2.2942,2.2402,2.2887,2.2954,2.2778,2.2685,2.3165,2.3758,2.384,2.4207,2.4606,2.4739,2.4638,2.4479,2.4517,2.4261,2.3775,2.3019,2.287,2.2694,2.2258,2.1894,2.1739,2.1787,2.1379,2.1108,2.1108,2.0869,2.0698,2.0827,2.0071,1.9516,1.9354,1.8963,1.8707,1.8568,1.8243,1.8004,1.7912,1.8453,1.8885,1.9032,1.9329,1.9497,1.959,1.9005,1.8318,1.7435,1.7553,1.7074,2.1565,2.193,2.1568,2.0948,1.8992,1.6889,0.0,0.0,1.2376,1.1914,1.1863,1.1999,1.2264,1.2588,1.3117,1.4124,0.0,0.0,0.0,0.0,0.0,0.0,0.0,0.0,0.0,0.0,0.0,0.0,0.0,0.0,2.4716,2.4539,2.4462,2.4598,2.3919,2.3602,2.3603,2.3281,2.3432,2.4115,2.478,2.5266,2.5565,2.5278,2.5119,0.0,0.0,0.0,0.0,2.2963,2.3347,2.414,2.4541,2.5021,2.5505,2.5487,2.5211,2.4794,2.4776,2.3821,2.2713,2.3322,2.2618,2.1735,2.2315,2.2787,2.3141,2.3432,2.4134,2.4757,2.4776,2.512,2.5304,2.4867,2.496,2.4963,2.4573,2.4377,2.4107,2.342,2.328,2.3075,2.2437,2.1943,2.1559,2.1181,2.1108,2.1108,2.1108,2.1108,2.1255,2.1632,2.0782,2.0183,2.0183,1.9406,1.8887,1.8887,1.9402,1.9124,1.7945,1.9811,2.0483,1.9592,2.0493,2.0973,2.0973,1.9957,1.9063,1.8277,1.7806,1.7857,1.861,1.8939,1.8825,1.835,1.672,1.5103,1.4405,0.0,1.2131,1.223,1.2065,1.2079,1.2747,1.3069,1.3894,1.5725,0.0,0.0,0.0,0.0,0.0,0.0,0.0,0.0,0.0,0.0,0.0,0.0,0.0,0.0,2.4429,2.4551,2.4749,2.4901,2.4219,2.4035,2.4262,2.372,2.3514,2.3743,2.42,2.4682,2.525,2.489,2.4731,0.0,0.0,0.0,0.0,2.2911,2.318,2.3858,2.447,2.4788,2.495,2.5165,2.5039,2.4814,2.4543,2.3705,2.284,2.3479,2.3019,2.2294,2.2908,2.3121,2.3219,2.3859,2.4253,2.4524,2.4796,2.4696,2.4698,2.5139,2.4859,2.4498,2.4517,2.4261,2.3945,2.3608,2.3579,2.3495,2.327,2.2777,2.2324,2.224,2.1802,2.1485,2.1485,2.1723,2.1988,2.2071,2.169,2.1257,2.0793,2.0114,1.9748,1.9832,1.9611,1.9434,1.9257,1.9724,2.0065,2.0353,2.0585,2.0883,2.1178,2.0651,1.9903,1.895,1.7863,1.7819,0.0,1.6735,1.6743,1.6281,1.5096,0.0,0.0,0.0,1.1987,1.2481,1.24,1.2433,1.3233,1.3522,1.4244,1.6029,0.0,0.0,0.0,0.0,0.0,0.0,0.0,0.0,0.0,0.0,0.0,0.0,0.0,0.0,2.4201,2.4399,2.4705,2.4959,2.4334,2.4219,2.4569,2.3796,2.3491,2.3619,2.3953,2.4358,2.4922,2.4561,2.4335,0.0,0.0,0.0,0.0,2.2521,2.2837,2.3511,2.4149,2.4518,2.4734,2.5004,2.4969,2.4717,2.4443,2.3577,2.2726,2.3202,2.3022,2.2676,2.3261,2.3548,2.3716,2.4217,2.4679,2.4999,2.505,2.4984,2.4973,2.5341,2.5071,2.4721,2.4871,2.4749,2.4468,2.4203,2.4146,2.406,2.3796,2.3336,2.2973,2.2945,2.2492,2.2099,2.2008,2.2226,2.2325,2.2278,2.192,2.1611,2.1303,2.0602,2.0073,1.9844,1.9849,1.9841,1.9745,2.0138,2.0489,2.0867,2.0753,2.0865,2.1123,2.0612,1.9984,1.9272,1.8588,1.8551,0.0,0.0,0.0,0.0,0.0,0.0,0.0,0.0,0.0,1.2625,1.2715,1.2942,1.3832,1.3931,1.4323,1.5523,0.0,0.0,0.0,0.0,0.0,0.0,0.0,0.0,0.0,0.0,0.0,0.0,0.0,0.0,2.4044,2.4123,2.4408,2.4791,2.4288,2.426,2.4613,2.3631,2.3345,2.3586,2.3897,2.4239,2.4486,2.4177,2.379,0.0,0.0,0.0,0.0,2.1989,2.2339,2.3082,2.3567,2.4071,2.4645,2.4915,2.4757,2.442,2.4392,2.3512,2.2481,2.2659,2.2775,2.2976,2.3374,2.3965,2.4491,2.4544,2.5219,2.5883,2.5496,2.5619,2.58,2.547,2.5354,2.539,2.539,2.5503,2.5479,2.499,2.4941,2.4711,2.4093,2.3758,2.3515,2.3345,2.3054,2.2771,2.2517,2.2506,2.2411,2.2268,2.1667,2.1438,2.177,2.0893,2.0025,1.9244,2.0154,2.0371,1.9619,2.0884,2.1443,2.1114,2.0921,2.082,2.0783,2.005,1.9562,1.9398,1.9864,1.9828,1.4673,0.0,1.3134,1.2739,1.2376,1.2323,0.0,0.0,0.0,0.0,0.0,0.0,0.0,0.0,0.0,0.0,0.0,0.0,0.0,0.0,0.0,0.0,0.0,0.0,0.0,0.0,0.0,0.0,0.0,2.3712,2.4097,2.4163,2.417,2.4121,2.4261,2.4519,2.5017,2.4225,2.3808,2.3613,2.3676,2.3598,2.3459,2.3366,2.3154,0.0,0.0,0.0,2.1989,2.1937,2.213,2.2511,2.2852,2.3193,2.3606,2.4121,2.4088,2.3755,2.3976,2.352,2.2815,2.2665,2.2824,2.3049,2.3186,2.3685,2.4362,2.4809,2.4934,2.4969,2.5378,2.506,2.4679,2.4867,2.4693,2.4479,2.4479,2.4653,2.4794,2.4892,2.5088,2.5148,2.5004,2.4476,2.4039,2.3802,2.3096,2.2564,2.2535,2.2595,2.2629,2.258,2.2509,2.2175,2.1631,2.1058,2.0802,2.1006,2.083,2.0653,2.0508,2.0635,2.058,2.03,2.0229,2.0379,2.0816,2.04,2.0182,2.0058,2.0118,2.0138,1.4206,1.3681,1.3242,1.3176,1.2828,1.2752,1.3691,0.0,0.0,0.0,0.0,0.0,0.0,0.0,0.0,0.0,0.0,0.0,0.0,0.0,0.0,0.0,0.0,0.0,0.0,0.0,0.0,0.0,0.0,2.3494,2.3733,2.3803,2.3722,2.3666,2.3597,2.3919,2.4631,2.4123,2.3764,2.3588,2.3569,2.3417,2.3095,2.293,2.2702,0.0,0.0,0.0,2.1642,2.1647,2.1823,2.2072,2.2402,2.2709,2.3005,2.3461,2.3497,2.3341,2.3423,2.3284,2.2978,2.2705,2.2929,2.3357,2.3169,2.3564,2.4206,2.4457,2.4544,2.4631,2.5052,2.482,2.4569,2.5112,2.4894,2.4603,2.479,2.4876,2.4843,2.4726,2.4941,2.5088,2.4941,2.4557,2.4212,2.4163,2.3639,2.3269,2.3105,2.3041,2.2916,2.2593,2.2477,2.2191,2.1504,2.1234,2.1074,2.0927,2.0834,2.0737,2.0783,2.0694,2.0358,1.9814,1.995,2.005,2.0266,2.0291,2.0271,2.0218,2.035,2.0409,1.4301,1.4424,1.4612,1.4479,1.3994,1.3749,1.4475,0.0,0.0,0.0,0.0,0.0,0.0,0.0,0.0,0.0,0.0,0.0,0.0,0.0,0.0,0.0,0.0,0.0,0.0,0.0,0.0,0.0,0.0,2.319,2.3229,2.321,2.3225,2.3215,2.2777,2.2942,2.3762,2.3609,2.3554,2.3662,2.3547,2.3348,2.296,2.2659,2.2265,2.1766,0.0,0.0,2.1197,2.1306,2.1466,2.172,2.2168,2.2445,2.2703,2.3014,2.3083,2.3049,2.3028,2.3047,2.3066,2.286,2.3255,2.3717,2.3375,2.3722,2.4211,2.4084,2.4276,2.4505,2.4765,2.4757,2.4882,2.5507,2.5301,2.5057,2.544,2.5431,2.5164,2.4646,2.4775,2.4892,2.4578,2.4387,2.4343,2.4474,2.433,2.4085,2.3885,2.3634,2.3173,2.2557,2.2255,2.1919,2.1525,2.149,2.1179,2.0431,2.0704,2.0915,2.0864,2.0867,2.0527,1.979,1.988,1.9899,1.9764,2.0049,2.0208,2.0266,2.0657,2.0588,1.6293,1.6673,1.6391,1.4513,1.3963,1.4111,1.512,0.0,0.0,0.0,0.0,0.0,0.0,0.0,0.0,0.0,0.0,0.0,0.0,0.0,0.0,0.0,0.0,0.0,0.0,0.0,0.0,0.0,0.0,2.2628,2.3253,2.31,2.2753,2.2204,2.2427,2.2473,2.2397,2.2943,2.3478,2.3998,2.3461,2.2874,2.2362,2.2215,2.1687,2.0858,0.0,2.1156,2.0648,2.0924,2.1191,2.149,2.1865,2.2127,2.2391,2.291,2.2912,2.2723,2.298,2.3066,2.3151,2.3461,2.3785,2.4076,2.3964,2.4439,2.4934,2.4788,2.4535,2.4371,2.4743,2.4776,2.4794,2.49,2.5135,2.5311,2.52,2.534,2.5339,2.4899,2.5088,2.5137,2.4892,2.4727,2.4615,2.4666,2.4324,2.4122,2.407,2.3809,2.3461,2.3032,2.2705,2.2362,2.1936,2.1901,2.1835,2.1735,2.1542,2.1395,2.1221,2.079,2.0601,2.0692,2.0004,1.9965,2.0616,2.0203,2.0384,2.1047,2.0937,2.0877,1.5056,1.5459,1.5719,1.517,1.5433,1.5903,0.0,0.0,0.0,0.0,0.0,0.0,0.0,0.0,0.0,0.0,0.0,0.0,0.0,0.0,0.0,0.0,0.0,0.0,0.0,0.0,0.0,0.0,0.0,0.0,2.2791,2.2552,2.2191,2.1829,2.1784,2.1974,2.2387,2.2476,2.2928,2.3551,2.3277,2.2871,2.2403,2.1847,2.1371,2.0858,0.0,2.0461,2.0308,2.0618,2.0893,2.1223,2.1501,2.2035,2.2587,2.2978,2.2997,2.2877,2.3049,2.3237,2.3443,2.3667,2.3785,2.3853,2.3634,2.386,2.4223,2.4362,2.4535,2.4726,2.5054,2.5106,2.5212,2.557,2.5659,2.5585,2.5484,2.5413,2.5114,2.4622,2.4695,2.4794,2.4548,2.4482,2.4503,2.4503,2.4364,2.4298,2.4298,2.4088,2.3843,2.3565,2.3341,2.3014,2.2596,2.2584,2.2367,2.1845,2.1745,2.1459,2.1113,2.0719,2.0385,2.0198,1.979,1.9764,2.0166,2.02,2.0496,2.104,2.0947,2.0822,1.4047,1.4506,1.523,1.5858,0.0,0.0,0.0,0.0,0.0,0.0,0.0,0.0,0.0,0.0,0.0,0.0,0.0,0.0,0.0,0.0,0.0,0.0,0.0,0.0,0.0,0.0,0.0,0.0,0.0,0.0,2.2338,2.2044,2.175,2.1521,2.1293,2.1556,2.2229,2.2118,2.2503,2.3206,2.2995,2.2754,2.2491,2.1613,2.104,2.0781,2.008,1.9919,2.0052,2.0327,2.0721,2.1137,2.1443,2.2113,2.2934,2.306,2.315,2.315,2.3252,2.3457,2.3766,2.3905,2.3939,2.3871,2.3546,2.36,2.389,2.4171,2.477,2.5285,2.5365,2.5488,2.5687,2.6159,2.612,2.6005,2.5964,2.5666,2.521,2.4569,2.4577,2.4627,2.4327,2.4317,2.4362,2.4362,2.4491,2.4544,2.4439,2.428,2.4035,2.3737,2.3618,2.3375,2.2957,2.286,2.2536,2.1742,2.1808,2.1569,2.1027,2.0822,2.0409,1.9814,1.9724,1.9724,1.9814,2.0206,2.0629,2.1052,2.0933,2.0778,1.5225,1.5867,1.646,1.6374,1.617,0.0,1.8705,1.8815,0.0,1.9892,0.0,0.0,0.0,0.0,0.0,0.0,0.0,0.0,0.0,0.0,0.0,0.0,0.0,0.0,0.0,0.0,0.0,0.0,0.0,0.0,2.2031,2.1737,2.1443,2.1149,2.1439,2.1415,2.1218,2.1807,2.2601,2.3525,2.2681,2.2242,2.2198,2.1511,2.0739,1.9924,2.0085,1.9989,1.9764,2.0083,2.0704,2.1511,2.1838,2.2473,2.3277,2.3181,2.3171,2.3274,2.3611,2.38,2.3867,2.4514,2.4744,2.4713,2.4535,2.4748,2.5049,2.5021,2.5523,2.5919,2.5512,2.569,2.5984,2.6002,2.6296,2.6498,2.6377,2.6318,2.6064,2.5344,2.5219,2.5097,2.4576,2.4527,2.4576,2.4576,2.4706,2.4662,2.4284,2.4196,2.3922,2.3238,2.3134,2.2997,2.2687,2.2367,2.2063,2.1725,2.2055,2.1933,2.1283,2.1267,2.0953,2.035,2.0143,2.0158,2.035,2.0535,2.0845,2.1365,2.1139,2.086,1.3939,1.5096,1.6347,1.6339,1.6996,0.0,0.0,1.9237,1.9864,2.0707,2.1619,0.0,0.0,0.0,0.0,0.0,0.0,0.0,0.0,0.0,0.0,0.0,0.0,0.0,0.0,0.0,0.0,0.0,0.0,0.0,2.147,2.1144,2.1038,2.1109,2.1061,2.11,2.1163,2.1581,2.1978,2.2451,2.2284,2.2184,2.2169,2.1511,2.0886,2.0344,2.0082,1.9906,1.9791,2.0062,2.0728,2.1665,2.2561,2.315,2.3435,2.3511,2.3582,2.3656,2.3775,2.3947,2.4183,2.4445,2.4493,2.4436,2.439,2.455,2.4889,2.5103,2.5639,2.6093,2.5883,2.5955,2.6118,2.6299,2.6354,2.6191,2.5899,2.5861,2.5627,2.4947,2.4823,2.4718,2.4508,2.4561,2.4609,2.4609,2.4737,2.4761,2.4569,2.4552,2.4456,2.4084,2.36,2.3358,2.3289,2.2554,2.1979,2.1725,2.1704,2.1464,2.1078,2.1062,2.0861,2.048,2.0183,2.0174,2.0519,2.0783,2.1121,2.1446,2.1395,2.1094,1.3416,1.4585,1.5955,1.5946,0.0,0.0,1.9192,1.9869,2.0886,2.2282,2.3005,0.0,0.0,0.0,0.0,0.0,0.0,0.0,0.0,0.0,0.0,0.0,0.0,0.0,0.0,0.0,0.0,0.0,0.0,0.0,0.0,2.0684,2.0592,2.0828,2.0765,2.0801,2.0889,2.118,2.1329,2.1256,2.1566,2.1861,2.2008,2.1467,2.0916,2.0373,2.0185,1.9957,1.9832,2.0117,2.0758,2.1754,2.2991,2.3553,2.3675,2.3805,2.3937,2.4105,2.401,2.4082,2.4255,2.448,2.4394,2.4272,2.4501,2.47,2.4951,2.5315,2.5852,2.6201,2.6018,2.6095,2.6261,2.672,2.6445,2.5991,2.5739,2.5685,2.5487,2.4881,2.4703,2.4721,2.4614,2.4626,2.4691,2.4783,2.4861,2.4872,2.4769,2.4751,2.4651,2.4362,2.386,2.3496,2.3372,2.2653,2.2011,2.1589,2.1318,2.1062,2.0925,2.0976,2.0861,2.046,2.0167,2.0236,2.0594,2.0863,2.1194,2.1519,2.1383,2.1091,1.4164,1.4691,1.54,0.0,0.0,0.0,2.0666,2.1039,2.2019,2.4996,0.0,0.0,0.0,0.0,0.0,0.0,0.0,0.0,0.0,0.0,0.0,0.0,0.0,0.0,0.0,0.0,0.0,0.0,0.0,0.0,0.0,2.0548,2.0167,2.0167,2.053,2.0561,2.0274,2.0628,2.0637,2.027,2.0558,2.1061,2.1686,2.135,2.0687,1.9864,2.044,2.0328,1.9836,2.0094,2.0758,2.1754,2.3007,2.3699,2.4007,2.4023,2.4234,2.4525,2.4509,2.4298,2.4122,2.4678,2.467,2.4508,2.5201,2.5378,2.5463,2.584,2.6174,2.6301,2.5935,2.6074,2.6468,2.7066,2.6645,2.6063,2.6063,2.6063,2.5898,2.5331,2.5165,2.5128,2.4812,2.4757,2.4868,2.5183,2.5165,2.5099,2.4733,2.4698,2.4433,2.377,2.3718,2.3423,2.2736,2.2443,2.2034,2.135,2.1078,2.0925,2.0925,2.1165,2.1004,2.04,2.0225,2.0256,2.0478,2.0628,2.1018,2.1597,2.0988,2.0674,1.4088,1.567,0.0,0.0,0.0,0.0,0.0,2.2704,0.0,0.0,0.0,0.0,0.0,0.0,0.0,0.0,0.0,0.0,0.0,0.0,0.0,0.0,0.0,0.0,0.0,0.0,0.0,0.0,0.0,0.0,0.0,1.9653,1.9666,1.9937,2.004,1.9999,1.9978,2.0274,2.0285,1.9924,2.027,2.06,2.0975,2.0888,2.0616,2.013,2.0087,1.9847,1.9583,2.0325,2.1044,2.1783,2.2803,2.3294,2.3462,2.4108,2.4413,2.4567,2.4547,2.4444,2.4331,2.4318,2.4342,2.4488,2.4929,2.5391,2.5906,2.6243,2.6584,2.6875,2.6991,2.6707,2.6365,2.6163,2.5823,2.5441,2.5441,2.5441,2.5293,2.4757,2.4646,2.4535,2.42,2.4144,2.434,2.4913,2.4799,2.4612,2.4493,2.4493,2.4387,2.4213,2.3741,2.3315,2.3123,2.2435,2.1827,2.135,2.1078,2.0925,2.0925,2.0976,2.0877,2.0476,2.0649,2.068,2.0589,2.1082,2.1461,2.1681,2.1238,2.0953,1.4228,1.568,0.0,0.0,0.0,0.0,0.0,0.0,0.0,0.0,0.0,0.0,0.0,0.0,0.0,0.0,0.0,0.0,0.0,0.0,0.0,0.0,0.0,0.0,0.0,0.0,0.0,0.0,0.0,0.0,0.0,1.9325,1.9351,1.9462,1.9542,1.9626,1.9626,1.9983,2.0001,1.9825,2.0227,2.0517,2.0679,2.0669,2.0626,2.0438,1.9913,1.9637,1.964,2.048,2.1178,2.1762,2.2613,2.3138,2.3563,2.4004,2.4424,2.4754,2.4607,2.4455,2.4317,2.4224,2.4236,2.4343,2.497,2.5427,2.5904,2.655,2.6823,2.69,2.6927,2.6721,2.6496,2.6377,2.6039,2.5674,2.5674,2.5569,2.5349,2.5054,2.48,2.458,2.4488,2.4407,2.453,2.5205,2.5224,2.5201,2.5201,2.4839,2.4586,2.4586,2.3972,2.3376,2.2971,2.2405,2.1816,2.1162,2.1103,2.1079,2.1079,2.1079,2.1028,2.0872,2.0953,2.1025,2.1018,2.1284,2.1384,2.1296,2.1067,2.0664,1.4441,0.0,0.0,0.0,0.0,0.0,0.0,0.0,0.0,0.0,0.0,0.0,0.0,0.0,0.0,0.0,0.0,0.0,0.0,0.0,0.0,0.0,0.0,0.0,0.0,0.0,0.0,0.0,0.0,0.0,0.0,1.933,1.9256,1.8978,1.9283,1.947,1.9452,1.9706,1.984,1.984,2.0408,2.0651,2.0698,2.0694,2.0659,2.0603,1.9731,1.9556,1.9886,2.0477,2.1095,2.175,2.2427,2.3225,2.4036,2.3764,2.4269,2.5042,2.4734,2.4356,2.4161,2.4397,2.4246,2.4176,2.5152,2.5468,2.5737,2.6739,2.6795,2.6503,2.6107,2.6245,2.6601,2.7134,2.6819,2.6331,2.6331,2.5995,2.5743,2.5816,2.5307,2.5,2.5277,2.5169,2.5169,2.5693,2.6134,2.6365,2.6331,2.5503,2.4882,2.4849,2.4265,2.3507,2.2554,2.2436,2.1985,2.1,2.127,2.1391,2.1391,2.1444,2.1444,2.1444,2.124,2.1276,2.1511,2.1319,2.0985,2.0676,2.0585,1.9988,0.0,1.5621,0.0,0.0,0.0,0.0,0.0,0.0,0.0,0.0,0.0,0.0,0.0,0.0,0.0,0.0,0.0,0.0,0.0,0.0,0.0,0.0,0.0,0.0,0.0,0.0,0.0,0.0,0.0,0.0,1.8998,1.9269,1.9349,1.9207,1.9516,1.9813,2.004,2.0107,2.0134,0.0,2.0261,2.047,2.0698,2.0456,2.0137,1.9672,1.9193,1.9467,2.0174,2.0048,2.0658,2.1803,2.2703,2.3305,2.3748,2.4208,2.4671,2.5042,2.4734,2.4391,2.4092,2.4168,2.4105,2.4196,2.4987,2.5359,2.5762,2.6496,2.6487,2.6172,2.6106,2.6133,2.6194,2.6315,2.6185,2.5925,2.5693,2.5567,2.5418,2.5211,2.5103,2.5011,2.5094,2.4877,2.4818,2.5111,2.5713,2.5974,2.5744,2.5277,2.4879,2.458,2.3983,2.336,2.2873,2.2589,2.2141,2.1431,2.1424,2.1363,2.1148,2.1632,2.1793,2.154,2.1705,2.1509,2.0888,2.1103,2.0866,2.0325,1.9808,1.9351,0.0,0.0,0.0,0.0,0.0,0.0,0.0,0.0,0.0,0.0,0.0,0.0,0.0,0.0,0.0,0.0,0.0,0.0,0.0,0.0,0.0,0.0,0.0,0.0,0.0,0.0,0.0,0.0,0.0,1.9494,1.8907,1.9243,1.9309,1.909,1.9542,1.9867,2.0027,2.0307,2.0441,2.0441,2.0588,2.0489,2.0253,2.0283,1.9992,1.9403,1.9223,1.9396,1.9889,2.0146,2.0859,2.1772,2.2617,2.3187,2.361,2.3792,2.4177,2.461,2.4425,2.4132,2.3915,2.4036,2.4096,2.4219,2.4685,2.5103,2.5491,2.614,2.6232,2.6084,2.6084,2.6339,2.6533,2.6408,2.6156,2.5939,2.5744,2.5551,2.5535,2.5704,2.5518,2.5398,2.5725,2.5521,2.5359,2.5539,2.5987,2.6277,2.627,2.567,2.5192,2.5052,2.4305,2.3636,2.3207,2.3046,2.2791,2.2261,2.208,2.2025,2.2025,2.2025,2.1947,2.1775,2.1951,2.1729,2.1133,2.1188,2.0728,1.9769,1.9752,1.9169,0.0,0.0,0.0,0.0,0.0,0.0,0.0,0.0,0.0,0.0,0.0,0.0,0.0,0.0,0.0,0.0,0.0,0.0,0.0,0.0,0.0,0.0,0.0,0.0,0.0,0.0,0.0,0.0,0.0,1.9501,1.9023,1.9243,1.9341,1.92,1.9687,2.0039,2.0207,2.0631,2.0846,2.0805,2.0824,2.0428,1.972,1.9965,1.9815,1.9336,1.9475,1.9578,1.972,2.0586,2.129,2.1896,2.2459,2.3074,2.3542,2.3293,2.3542,2.41,2.4053,2.3794,2.3688,2.3992,2.4113,2.4176,2.4595,2.4904,2.5244,2.5829,2.5988,2.5988,2.5925,2.6451,2.6855,2.652,2.6256,2.6142,2.6204,2.5912,2.5879,2.6471,2.617,2.6013,2.6469,2.6307,2.6045,2.6011,2.6266,2.6571,2.6891,2.6138,2.5545,2.5413,2.4709,2.3975,2.352,2.3536,2.3457,2.3099,2.2808,2.2663,2.2818,2.2317,2.2035,2.2023,2.2071,2.1856,2.1465,2.1244,2.0575,1.9412,1.9828,1.9148,0.0,0.0,0.0,0.0,0.0,0.0,0.0,0.0,0.0,0.0,0.0,0.0,0.0,0.0,0.0,0.0,0.0,0.0,0.0,0.0,0.0,0.0,0.0,0.0,0.0,0.0,0.0,0.0,1.941,1.9647,1.9327,1.9359,1.9717,2.0455,2.0509,2.0964,2.1797,2.1568,2.136,2.1101,2.0126,1.9591,1.947,1.9231,1.9052,1.9011,1.9829,2.0327,2.0634,2.1299,2.1927,2.2503,2.2913,2.3258,2.3604,2.3542,2.379,2.4053,2.379,2.3636,2.3668,2.3977,2.4101,2.4224,2.4828,2.5031,2.5183,2.5532,2.569,2.5565,2.5313,2.5755,2.6216,2.5831,2.5945,2.6263,2.6501,2.6469,2.6469,2.6566,2.6741,2.6769,2.6226,2.6145,2.5999,2.572,2.5733,2.5839,2.6205,2.5867,2.5363,2.4789,2.4595,2.4245,2.3536,2.3816,2.3901,2.356,2.2944,2.2501,2.2326,2.194,2.1873,2.2096,2.2019,2.1616,2.0843,2.1006,2.0632,1.9749,1.95,1.9034,1.4839,0.0,0.0,0.0,0.0,0.0,0.0,0.0,0.0,0.0,0.0,0.0,0.0,0.0,0.0,0.0,0.0,0.0,0.0,0.0,0.0,0.0,0.0,0.0,0.0,0.0,0.0,0.0,1.9292,1.9561,1.9604,1.9649,1.9887,2.0441,2.0607,2.0888,2.1334,2.1135,2.0917,2.0598,1.9929,1.9496,1.932,1.9167,1.9139,1.9228,2.0111,2.0637,2.0892,2.1792,2.2262,2.2407,2.2889,2.3284,2.3604,2.3417,2.3542,2.379,2.3666,2.3479,2.3355,2.3728,2.379,2.3882,2.4158,2.4549,2.4874,2.5219,2.5644,2.5866,2.5548,2.5798,2.6066,2.5507,2.5654,2.5975,2.6088,2.6216,2.6392,2.6392,2.6456,2.6359,2.5675,2.569,2.5704,2.5352,2.5488,2.5733,2.6083,2.5961,2.5725,2.5233,2.5149,2.4935,2.4452,2.4372,2.4376,2.4445,2.366,2.3265,2.3526,2.2681,2.2291,2.2391,2.2013,2.1607,2.1218,2.0998,2.0416,1.9502,1.9745,1.9305,0.0,0.0,0.0,0.0,0.0,0.0,0.0,0.0,0.0,0.0,0.0,0.0,0.0,0.0,0.0,0.0,0.0,0.0,0.0,0.0,0.0,0.0,0.0,0.0,0.0,0.0,0.0,0.0,1.9023,1.9367,1.9764,1.9798,2.0083,2.0611,2.0836,2.1064,2.1327,2.11,2.0681,2.006,1.9761,1.9426,1.9125,1.9167,1.9389,1.9667,2.0416,2.0886,2.1237,2.219,2.2559,2.2476,2.2893,2.3293,2.3542,2.3293,2.3355,2.3604,2.3604,2.3355,2.3168,2.3479,2.3664,2.3723,2.3758,2.4222,2.4906,2.5078,2.5691,2.6215,2.5778,2.5965,2.604,2.5559,2.5646,2.5827,2.5798,2.6024,2.6216,2.6216,2.6216,2.5977,2.5313,2.5455,2.5516,2.5167,2.5288,2.5549,2.5839,2.5839,2.5745,2.5359,2.5423,2.5317,2.4976,2.4817,2.4833,2.5087,2.4154,2.3816,2.4322,2.3148,2.2503,2.262,2.1922,2.1534,2.139,2.1,2.0373,1.951,1.9957,1.9553,0.0,0.0,0.0,0.0,0.0,0.0,0.0,0.0,0.0,0.0,0.0,0.0,0.0,0.0,0.0,0.0,0.0,0.0,0.0,0.0,0.0,0.0,0.0,0.0,0.0,0.0,0.0,0.0,1.8747,1.9178,1.9781,1.982,2.0343,2.1589,2.1632,2.2091,2.2974,2.2112,2.1015,1.9792,1.9248,1.881,1.8577,1.8819,1.9398,2.0272,2.0587,2.1246,2.2166,2.2486,2.2798,2.3091,2.3106,2.3293,2.3604,2.3604,2.3604,2.3604,2.3604,2.3355,2.3168,2.3479,2.3828,2.4086,2.4082,2.4747,2.5465,2.5154,2.5864,2.6514,2.5808,2.5874,2.6164,2.6075,2.6105,2.6158,2.6151,2.6216,2.6216,2.6216,2.6216,2.6041,2.5628,2.5581,2.5516,2.5167,2.5103,2.5103,2.5165,2.5165,2.5037,2.4703,2.4974,2.4976,2.4642,2.4897,2.5087,2.5103,2.4146,2.3642,2.3657,2.2675,2.227,2.2561,2.1696,2.107,2.072,2.1,2.0752,2.0154,2.0168,1.9722,0.0,0.0,0.0,0.0,0.0,0.0,0.0,0.0,0.0,0.0,0.0,0.0,0.0,0.0,0.0,0.0,0.0,0.0,0.0,0.0,0.0,0.0,0.0,0.0,0.0,0.0,0.0,0.0,0.0,1.9431,2.009,2.0118,2.053,2.1351,2.138,2.1423,2.1584,2.1235,2.0558,1.9521,1.9515,1.9206,1.8791,1.9274,1.9997,2.0903,2.1,2.1568,2.2454,2.2795,2.3003,2.3106,2.3106,2.3425,2.387,2.368,2.387,2.4184,2.3743,2.368,2.3743,2.3617,2.3691,2.3809,2.4025,2.4325,2.4735,2.5248,2.582,2.6268,2.6021,2.589,2.5727,2.552,2.5658,2.5923,2.6168,2.5977,2.5882,2.6168,2.585,2.5312,2.475,2.4984,2.5061,2.4564,2.4795,2.5103,2.5103,2.5288,2.5301,2.4928,2.5224,2.5221,2.4671,2.4484,2.4531,2.4754,2.4032,2.3818,2.4201,2.3482,2.3025,2.291,2.2177,2.1707,2.1594,2.1104,2.0708,2.0499,2.0354,1.9862,0.0,0.0,0.0,0.0,0.0,0.0,0.0,0.0,0.0,0.0,0.0,0.0,0.0,0.0,0.0,0.0,0.0,0.0,0.0,0.0,0.0,0.0,0.0,0.0,0.0,0.0,0.0,0.0,0.0,0.0,2.01,2.024,2.064,2.1465,2.171,2.1595,2.1177,2.1073,2.0528,1.9542,1.958,1.9434,1.9059,1.9589,2.038,2.1356,2.1509,2.2009,2.2774,2.2857,2.3018,2.3106,2.3106,2.3499,2.4048,2.3858,2.4048,2.4381,2.4168,2.4074,2.4112,2.3985,2.4006,2.4119,2.4119,2.4322,2.4745,2.5272,2.5769,2.611,2.6125,2.6059,2.5865,2.5585,2.5866,2.6289,2.6464,2.5928,2.5518,2.5929,2.5438,2.4857,2.4487,2.4795,2.4919,2.4487,2.4795,2.5151,2.5278,2.548,2.5542,2.5278,2.548,2.5349,2.4687,2.4468,2.4452,2.4458,2.4003,2.3927,2.4277,2.359,2.3148,2.2925,2.2291,2.1937,2.1945,2.121,2.077,2.0558,2.0243,1.9709,0.0,0.0,0.0,0.0,0.0,0.0,0.0,0.0,0.0,0.0,0.0,0.0,0.0,0.0,0.0,0.0,0.0,0.0,0.0,0.0,0.0,0.0,0.0,0.0,0.0,0.0,0.0,0.0,1.8736,1.918,1.9757,2.0059,2.0788,2.2036,2.2647,2.2647,2.2139,2.1764,2.0988,1.9826,1.9485,1.9341,1.9288,1.9656,2.054,2.1701,2.2037,2.254,2.3079,2.2759,2.2828,2.3106,2.3106,2.3499,2.4127,2.4127,2.4127,2.425,2.4823,2.4668,2.4205,2.4523,2.4834,2.4994,2.4351,2.483,2.5532,2.5203,2.5553,2.6078,2.6078,2.6398,2.6599,2.6249,2.6666,2.7178,2.7155,2.6121,2.5234,2.5549,2.5062,2.4749,2.5073,2.5073,2.5058,2.5058,2.5058,2.5246,2.5533,2.5581,2.5581,2.5581,2.5581,2.5279,2.4642,2.4881,2.4745,2.4112,2.4086,2.3932,2.3612,2.2947,2.2616,2.2635,2.1979,2.1627,2.1732,2.136,2.0857,2.0286,1.9957,1.9132,1.7997,0.0,0.0,0.0,0.0,0.0,0.0,0.0,0.0,0.0,0.0,0.0,0.0,0.0,0.0,0.0,0.0,0.0,0.0,0.0,0.0,0.0,0.0,0.0,0.0,0.0,0.0,0.0,1.8637,1.9008,1.9415,1.9935,2.0582,2.1421,2.1605,2.1839,2.2082,2.1601,2.0892,2.0183,2.0041,1.9719,1.9356,2.012,2.0923,2.1725,2.2053,2.254,2.3094,2.301,2.3032,2.3106,2.3106,2.352,2.4084,2.4084,2.4426,2.4844,2.4737,2.4773,2.483,2.496,2.518,2.5427,2.5248,2.5383,2.5577,2.5487,2.5599,2.5727,2.5727,2.5996,2.6197,2.5861,2.6313,2.6707,2.6448,2.5911,2.5576,2.5903,2.5644,2.525,2.5121,2.5092,2.4921,2.4482,2.4796,2.5141,2.525,2.5723,2.5914,2.5596,2.5376,2.4968,2.428,2.4092,2.4061,2.4081,2.3655,2.3519,2.396,2.3293,2.2856,2.2577,2.2206,2.1867,2.1732,2.1126,2.0747,2.0587,1.9836,1.8851,0.0,0.0,0.0,0.0,0.0,0.0,1.532,1.517,0.0,0.0,0.0,0.0,0.0,0.0,0.0,0.0,0.0,0.0,0.0,0.0,0.0,0.0,0.0,0.0,0.0,1.7789,1.7784,1.8026,1.8602,1.9147,1.9514,1.9935,2.058,2.1319,2.1501,2.1836,2.2286,2.1668,2.1133,2.0663,2.0351,2.0099,1.9906,2.0579,2.1288,2.1934,2.2393,2.2867,2.3311,2.3488,2.3499,2.3514,2.352,2.3966,2.4487,2.4356,2.454,2.4915,2.4997,2.5019,2.5099,2.5231,2.5561,2.5786,2.5637,2.5546,2.5529,2.5529,2.5665,2.5801,2.5597,2.6042,2.6451,2.6244,2.6511,2.6702,2.6383,2.6058,2.5905,2.6067,2.5701,2.5341,2.535,2.5167,2.4981,2.4738,2.4964,2.5233,2.5514,2.6038,2.623,2.564,2.5436,2.5061,2.4379,2.3978,2.3794,2.3871,2.3521,2.3445,2.3672,2.3186,2.2705,2.2422,2.2363,2.2022,2.1489,2.1104,2.0708,2.0288,1.9429,1.863,0.0,0.0,0.0,0.0,0.0,0.0,1.6929,1.5842,1.498,0.0,0.0,0.0,0.0,0.0,0.0,0.0,0.0,0.0,0.0,0.0,0.0,0.0,0.0,0.0,1.6903,1.7356,1.7671,1.7716,1.8581,1.9316,1.9773,1.9962,2.0512,2.142,2.1812,2.2165,2.2564,2.1933,2.1501,2.1223,2.0593,2.0402,2.0794,2.1115,2.1613,2.2257,2.2854,2.3281,2.3603,2.3996,2.4138,2.4123,2.4098,2.4473,2.5032,2.4701,2.4598,2.4738,2.5368,2.5331,2.5158,2.5535,2.5891,2.604,2.5674,2.5574,2.552,2.5491,2.5741,2.6007,2.5604,2.6255,2.6974,2.6963,2.6969,2.6898,2.6544,2.6231,2.6017,2.6064,2.5528,2.5264,2.5553,2.5339,2.5215,2.5461,2.5244,2.5324,2.5928,2.638,2.6396,2.5708,2.5627,2.5383,2.4632,2.4297,2.399,2.3723,2.3586,2.3437,2.3137,2.2801,2.2442,2.2047,2.2303,2.2009,2.1205,2.1161,2.0658,1.9696,1.8957,1.8557,0.0,0.0,0.0,0.0,0.0,0.0,1.7332,1.6552,1.5866,0.0,0.0,0.0,0.0,0.0,0.0,0.0,0.0,0.0,0.0,0.0,0.0,0.0,0.0,0.0,1.7062,1.729,1.7474,1.7614,1.8333,1.9089,1.9695,1.9568,1.9799,2.0467,2.1009,2.1588,2.2205,2.181,2.1541,2.1501,2.0885,2.0794,2.113,2.1452,2.195,2.255,2.2933,2.33,2.3632,2.4224,2.4348,2.4128,2.4122,2.4342,2.4701,2.4635,2.4797,2.5031,2.5172,2.5143,2.521,2.5816,2.6064,2.6085,2.601,2.5972,2.5903,2.5364,2.5589,2.5926,2.5593,2.5838,2.6169,2.5908,2.6011,2.6081,2.5481,2.5481,2.5618,2.5697,2.5565,2.5495,2.5568,2.5327,2.5065,2.4862,2.4949,2.5146,2.5282,2.5804,2.6065,2.5657,2.5368,2.5071,2.466,2.4265,2.419,2.4396,2.3651,2.3271,2.3461,2.316,2.2572,2.1695,2.1562,2.1378,2.1191,2.101,2.0228,1.9071,1.9169,1.8945,0.0,0.0,0.0,2.1456,0.0,0.0,0.0,1.7081,1.6137,0.0,0.0,0.0,0.0,0.0,0.0,0.0,0.0,0.0,0.0,0.0,0.0,0.0,0.0,0.0,1.6672,1.6943,1.7347,1.784,1.8535,1.91,1.9502,1.9376,1.9575,2.0166,2.0491,2.1148,2.2111,2.1779,2.1689,2.1856,2.1514,2.1406,2.1467,2.195,2.233,2.2652,2.3322,2.3657,2.3881,2.4561,2.4768,2.4569,2.4569,2.4804,2.5085,2.4885,2.4987,2.5119,2.5119,2.5187,2.5449,2.5912,2.6343,2.6632,2.6813,2.6668,2.6195,2.5525,2.5637,2.5974,2.5813,2.6018,2.6179,2.5857,2.59,2.5886,2.5403,2.5418,2.5501,2.5396,2.5323,2.5398,2.5562,2.5323,2.5152,2.5345,2.5323,2.5413,2.5577,2.608,2.6117,2.5449,2.5203,2.5032,2.4834,2.4375,2.4242,2.4568,2.3802,2.3333,2.3333,2.3028,2.2546,2.188,2.1541,2.1327,2.1174,2.1097,2.0506,1.959,1.9317,1.9008,0.0,0.0,0.0,0.0,0.0,1.9775,0.0,0.0,0.0,0.0,0.0,0.0,0.0,0.0,0.0,0.0,0.0,0.0,0.0,0.0,0.0,0.0,0.0,0.0,0.0,1.651,1.7259,1.8303,1.8637,1.8975,1.9346,1.9324,1.9493,2.0023,2.0136,2.0734,2.1837,2.1677,2.1755,2.2093,2.2077,2.2053,2.1891,2.2389,2.2696,2.2842,2.3695,2.4139,2.4268,2.4856,2.5085,2.5119,2.5119,2.5255,2.5457,2.5187,2.5119,2.5119,2.5119,2.5255,2.5599,2.6055,2.6677,2.7244,2.7326,2.7009,2.6419,2.5692,2.5813,2.6105,2.6105,2.631,2.6427,2.6091,2.5974,2.5758,2.5368,2.5295,2.5222,2.4975,2.4916,2.4984,2.5457,2.5301,2.5331,2.5873,2.5748,2.5606,2.5923,2.6192,2.5989,2.5106,2.5084,2.5063,2.4989,2.4457,2.4239,2.4442,2.3823,2.3341,2.3085,2.2692,2.2346,2.2096,2.1787,2.142,2.1072,2.1067,2.0767,2.0164,1.9332,1.8924,0.0,0.0,0.0,0.0,2.2318,0.0,0.0,0.0,1.7822,0.0,0.0,0.0,0.0,0.0,0.0,0.0,0.0,0.0,0.0,0.0,0.0,0.0,0.0,0.0,0.0,1.6175,1.7291,1.8877,1.8159,1.8277,1.9576,1.9428,1.9338,1.9382,1.9925,2.0414,2.0828,2.1349,2.1764,2.2094,2.208,2.2216,2.252,2.2593,2.2945,2.3501,2.3931,2.4283,2.454,2.4943,2.509,2.5119,2.5119,2.5119,2.5119,2.5119,2.5119,2.5119,2.5119,2.5119,2.529,2.624,2.7024,2.7488,2.6577,2.6439,2.6419,2.5692,2.5974,2.6442,2.6442,2.6471,2.6427,2.6091,2.5798,2.5353,2.4761,2.4621,2.4538,2.417,2.4088,2.4374,2.5052,2.5158,2.5193,2.5545,2.5325,2.5203,2.5452,2.5393,2.5178,2.4848,2.4901,2.4799,2.4496,2.444,2.4299,2.406,2.3414,2.3034,2.2993,2.2401,2.2055,2.2015,2.176,2.1299,2.069,2.0739,2.0446,1.9763,1.9423,1.9101,0.0,0.0,0.0,0.0,0.0,0.0,1.9911,0.0,1.7886,0.0,0.0,0.0,0.0,0.0,0.0,0.0,0.0,0.0,0.0,0.0,0.0,0.0,0.0,0.0,0.0,0.0,0.0,0.0,1.7352,1.7785,1.8873,1.917,1.9376,1.9532,1.9613,2.008,2.0958,2.1259,2.1714,2.2379,2.2796,2.2856,2.2637,2.3204,2.3529,2.3618,2.4145,2.4437,2.4665,2.4987,2.5169,2.5315,2.5125,2.5119,2.5119,2.5119,2.5119,2.5119,2.5119,2.5255,2.5576,2.6562,2.7421,2.7817,2.6713,2.6803,2.707,2.604,2.6149,2.65,2.65,2.65,2.6427,2.6091,2.5769,2.5353,2.4879,2.4782,2.4587,2.413,2.4106,2.4424,2.4919,2.5056,2.5299,2.5947,2.5827,2.5714,2.6024,2.5606,2.5224,2.513,2.4961,2.482,2.468,2.4512,2.4358,2.4232,2.3432,2.2888,2.2687,2.2204,2.1991,2.1991,2.1502,2.1109,2.085,2.069,2.0305,1.9662,1.9585,1.918,2.48,0.0,0.0,0.0,0.0,0.0,0.0,0.0,0.0,0.0,0.0,0.0,0.0,0.0,0.0,0.0,0.0,0.0,0.0,0.0,0.0,0.0,0.0,0.0,0.0,0.0,0.0,1.6272,1.6364,1.6875,1.8081,1.8651,1.914,1.9538,1.9472,1.9988,2.1152,2.1257,2.1738,2.2601,2.3187,2.3231,2.2769,2.3592,2.3902,2.3764,2.4554,2.4893,2.4862,2.5319,2.554,2.5505,2.5271,2.5125,2.5119,2.5119,2.5119,2.5119,2.5119,2.544,2.6004,2.6761,2.7483,2.7956,2.6894,2.7014,2.7281,2.6176,2.6181,2.653,2.6474,2.6502,2.6442,2.6208,2.59,2.5528,2.5041,2.4958,2.4678,2.4053,2.4122,2.4358,2.4862,2.4958,2.5336,2.6341,2.6222,2.6093,2.643,2.584,2.5371,2.5328,2.4986,2.4717,2.4646,2.437,2.4191,2.4025,2.3324,2.2809,2.2539,2.2271,2.2058,2.1978,2.1503,2.1124,2.0838,2.076,2.0362,1.9623,1.966,1.9267,0.0,0.0,0.0,2.3096,0.0,0.0,0.0,0.0,1.9304,0.0,0.0,0.0,0.0,0.0,0.0,0.0,0.0,0.0,0.0,0.0,0.0,0.0,0.0,0.0,0.0,0.0,0.0,1.6199,1.5092,1.5314,1.7414,1.7851,1.8417,1.9194,1.9575,2.0224,2.1096,2.1481,2.1964,2.2608,2.2943,2.3121,2.3106,2.3442,2.3764,2.4166,2.516,2.5553,2.552,2.626,2.6146,2.5535,2.552,2.533,2.5119,2.5119,2.5119,2.5119,2.5119,2.5736,2.6604,2.6619,2.7281,2.792,2.6899,2.6858,2.684,2.5738,2.5968,2.6502,2.6445,2.6446,2.65,2.6486,2.6237,2.5792,2.5074,2.4932,2.465,2.3954,2.3825,2.4049,2.4679,2.4876,2.5336,2.6341,2.6222,2.611,2.6372,2.5827,2.5328,2.5217,2.4866,2.4544,2.4254,2.4,2.3571,2.2981,2.2928,2.2914,2.2846,2.249,2.2154,2.188,2.1867,2.1393,2.0513,2.0825,2.049,1.9571,1.9663,1.9349,0.0,0.0,2.6126,2.4728,0.0,0.0,0.0,0.0,0.0,0.0,0.0,0.0,0.0,0.0,0.0,0.0,0.0,0.0,0.0,0.0,0.0,0.0,0.0,0.0,0.0,0.0,0.0,1.449,1.455,1.5339,1.716,1.8253,1.9114,1.9749,2.0151,2.0816,2.1764,2.1882,2.2408,2.3254,2.3392,2.3313,2.312,2.3695,2.4218,2.4767,2.5331,2.5838,2.6245,2.6294,2.6101,2.5813,2.5388,2.5271,2.5344,2.5207,2.5119,2.5119,2.5119,2.5603,2.628,2.6224,2.6948,2.7646,2.6557,2.681,2.7194,2.6093,2.6113,2.6474,2.6736,2.6605,2.6532,2.675,2.6574,2.6126,2.5398,2.5184,2.4913,2.395,2.3928,2.4233,2.4747,2.487,2.517,2.5953,2.574,2.5611,2.5963,2.5377,2.4991,2.5185,2.485,2.4563,2.4489,2.4222,2.3888,2.3487,2.3531,2.339,2.3108,2.2968,2.2613,2.2108,2.164,2.1306,2.1073,2.0573,2.0203,1.9831,1.9686,1.9285,2.6404,2.6548,0.0,2.549,2.4548,0.0,2.1316,0.0,0.0,0.0,0.0,0.0,0.0,0.0,0.0,0.0,0.0,0.0,0.0,0.0,0.0,0.0,0.0,0.0,0.0,0.0,1.2685,1.3761,1.3993,1.49,0.0,0.0,1.914,2.0055,2.0651,2.1438,2.2398,2.246,2.2886,2.379,2.379,2.3664,2.3484,2.4134,2.4755,2.5308,2.5876,2.628,2.6619,2.6474,2.622,2.5798,2.5388,2.5286,2.533,2.5125,2.5119,2.5134,2.5387,2.5844,2.6309,2.6357,2.6892,2.7311,2.6464,2.6685,2.6979,2.6023,2.6042,2.6371,2.6402,2.6386,2.6473,2.6692,2.6605,2.6316,2.5651,2.559,2.5385,2.4625,2.4682,2.4958,2.5253,2.5166,2.5239,2.5726,2.5632,2.5562,2.5772,2.5267,2.4948,2.5212,2.4857,2.4596,2.4489,2.4315,2.4075,2.3794,2.3768,2.3696,2.3411,2.3125,2.2821,2.2557,2.1772,2.1358,2.1356,2.0547,2.0026,1.985,1.9579,1.9164]}]]